ECMWFNIL_700_spd_000.txt.gz
Wind_Speed
25 24 24 24 25 25 26 26 27 27 27 27 27 27 28 28 27 27 27 27 27 27 28 29 30 32 32 31 31 32 32 32 32 32 32 34 34 34 35 36 37 38
26 25 25 25 25 25 27 28 28 28 27 26 26 25 26 26 26 26 26 27 28 29 29 30 31 32 33 33 33 33 34 34 33 33 33 35 35 35 35 36 37 38
26 26 25 25 25 26 27 28 29 29 28 26 25 25 25 25 25 26 26 26 26 27 28 29 29 31 33 35 35 35 35 35 35 34 35 36 36 37 37 36 37 38
26 26 26 26 26 26 27 28 29 29 29 27 25 25 24 25 26 25 26 25 25 25 26 26 26 27 29 32 35 36 36 36 37 37 38 38 38 38 38 38 38 38
26 26 26 25 25 26 26 27 27 28 28 27 26 25 24 25 25 25 24 24 24 24 25 25 25 26 26 28 31 34 36 36 36 38 40 41 41 41 40 40 39 39
26 26 25 24 25 25 25 26 26 27 26 26 26 25 24 24 24 24 24 24 24 24 24 24 25 26 27 28 30 33 34 35 35 37 40 42 43 43 43 42 42 40
25 24 24 23 24 24 25 25 25 25 24 23 24 24 24 23 24 25 25 25 25 25 24 23 24 27 28 29 31 33 35 35 35 36 39 40 40 42 42 42 42 42
24 23 23 23 23 23 23 24 23 22 22 21 22 23 24 24 25 25 24 23 24 25 25 24 24 26 28 29 31 33 35 36 35 35 37 38 39 39 40 41 41 41
23 23 23 23 23 22 22 22 21 20 21 21 21 23 24 25 25 26 24 23 23 24 25 26 26 26 27 29 31 33 35 35 35 34 35 36 37 38 39 40 40 40
23 23 23 23 23 22 22 22 21 21 22 22 23 23 25 26 27 28 28 25 24 24 24 26 27 28 29 30 32 33 33 33 33 33 33 35 36 36 37 39 40 40
23 23 23 23 22 22 22 22 22 22 22 23 23 23 24 26 28 29 29 27 25 25 26 27 28 29 29 29 29 30 30 30 31 31 32 33 34 35 36 37 39 39
22 22 22 22 22 22 22 22 22 22 22 22 23 23 24 26 28 29 29 27 24 24 25 27 28 27 26 25 24 25 28 29 30 30 32 32 32 34 35 36 37 37
21 21 21 21 21 21 21 21 21 21 21 22 23 24 24 26 28 28 28 26 22 21 22 24 25 25 25 25 25 25 28 29 29 29 30 31 30 30 32 34 35 35
21 21 22 22 21 21 20 20 20 20 21 22 23 23 24 25 27 28 27 25 21 20 22 23 23 25 27 28 28 28 28 29 29 29 29 28 28 27 27 30 33 34
20 21 22 22 21 21 20 19 19 20 21 21 22 22 23 24 26 27 27 25 22 21 23 24 23 25 30 31 30 29 27 27 27 27 27 28 27 26 26 27 31 32
21 22 22 22 21 21 20 19 18 19 20 21 21 21 22 23 25 26 26 25 23 22 24 25 25 26 29 33 34 31 27 26 25 24 25 27 27 27 26 26 28 29
23 23 22 22 21 21 21 20 19 19 20 21 20 20 21 22 23 24 25 25 24 23 24 26 28 28 29 31 34 33 28 26 25 22 22 24 26 26 25 25 27 28
23 23 22 21 21 22 22 21 20 20 21 21 21 20 20 21 21 22 23 23 24 24 24 25 27 28 29 30 32 33 31 29 27 24 22 21 22 24 25 27 30 31
23 22 22 22 22 23 23 22 21 21 21 22 21 20 20 20 20 20 21 22 23 24 25 26 27 28 29 30 32 33 34 35 31 25 23 22 21 22 26 29 30 31
22 21 22 23 23 23 24 23 22 21 22 22 21 19 19 19 19 18 19 21 22 23 25 27 28 29 29 30 32 33 35 37 33 25 20 20 21 22 26 28 29 30
21 20 22 24 24 24 24 24 24 22 22 21 19 18 18 18 18 17 18 19 21 22 23 25 26 27 27 28 31 33 34 37 34 25 19 18 21 22 25 27 26 27
20 20 22 24 25 24 24 24 24 23 22 20 18 17 17 17 17 17 18 18 20 21 22 24 24 25 25 26 28 31 33 35 35 29 21 19 22 22 19 22 23 23
20 21 22 24 25 24 24 24 24 23 21 20 18 17 17 17 16 17 18 19 20 21 22 23 24 24 24 25 25 28 31 33 36 33 25 19 20 21 16 14 19 20
20 21 22 24 24 24 24 23 23 23 21 20 19 18 19 18 17 17 19 20 20 21 22 23 24 24 24 23 22 25 28 31 35 35 27 19 18 19 17 12 10 13
20 21 22 23 23 23 23 23 22 22 21 20 19 19 19 20 19 18 19 20 20 21 22 22 22 22 22 21 20 22 25 29 32 33 28 20 15 16 17 13 8 9
20 21 22 22 22 22 22 22 21 20 20 20 20 19 19 20 19 19 19 19 19 20 21 22 22 21 20 19 18 20 23 26 30 32 30 24 17 15 17 13 9 9

ECMWFNIL_700_spd_003.txt.gz
Wind_Speed
18 19 20 21 22 23 23 24 24 25 25 26 26 25 23 22 20 20 20 21 22 22 23 24 26 27 27 28 29 30 31 32 32 30 30 32 33 33 34 35 35 35
18 19 19 20 21 22 23 24 24 25 25 26 26 25 24 22 21 20 20 21 22 23 24 25 26 27 28 29 29 30 32 33 34 32 31 33 33 33 36 37 38 38
19 19 20 20 21 21 22 23 24 24 25 26 27 26 24 22 21 20 21 21 22 23 24 25 27 28 29 29 29 30 31 32 32 31 32 34 34 35 36 37 38 39
19 19 19 20 21 21 22 22 23 24 25 26 26 25 23 22 20 19 20 20 21 22 22 24 25 27 28 29 29 29 30 30 30 30 31 33 34 34 36 37 38 39
19 19 20 20 21 22 22 22 23 23 24 25 25 25 23 22 21 20 20 20 20 21 21 22 23 24 26 28 29 30 30 30 31 32 33 33 33 33 34 37 39 40
18 19 20 21 21 22 22 22 22 23 23 23 23 24 23 23 23 23 22 22 21 21 21 21 22 22 24 26 28 30 32 32 33 34 34 34 34 34 35 37 39 41
19 19 21 21 22 22 22 22 22 22 22 22 22 23 24 23 24 24 24 23 22 22 22 22 22 21 21 23 25 28 31 33 34 34 35 35 35 35 36 37 39 41
19 20 22 22 22 21 21 21 21 21 21 21 22 23 23 24 24 24 24 24 24 23 22 21 20 21 21 23 25 26 29 31 32 33 35 36 35 35 35 36 39 40
21 22 23 22 21 21 20 20 20 20 21 21 21 22 23 23 23 23 23 23 23 23 22 20 19 20 21 23 24 26 28 29 30 31 33 34 35 35 34 35 37 38
22 22 22 21 20 20 20 20 20 20 20 21 21 21 22 23 22 21 21 22 23 23 21 19 19 20 21 21 23 25 27 28 29 30 31 32 32 33 33 34 35 36
21 22 21 19 19 19 20 20 20 20 20 20 20 20 21 22 21 20 21 22 23 23 21 19 19 21 21 21 23 25 26 27 28 29 30 31 31 30 31 32 34 34
21 20 20 19 19 19 19 20 20 20 20 20 20 19 20 20 19 19 20 20 21 21 20 19 20 21 22 23 25 27 26 26 28 29 28 29 29 28 28 30 32 32
20 21 21 21 20 20 19 19 20 20 20 20 20 20 19 20 19 19 19 19 19 20 20 20 21 22 24 25 26 26 26 27 29 29 28 27 26 26 27 27 28 29
21 22 23 23 22 21 19 18 19 19 20 20 21 20 19 20 20 19 18 17 18 19 20 21 21 23 25 26 27 27 27 29 31 31 32 31 27 25 25 26 26 27
22 23 24 24 23 21 19 18 18 19 20 20 21 21 20 20 20 19 18 16 16 17 19 21 22 23 25 26 28 29 29 30 32 33 35 35 31 25 23 24 24 25
23 24 24 23 22 20 19 19 19 20 21 21 21 21 20 20 20 18 17 16 16 17 18 19 21 23 24 26 29 29 30 31 33 35 35 36 33 27 23 22 22 24
25 25 24 23 22 20 19 19 20 21 21 22 22 22 21 21 20 17 16 16 16 17 18 19 21 23 25 27 29 29 30 32 33 35 36 36 34 28 23 21 21 23
26 26 24 22 21 20 20 20 21 21 21 22 22 22 21 21 19 17 16 16 17 17 19 20 22 24 26 28 29 28 29 31 33 35 37 38 37 28 22 22 21 22
26 27 25 22 20 20 21 21 21 21 21 22 22 21 21 20 19 17 15 16 17 18 19 21 22 23 25 28 28 27 28 30 31 34 37 39 40 31 21 20 21 20
27 27 26 23 21 21 22 22 22 21 22 22 21 20 20 19 18 16 16 17 17 18 20 21 23 23 25 27 26 26 27 28 29 33 35 38 39 34 23 19 20 19
26 26 26 24 22 22 23 23 22 22 22 22 21 19 19 18 17 16 16 17 17 18 20 22 23 24 24 25 25 24 24 25 27 31 33 34 35 33 26 20 19 18
26 25 25 24 23 23 23 23 22 21 22 22 19 18 18 18 17 16 17 17 17 19 20 21 23 24 24 24 23 22 21 22 25 28 31 33 32 30 26 20 19 18
25 24 24 24 23 23 23 23 21 21 22 21 19 17 18 18 18 17 17 17 18 18 19 20 21 22 22 22 22 21 19 20 23 26 29 32 31 28 25 21 17 15
23 23 23 23 23 23 23 22 21 20 21 20 18 17 18 19 17 15 16 17 17 18 19 20 20 20 20 21 22 21 19 20 22 25 27 30 30 28 25 21 19 17
23 23 23 23 23 23 23 22 21 20 20 19 18 17 19 18 17 15 15 16 17 18 20 20 20 20 20 21 21 21 20 19 21 22 26 29 29 28 28 27 22 16
25 24 23 23 22 22 22 22 21 20 19 18 17 17 18 18 16 15 15 16 16 18 19 21 21 21 21 20 20 20 20 19 19 21 24 26 27 28 31 33 29 20

ECMWFNIL_700_spd_006.txt.gz
Wind_Speed
23 22 21 20 20 20 20 20 19 19 20 20 20 20 19 19 17 16 15 16 16 17 18 20 22 24 25 25 26 28 29 29 30 30 30 32 33 34 34 33 34 37
23 22 20 20 20 20 21 21 20 20 21 20 20 20 19 18 16 16 16 17 17 17 18 19 20 22 24 25 26 27 28 29 31 32 32 32 32 33 35 33 33 35
23 21 19 19 19 20 20 20 21 21 21 21 21 19 18 16 16 17 17 17 18 18 19 19 20 21 22 24 26 26 25 25 28 31 32 32 33 33 34 34 33 33
22 20 19 19 19 19 20 20 20 21 21 22 21 18 16 16 17 17 17 17 18 18 19 20 21 21 21 23 25 25 24 24 25 28 30 30 31 32 33 35 35 34
23 21 19 19 19 19 20 20 20 20 20 21 20 17 16 17 16 16 17 17 18 18 18 20 21 21 22 22 23 24 24 24 24 27 30 30 29 30 32 34 35 34
23 21 20 20 20 20 20 21 20 19 19 20 19 18 17 16 16 16 17 18 18 18 18 19 19 20 21 21 21 22 23 24 25 27 30 31 31 30 31 33 34 34
23 22 21 21 20 21 21 20 19 19 18 19 19 17 16 16 15 16 17 18 18 18 18 18 17 18 19 19 19 21 22 23 25 26 27 29 30 30 30 31 33 34
24 23 22 21 20 20 20 19 19 18 18 19 19 17 16 16 16 16 17 17 18 19 19 19 19 18 18 18 19 19 20 21 22 24 26 27 28 29 29 29 31 33
23 22 21 20 19 19 19 19 20 20 19 20 19 17 16 16 16 16 17 17 18 19 20 20 20 18 17 18 19 19 20 21 22 24 27 28 28 28 28 30 32 33
22 21 21 20 19 19 19 20 21 22 21 20 19 18 16 16 17 17 17 18 19 19 19 19 19 18 17 18 19 20 20 20 22 24 26 28 28 28 29 32 34 35
21 21 20 20 20 20 21 21 22 23 22 20 19 18 17 17 17 18 18 19 21 21 20 20 20 19 18 19 20 21 21 22 23 26 28 29 29 29 30 33 36 36
21 20 20 21 21 21 22 22 22 22 21 19 18 17 18 18 18 18 19 21 22 23 22 21 20 20 20 20 21 23 24 25 27 29 30 30 30 30 31 33 37 37
20 20 20 21 22 22 22 22 21 20 19 19 18 18 18 19 19 18 19 21 23 24 24 23 21 21 22 22 22 24 25 26 28 30 31 32 31 30 32 34 37 38
19 20 20 21 22 23 22 20 19 19 19 19 19 19 18 18 19 19 19 21 24 25 25 24 23 22 23 23 24 25 26 27 29 30 32 33 31 31 34 37 38 37
19 20 21 22 22 22 20 18 18 19 20 19 20 20 19 18 19 20 19 21 24 25 25 25 24 23 24 24 25 27 27 28 29 30 32 33 31 32 36 38 37 32
19 21 22 22 21 19 18 17 18 19 19 19 20 20 19 19 20 20 20 21 24 25 26 25 24 24 25 25 26 28 28 28 28 29 31 31 31 34 37 39 37 28
19 21 22 21 19 18 18 17 18 19 20 20 21 20 19 20 20 20 19 21 24 25 25 25 25 24 25 26 27 28 29 28 27 28 29 30 32 35 37 40 38 28
21 22 22 21 20 19 18 17 18 20 21 22 21 21 20 19 20 20 20 21 24 24 24 24 25 25 26 26 27 28 28 27 25 25 27 29 31 34 37 39 37 29
22 23 23 22 21 20 19 18 17 19 21 21 21 21 20 20 19 19 19 20 22 22 22 23 24 25 25 25 26 27 26 25 23 23 25 27 30 33 36 36 36 32
22 23 23 22 21 20 20 18 17 19 20 21 21 20 20 20 19 18 18 18 19 20 21 21 23 24 23 23 24 25 24 23 21 21 23 26 29 32 34 34 35 36
23 23 23 22 21 21 21 19 19 20 21 21 21 20 20 19 18 18 18 17 18 19 19 19 20 21 21 21 22 24 23 22 21 20 22 25 27 30 32 33 35 36
24 24 23 22 22 22 22 21 20 21 22 22 21 20 19 19 19 18 17 16 16 17 18 17 18 19 19 19 21 22 23 21 20 20 21 23 25 28 30 32 34 35
25 25 24 24 24 24 24 23 22 23 23 23 22 20 20 19 18 17 17 16 16 17 17 16 17 17 17 17 19 22 22 20 19 19 20 22 24 26 27 30 33 34
26 26 26 26 26 26 25 25 24 24 24 24 22 20 20 20 19 19 18 16 16 16 17 16 16 16 16 17 19 20 20 19 18 17 19 21 23 25 26 28 30 34
27 27 27 28 28 28 28 28 27 25 26 26 24 22 22 21 21 22 22 19 17 16 16 17 15 14 16 18 19 20 20 19 17 17 18 20 21 23 24 25 27 31
28 28 29 29 30 31 30 30 29 28 27 27 26 25 25 24 24 25 24 23 21 17 15 15 15 15 17 18 19 20 19 18 18 18 19 19 20 22 23 23 25 27

ECMWFNIL_700_spd_009.txt.gz
Wind_Speed
24 24 23 22 21 19 18 18 18 18 18 18 18 18 19 19 18 17 16 16 15 15 15 16 17 17 18 19 21 22 23 24 24 23 24 26 25 25 26 27 29 30
25 24 24 24 22 21 20 19 19 19 19 19 19 20 19 17 16 15 15 15 15 15 15 15 16 17 18 19 20 22 23 23 23 23 25 26 26 25 25 25 26 28
26 25 25 25 24 23 22 21 20 20 20 19 20 19 18 17 15 15 15 15 15 15 15 16 16 18 18 19 20 22 23 23 23 24 25 26 27 27 27 27 27 28
28 26 26 25 25 24 23 22 21 21 21 20 19 18 17 17 16 15 15 15 16 16 16 17 17 19 19 19 20 21 22 22 23 25 26 26 26 28 29 28 29 29
30 27 26 25 24 24 23 22 21 21 20 19 18 17 17 17 16 16 16 16 16 16 17 18 18 19 20 20 20 20 19 19 22 24 26 26 26 27 28 28 29 29
31 28 26 25 24 23 22 21 20 19 19 18 18 18 18 18 17 18 18 17 16 16 17 17 18 18 20 21 21 20 19 18 20 22 24 26 26 26 26 27 28 29
32 29 27 25 23 21 21 20 20 18 18 18 19 20 20 20 19 19 19 19 18 18 18 17 17 18 19 21 22 21 20 20 20 21 22 24 25 25 26 27 27 28
33 30 27 24 23 21 21 20 20 20 20 19 20 20 21 20 20 19 20 20 20 20 19 18 18 19 20 21 21 21 21 21 21 21 22 23 24 26 27 28 28 29
33 29 27 24 23 22 21 21 22 22 22 21 21 20 20 20 19 19 19 20 21 22 21 20 19 20 21 22 22 22 22 22 21 22 23 24 25 27 28 29 30 30
32 29 26 24 23 23 22 22 22 21 20 22 22 20 19 19 19 19 19 20 21 22 23 22 22 21 22 22 23 24 23 22 22 23 24 24 25 28 29 29 30 31
31 28 25 23 22 22 22 22 22 21 21 21 21 19 18 19 20 20 20 21 22 23 24 24 24 24 24 24 24 24 25 23 23 25 26 25 26 29 29 28 30 32
31 28 25 24 23 22 22 22 22 22 21 18 18 19 19 20 21 21 22 22 22 23 25 26 27 26 26 27 25 25 26 26 25 26 26 26 27 29 28 27 29 32
30 27 24 23 22 22 23 22 21 20 19 18 19 20 20 21 22 23 22 22 23 24 26 27 28 27 28 29 28 27 27 27 26 26 26 27 28 29 27 27 28 31
29 26 24 22 22 22 22 21 20 19 19 20 20 20 21 22 23 23 23 23 23 23 25 27 28 27 28 29 29 28 27 26 25 26 26 27 28 28 26 26 28 30
27 24 22 21 22 22 21 20 20 20 20 21 21 21 22 23 24 24 24 23 23 23 25 27 28 27 27 27 28 28 26 26 26 27 26 27 28 27 25 26 28 30
25 22 20 21 22 22 21 20 21 20 20 21 22 22 23 24 24 24 24 24 24 23 24 25 27 27 26 25 26 27 27 27 28 27 27 28 27 25 24 26 27 29
23 20 20 20 21 21 21 20 20 20 21 21 22 23 23 24 24 24 23 24 24 23 23 24 25 26 25 25 26 27 27 28 27 27 28 27 25 24 24 26 27 29
21 19 19 20 21 21 21 21 20 20 22 22 23 24 24 25 24 24 24 24 24 24 23 24 26 25 24 26 27 26 27 27 26 26 27 26 24 24 25 26 27 28
20 19 20 20 21 21 21 21 21 22 22 23 24 25 26 26 25 24 24 24 24 25 24 24 26 25 22 24 26 25 26 26 25 26 26 26 25 24 24 26 28 28
19 19 20 21 21 21 21 22 23 24 25 25 25 27 27 27 26 25 25 25 25 25 25 25 27 25 23 24 25 24 25 25 25 25 25 25 25 25 25 26 27 28
19 19 21 22 23 23 24 24 25 26 27 27 26 26 27 28 28 26 26 26 26 26 25 25 27 27 26 25 25 24 25 25 25 25 26 25 25 25 25 25 26 28
19 21 22 23 25 26 26 27 28 29 29 29 28 27 27 27 27 26 25 25 26 26 26 26 26 27 27 27 26 25 25 25 25 25 26 25 24 25 25 26 27 28
21 22 23 25 26 27 28 29 30 31 31 31 31 29 28 27 27 26 26 25 26 26 26 26 25 25 27 27 26 26 26 25 25 25 26 26 24 23 24 25 26 26
24 25 25 27 28 29 30 30 31 32 32 33 32 30 29 27 26 26 27 26 27 27 26 25 25 25 25 25 25 26 27 27 25 23 24 25 23 22 24 25 24 24
28 28 29 30 31 31 31 31 31 31 32 33 33 32 31 29 27 27 28 28 28 28 27 27 26 25 24 24 25 26 27 28 26 22 23 24 23 23 24 25 24 24
32 32 32 34 34 34 34 32 31 32 33 34 35 34 33 31 29 29 29 29 29 29 28 28 27 24 23 23 25 26 26 26 26 23 23 24 23 22 23 24 24 24

ECMWFNIL_700_spd_012.txt.gz
Wind_Speed
26 27 26 25 23 22 22 22 21 21 21 20 20 20 21 21 21 21 20 18 18 18 19 20 20 20 19 20 20 20 21 21 21 21 19 19 20 20 20 22 23 25
27 28 28 26 25 23 22 22 22 22 22 22 21 21 21 21 20 20 19 19 19 19 20 21 20 19 19 19 20 20 20 20 21 21 20 19 20 20 21 22 22 23
27 29 29 28 27 25 24 23 23 23 22 22 22 21 21 20 20 19 19 20 20 21 21 21 20 20 19 19 19 19 20 20 21 22 22 21 21 21 21 22 22 23
28 30 31 31 30 29 27 26 25 24 23 22 21 21 21 21 20 20 20 20 21 21 21 20 20 20 20 20 20 20 20 21 22 23 23 23 23 23 22 22 23 24
28 31 32 33 32 31 30 28 26 25 24 23 21 21 20 21 21 21 21 21 21 21 20 20 20 21 21 21 20 20 20 22 23 24 24 25 25 25 24 24 24 26
28 31 33 34 34 33 31 29 27 26 24 23 22 21 21 21 21 21 21 20 20 20 20 20 21 21 23 23 22 22 22 22 23 24 25 26 27 27 27 27 27 28
27 30 32 35 35 34 32 30 28 26 25 24 22 21 21 21 22 22 21 20 20 20 20 20 21 22 23 24 24 24 24 23 23 24 25 26 28 29 29 30 30 31
26 29 32 34 35 35 33 30 28 27 26 25 23 22 21 21 22 22 21 21 20 20 20 21 21 22 22 23 24 25 25 25 25 26 27 28 29 30 30 31 31 32
27 29 32 35 36 35 33 30 28 27 27 27 26 25 23 22 21 21 21 21 21 21 21 22 22 22 22 23 24 25 26 26 26 27 28 29 30 31 31 31 32 32
27 29 32 35 36 36 33 30 27 26 26 27 26 25 23 21 20 21 21 21 22 22 22 23 23 23 23 24 25 26 27 27 27 27 28 29 31 31 31 31 32 32
27 28 31 34 35 35 32 28 26 25 24 23 23 22 22 22 22 22 23 24 25 24 23 23 23 23 23 24 25 26 27 28 27 27 27 28 29 30 30 30 32 32
27 28 31 34 35 33 29 25 23 22 22 21 22 22 22 23 23 23 24 25 26 26 25 25 25 24 23 24 26 26 27 27 26 26 26 27 27 28 28 29 31 32
28 29 31 33 33 31 27 24 22 21 20 20 21 21 22 22 23 24 25 25 26 27 27 26 26 26 25 26 27 26 25 24 25 26 25 25 26 27 27 29 30 31
29 29 31 32 32 28 25 22 21 21 20 19 20 20 21 22 23 24 25 26 26 27 27 27 27 27 27 27 27 27 25 25 25 26 25 26 27 28 27 28 29 29
28 29 32 32 30 26 22 21 20 20 20 20 20 21 21 22 23 24 25 26 27 27 27 27 27 28 28 28 28 28 28 28 28 28 27 27 28 28 28 27 27 28
27 29 31 31 27 23 20 20 19 19 20 20 21 21 22 23 23 24 25 26 27 28 28 28 28 28 28 28 27 28 29 30 30 29 29 29 29 29 29 27 26 27
27 29 29 27 23 19 18 18 18 19 20 21 22 22 23 24 24 25 25 26 27 27 27 28 28 27 26 26 25 27 29 31 31 30 29 29 30 30 29 28 27 27
27 28 26 23 19 17 16 16 17 19 20 21 22 23 24 25 25 26 26 26 27 27 28 29 28 26 26 26 25 27 28 30 30 30 29 29 30 31 30 29 28 28
26 25 22 19 18 16 16 16 18 20 21 22 24 25 26 27 28 28 27 28 28 28 29 30 29 28 27 27 27 28 28 29 29 30 30 30 30 31 31 30 29 29
24 23 20 18 18 18 19 19 21 23 24 25 26 27 29 30 30 30 29 30 31 30 29 30 30 30 29 29 29 29 28 29 29 29 30 30 29 30 30 30 28 29
23 22 21 20 21 22 22 23 25 26 27 28 29 29 31 31 32 33 32 32 31 31 30 29 30 31 31 30 30 30 30 29 28 28 29 29 28 28 29 29 28 27
24 24 24 24 25 25 26 27 28 30 31 31 32 32 32 32 33 33 33 32 31 31 31 30 30 31 32 32 31 31 31 30 29 28 28 28 28 27 28 29 29 27
26 26 27 28 28 29 30 31 32 33 33 34 34 34 33 34 34 33 34 34 32 32 31 30 30 31 32 31 30 30 31 31 29 28 28 28 27 26 27 28 28 27
28 28 29 30 31 32 32 33 35 36 36 36 35 35 35 35 34 34 35 36 34 33 33 33 32 32 32 30 29 30 30 29 29 28 29 28 26 25 26 26 27 27
29 30 31 31 33 34 33 35 38 39 39 39 38 36 35 34 34 35 37 37 36 35 34 34 34 33 31 29 29 30 29 28 28 27 27 26 24 24 25 25 26 27
31 32 32 33 34 35 35 36 38 40 41 41 40 36 34 35 36 37 38 37 37 35 34 33 32 30 29 29 29 29 28 27 27 26 25 24 23 23 24 24 25 25

ECMWFNIL_700_spd_015.txt.gz
Wind_Speed
17 20 21 23 25 26 26 26 25 24 24 23 23 22 22 21 20 19 18 18 18 17 17 17 18 18 18 17 17 17 17 18 18 18 18 18 18 18 18 18 18 19
17 19 21 23 24 26 27 28 27 26 25 24 23 22 22 21 20 20 19 18 18 18 18 18 18 18 17 17 17 17 17 17 18 18 18 18 18 18 18 18 19 19
17 19 21 23 25 26 27 28 29 29 28 26 25 23 22 21 20 20 19 19 19 19 19 18 18 18 17 17 17 18 18 18 19 19 18 19 20 20 20 20 20 20
18 20 20 22 24 26 28 29 31 31 31 28 26 23 21 20 20 20 20 20 19 19 19 18 18 17 17 17 17 18 19 19 19 20 19 20 21 22 23 23 23 23
19 20 21 22 24 26 29 30 32 33 32 30 27 24 21 20 19 19 19 19 18 18 17 17 18 17 17 17 17 18 19 19 19 20 21 22 22 23 24 26 26 25
21 21 21 22 24 27 29 31 33 34 34 32 27 23 21 19 18 17 17 16 16 15 15 15 16 17 18 18 18 18 19 19 20 21 22 23 25 26 27 27 28 27
24 23 22 23 25 27 29 32 34 36 35 32 27 22 20 18 17 16 15 15 16 15 15 15 16 17 18 18 18 18 18 20 21 22 23 24 25 27 29 30 30 29
27 24 23 23 25 27 28 31 35 36 35 32 28 24 21 19 17 16 17 17 17 17 17 17 18 19 19 19 19 18 19 20 22 22 23 24 25 27 30 31 31 30
29 26 23 25 26 27 29 31 35 37 36 34 30 26 22 20 19 18 18 18 18 18 18 18 19 20 20 21 20 20 20 21 23 24 25 26 26 26 27 29 30 30
30 27 25 26 27 28 29 31 35 37 36 34 31 27 23 21 20 19 19 19 19 20 19 19 20 20 21 22 22 22 22 23 24 25 26 27 26 26 27 28 30 30
31 28 26 27 28 28 30 32 35 36 35 33 29 26 24 22 21 21 21 22 22 23 22 22 22 22 22 23 24 24 23 24 25 26 26 27 27 27 28 29 31 31
31 27 26 28 28 28 30 33 35 35 32 29 26 23 21 20 20 21 21 22 22 23 23 24 24 24 23 23 24 23 23 24 25 25 26 26 26 27 28 29 31 32
30 27 28 30 28 28 30 33 34 31 27 25 23 21 20 20 20 21 21 22 22 23 24 25 26 25 23 23 24 24 24 24 25 25 25 25 25 26 27 28 29 30
31 30 31 30 27 28 31 33 32 28 25 23 21 20 20 20 20 20 21 22 23 24 25 25 24 24 24 24 25 25 25 26 25 25 25 25 25 25 26 27 27 28
30 30 31 28 26 28 31 31 29 26 23 21 20 19 18 18 18 19 20 21 23 24 24 24 24 24 25 25 26 26 26 26 26 26 26 26 26 26 26 26 26 27
28 31 30 26 26 29 30 28 26 23 21 19 18 18 18 18 19 20 21 22 23 24 25 25 24 24 25 25 25 26 27 27 27 27 27 28 28 27 27 26 26 26
29 30 27 24 26 29 28 25 22 20 18 17 18 19 20 21 22 22 23 24 25 25 26 26 25 24 24 23 24 26 27 28 28 28 28 29 29 28 27 27 26 25
27 23 22 23 26 27 25 22 20 19 19 19 20 22 23 24 25 25 26 26 27 27 26 26 25 24 23 23 23 25 27 28 29 29 29 29 29 29 28 27 26 26
22 18 20 24 25 24 21 19 19 19 21 23 24 26 28 29 29 30 29 29 29 28 27 27 26 24 23 23 24 25 27 28 29 29 29 29 28 28 28 28 27 27
16 16 21 23 23 22 20 19 20 21 23 25 27 28 30 31 32 33 32 31 30 29 28 28 27 25 23 23 24 26 28 29 29 29 28 28 27 26 27 27 28 28
14 18 23 23 22 22 21 22 23 23 25 26 28 29 31 32 33 33 33 32 31 30 30 30 29 26 24 23 24 26 28 28 28 28 28 27 26 25 25 27 27 27
16 21 23 23 23 22 23 23 23 24 25 26 28 30 31 32 33 33 33 31 30 30 30 30 28 26 25 24 24 26 28 28 28 28 28 26 25 24 25 25 25 26
18 21 22 22 23 23 23 23 23 24 25 26 28 30 31 32 33 34 31 27 26 27 28 29 28 27 26 27 27 27 28 28 29 29 28 26 24 23 24 24 24 25
19 21 21 22 22 22 23 23 23 24 25 27 29 30 31 32 33 35 33 28 27 26 26 27 28 27 28 28 28 28 28 28 29 31 29 26 23 22 22 23 23 23
20 21 21 22 23 25 25 24 25 26 26 28 29 30 32 32 33 36 36 32 28 26 26 26 25 24 25 25 25 27 27 27 29 31 29 25 22 20 21 21 22 22
20 21 21 23 25 27 26 24 23 26 28 30 30 30 33 34 33 35 34 28 25 26 27 26 25 24 25 26 25 25 26 27 29 31 28 24 21 20 20 20 20 22

ECMWFNIL_700_spd_021.txt.gz
Wind_Speed
9 8 9 9 10 11 12 15 17 18 20 22 24 26 27 28 29 29 25 21 18 16 15 14 13 13 13 13 14 14 14 14 14 14 15 16 17 17 17 16 16 17
12 12 11 12 12 12 13 15 17 18 20 21 23 26 28 28 29 29 26 22 19 17 15 14 13 12 12 12 13 13 14 14 14 15 16 17 18 18 17 17 17 18
15 15 14 15 15 15 15 16 17 18 19 20 22 26 28 28 29 29 27 23 20 18 16 14 13 12 12 11 12 13 13 13 14 15 16 17 18 18 18 18 18 18
19 18 18 18 17 18 18 19 19 19 19 20 22 25 27 28 29 29 27 23 20 18 16 15 14 12 12 12 13 13 14 13 14 14 15 16 17 17 18 18 18 19
22 22 22 21 21 21 21 21 21 21 20 21 22 24 26 29 29 29 27 23 20 18 16 15 14 13 12 12 12 13 14 14 14 15 15 15 17 17 18 19 19 20
26 26 26 25 24 24 24 24 24 23 21 21 21 23 25 28 29 29 27 23 20 18 16 15 14 13 13 12 12 13 13 14 14 15 15 16 17 17 18 19 20 21
29 29 29 28 28 28 27 27 26 24 22 21 21 23 24 26 28 28 25 22 19 17 16 15 15 14 14 14 14 14 15 15 15 16 16 17 17 17 18 19 21 21
30 31 31 31 30 30 30 29 27 25 23 21 21 22 23 25 26 25 23 20 17 16 15 15 15 15 15 15 16 17 17 16 16 16 17 17 18 18 19 20 21 21
32 32 32 32 32 31 31 30 28 25 23 21 21 22 23 25 24 21 19 17 15 14 13 13 13 14 15 16 16 17 18 17 18 18 18 19 19 20 20 21 21 20
33 34 33 33 32 32 31 29 27 25 23 21 21 22 24 24 22 18 16 14 13 13 12 12 13 14 15 16 18 19 19 19 19 19 20 20 21 21 21 21 21 20
32 35 35 34 33 32 31 29 26 24 22 20 20 23 25 23 19 16 14 14 13 13 13 13 14 15 16 17 19 19 19 19 19 20 21 22 22 23 22 22 21 21
31 34 36 36 35 33 31 28 26 24 22 22 23 25 24 19 16 15 14 14 14 14 14 14 15 16 17 18 19 19 19 19 20 21 22 23 24 24 23 23 23 23
29 32 36 38 37 35 31 28 26 24 22 22 22 20 17 16 15 15 14 14 15 14 14 15 16 17 18 19 20 21 21 22 22 23 23 24 24 24 23 23 24 24
30 31 36 40 38 35 31 28 28 25 23 21 19 16 15 15 15 14 14 14 15 15 16 16 17 18 19 20 21 22 23 24 24 24 24 24 24 23 23 23 25 26
34 32 35 40 38 34 32 31 30 28 26 24 19 15 16 15 14 14 13 14 15 16 18 19 20 21 22 22 22 22 23 24 25 24 24 24 23 23 23 24 25 26
37 33 32 39 38 35 34 31 29 28 27 23 17 15 15 14 13 14 14 15 16 17 18 20 22 22 22 22 23 23 24 25 26 25 25 24 23 23 23 24 25 26
35 31 28 34 37 35 33 32 31 28 22 15 12 14 15 14 14 14 14 15 16 17 18 20 21 21 21 21 23 26 27 28 27 26 26 26 25 25 25 26 26 27
31 28 26 33 36 34 35 36 31 22 14 10 11 13 14 15 15 15 15 16 17 17 19 21 22 22 23 24 26 28 30 29 27 25 26 26 27 28 28 29 30 30
30 28 27 32 36 38 39 34 25 15 9 10 11 12 15 16 16 16 16 18 19 20 22 24 24 24 24 26 28 30 31 30 26 24 25 26 28 29 30 31 32 32
30 28 27 30 35 39 34 25 19 14 9 9 10 12 15 17 16 17 18 19 21 23 25 26 26 27 27 28 29 30 31 30 28 25 25 27 28 30 31 32 32 33
29 28 28 28 29 28 21 15 15 12 7 8 10 12 15 16 17 19 20 21 23 26 28 28 28 30 31 31 31 31 31 30 28 27 27 28 29 30 31 32 31 31
27 29 29 24 19 18 15 13 11 7 6 8 10 13 15 17 19 20 22 23 25 27 30 31 31 32 33 33 33 33 31 29 28 28 29 29 30 30 31 32 31 30
25 26 22 15 13 15 15 10 6 6 8 10 12 15 17 18 19 21 23 24 26 29 31 33 34 34 35 34 34 33 30 27 27 28 29 30 30 30 31 31 31 31
18 15 11 11 13 15 13 9 8 9 10 13 16 17 18 19 20 23 24 25 27 29 30 33 34 34 35 35 34 32 29 27 27 29 30 30 31 31 31 32 31 32
8 7 9 14 16 15 14 12 11 11 13 16 18 19 21 22 23 26 26 27 29 30 31 32 31 31 33 35 34 32 29 28 29 30 31 32 33 33 33 32 32 33
8 11 14 17 16 15 15 14 13 14 16 18 19 20 22 23 26 28 29 29 31 31 31 31 30 30 32 33 33 31 29 29 31 32 32 34 34 34 34 32 32 32

ECMWFNIL_700_spd_024.txt.gz
Wind_Speed
13 12 11 10 9 9 9 10 11 11 12 13 14 15 16 18 20 22 23 23 23 21 18 16 14 13 13 12 12 12 11 12 12 11 11 12 12 13 14 14 14 14
16 15 15 13 12 12 12 13 13 14 14 15 16 16 17 18 19 21 23 23 23 22 19 17 15 14 14 13 13 13 13 13 13 12 12 12 13 13 14 14 14 15
19 19 18 17 16 15 15 16 16 17 17 17 18 18 19 19 20 21 22 23 24 23 20 17 16 15 14 14 13 13 13 13 14 14 13 14 14 14 15 15 16 16
22 22 21 20 20 19 18 18 19 19 19 19 19 19 19 20 20 21 22 23 23 23 21 18 16 15 14 14 13 13 13 14 14 14 14 15 16 16 16 17 17 18
24 24 24 23 23 22 21 21 21 22 21 20 19 19 20 20 20 20 22 23 23 23 21 18 16 14 14 14 13 13 13 14 14 15 15 16 17 17 17 18 18 19
27 27 27 27 27 26 24 23 24 24 22 20 20 20 20 20 20 21 22 23 23 22 20 17 15 14 14 13 13 13 13 13 14 15 15 16 17 18 18 19 19 20
29 30 30 30 30 29 27 26 26 25 23 21 21 21 21 21 21 21 22 23 22 21 19 17 15 14 14 13 13 13 13 14 15 15 16 16 17 18 20 20 21 21
31 32 33 33 32 31 29 28 27 26 24 22 22 22 22 21 20 20 22 23 21 20 19 17 15 15 15 14 14 14 15 16 16 16 17 17 18 19 21 22 22 22
33 35 35 35 35 33 31 31 29 26 25 24 23 22 21 21 20 21 23 21 20 19 18 16 16 16 16 15 15 16 16 16 17 17 17 17 18 19 21 22 23 23
35 37 38 39 39 36 34 34 31 27 25 25 24 22 21 20 19 19 20 18 18 18 17 16 16 15 16 16 16 16 16 17 17 18 18 19 19 20 21 22 23 23
37 39 42 42 41 38 35 33 31 28 27 27 25 23 21 19 17 17 18 18 18 18 17 16 16 15 15 16 16 16 16 17 18 18 20 21 21 22 22 23 23 23
39 42 46 43 40 39 35 30 29 28 28 28 26 23 21 19 18 18 19 19 18 18 17 16 15 14 15 16 16 16 15 15 17 18 21 23 24 24 24 24 25 24
44 47 49 46 44 44 37 29 29 29 29 30 27 24 24 21 19 20 22 20 19 18 16 15 14 14 15 16 16 16 15 15 17 19 22 24 26 26 26 26 26 26
47 47 48 49 49 46 36 30 30 33 32 32 29 28 27 25 22 25 25 19 18 17 14 14 14 14 15 16 16 16 15 16 18 21 23 24 26 27 27 27 28 27
41 43 47 49 49 47 39 33 33 35 35 34 33 31 29 27 27 27 22 16 16 15 13 14 15 14 16 17 17 18 18 18 20 22 24 26 26 27 27 28 28 28
35 41 46 47 47 47 41 34 34 36 38 38 36 35 33 29 26 21 16 14 14 13 12 13 14 15 17 19 20 21 21 22 23 24 26 28 28 27 27 27 28 29
32 38 45 47 47 45 39 32 32 36 39 40 39 37 34 27 19 14 14 15 13 11 12 13 14 16 19 21 22 24 25 26 26 27 28 29 30 29 27 27 29 29
31 36 45 47 43 40 36 29 31 36 39 40 40 36 29 21 15 13 13 13 12 11 12 13 15 18 20 23 24 25 28 29 30 30 30 30 31 31 29 29 30 30
31 37 46 44 36 34 32 26 30 36 38 39 38 32 25 18 14 13 12 11 11 12 13 15 17 19 22 24 26 28 31 32 33 33 33 32 32 32 31 31 31 32
31 37 44 39 30 29 28 24 29 35 38 41 36 26 20 17 14 12 12 11 12 13 16 17 19 21 23 25 28 31 33 34 35 36 35 34 33 33 32 32 33 34
31 36 39 33 26 26 26 26 30 34 35 36 29 19 17 17 14 12 11 11 12 15 18 19 20 22 25 27 30 32 33 35 37 37 36 35 35 34 33 33 33 35
31 34 34 28 24 26 26 25 26 25 23 24 21 18 17 16 13 12 11 11 14 17 19 20 21 24 27 29 31 33 35 37 37 37 36 35 35 35 34 33 34 36
29 30 29 25 23 24 20 17 17 17 18 19 19 18 16 13 12 13 14 15 17 19 21 22 23 25 28 30 33 35 37 36 35 36 36 36 36 35 34 34 35 37
25 27 24 20 20 19 15 16 19 20 19 19 18 16 15 14 15 16 18 19 20 21 24 26 26 27 30 32 35 38 37 35 35 35 36 35 35 34 34 35 36 37
22 23 18 14 16 17 18 20 21 21 20 19 18 17 17 17 19 20 20 20 22 24 28 30 29 30 32 34 36 38 38 36 35 35 35 35 35 34 35 35 35 36
18 16 12 15 17 18 20 22 22 22 20 20 21 21 21 21 21 21 20 21 23 27 30 31 31 31 33 35 37 37 37 36 35 35 34 35 35 35 34 34 34 35

ECMWFNIL_700_spd_027.txt.gz
Wind_Speed
17 15 14 13 12 11 10 9 9 9 9 10 10 11 11 12 13 14 15 15 16 18 19 19 18 17 16 14 13 12 11 11 11 11 12 12 13 13 14 15 16 16
19 18 17 16 15 14 13 12 13 13 13 13 13 13 14 14 15 16 16 16 16 17 19 19 18 17 16 14 13 12 11 11 11 11 12 13 13 14 15 15 16 16
20 19 19 19 18 17 16 17 17 17 16 16 15 16 16 16 16 17 17 16 16 17 18 19 19 17 15 14 13 12 11 11 11 11 11 13 13 14 14 15 16 16
21 21 21 21 21 20 20 21 21 20 19 19 18 18 18 18 18 17 17 17 17 17 18 19 19 17 15 14 13 13 12 11 11 11 11 12 13 13 14 15 16 17
23 23 24 24 24 24 24 24 23 22 22 21 20 20 19 19 19 18 18 18 17 17 18 19 19 17 15 14 14 13 12 11 12 12 12 13 13 14 15 16 16 17
25 26 26 26 26 27 27 27 26 25 25 24 23 22 21 20 20 20 20 19 19 18 19 20 18 16 15 15 14 13 12 12 12 12 12 13 13 14 15 16 16 17
26 27 28 28 29 30 30 30 29 28 27 25 23 22 22 22 21 21 21 21 21 20 20 20 17 15 15 15 14 14 12 12 12 12 12 12 13 13 15 16 17 17
28 30 30 31 33 33 34 34 33 31 30 27 23 23 24 23 23 22 22 22 22 21 20 18 16 15 15 14 15 14 13 12 12 12 13 13 13 14 16 18 19 19
28 31 33 34 36 37 37 37 35 33 31 29 28 28 28 26 24 23 23 22 23 22 19 16 14 15 15 15 14 14 13 13 13 13 13 13 14 15 17 19 20 20
29 31 33 35 37 38 38 38 37 36 34 33 33 33 32 28 26 25 24 23 23 22 19 17 15 15 16 15 14 14 13 13 14 13 13 13 14 17 19 20 21 21
32 32 33 36 38 39 39 39 40 39 37 37 38 36 33 31 29 27 25 25 25 24 22 20 19 16 16 15 14 14 14 14 14 14 13 13 15 18 20 21 22 22
34 34 34 36 38 39 40 41 42 43 41 42 43 41 37 35 32 29 26 26 26 26 24 23 24 21 17 15 14 13 12 12 13 13 13 14 16 18 20 22 23 23
33 35 37 37 37 39 43 45 45 45 45 44 45 44 40 36 33 30 27 27 27 27 26 26 27 23 19 16 13 12 12 11 12 13 14 16 18 20 22 24 25 25
29 32 37 39 38 38 43 48 47 46 47 47 47 47 42 37 35 33 30 29 29 27 26 27 24 20 18 16 12 11 12 12 14 15 16 19 20 22 24 25 26 27
25 26 32 37 40 41 43 47 47 46 47 47 48 49 46 42 41 38 34 30 28 26 24 23 20 18 16 15 13 13 14 14 15 17 18 20 21 22 24 26 27 28
25 25 28 31 36 41 46 48 48 45 45 46 48 48 45 42 42 41 37 31 27 23 21 21 20 17 14 14 15 16 17 18 18 19 20 21 22 23 25 26 28 28
26 27 28 29 32 40 46 46 42 40 42 43 45 44 40 39 42 42 39 34 26 22 21 21 19 15 13 14 16 18 20 21 21 21 23 24 25 26 27 28 29 29
29 30 32 33 35 38 40 39 35 35 36 36 38 40 40 40 41 41 40 35 27 23 21 21 18 14 13 15 17 20 22 23 23 24 25 25 27 28 29 30 31 31
32 33 35 36 37 37 36 35 33 32 32 32 33 37 40 40 39 38 37 33 27 24 22 20 16 14 14 16 18 21 24 25 25 26 26 27 28 30 31 31 31 32
32 34 34 35 37 35 33 31 31 30 30 32 33 35 37 37 33 31 31 28 25 24 22 19 15 14 16 18 20 22 25 26 27 27 27 29 31 32 32 32 32 32
29 30 31 32 33 32 31 32 31 29 28 29 30 32 33 31 26 24 25 24 24 24 22 17 15 15 18 20 22 23 26 27 28 28 29 32 33 33 32 31 32 33
27 28 29 31 30 30 31 32 30 27 25 26 27 29 29 26 22 20 21 23 24 23 20 16 15 17 20 22 23 25 27 28 29 31 32 33 34 34 33 33 33 34
26 28 30 31 31 30 29 28 26 24 23 24 26 27 25 22 20 19 21 23 23 21 19 16 16 19 22 24 26 27 28 29 31 32 32 32 34 35 34 33 33 35
26 28 30 31 31 29 28 25 25 24 24 24 25 25 23 21 20 21 23 23 22 21 20 19 19 21 24 26 28 28 30 31 31 31 31 32 34 35 34 33 35 36
27 28 30 31 31 30 28 26 26 26 25 25 25 24 23 22 22 23 23 23 22 22 22 22 23 24 26 28 29 30 30 30 29 28 31 33 34 34 35 35 36 37
27 28 30 31 31 30 28 26 26 26 26 26 26 26 25 24 23 24 24 23 23 24 25 25 25 26 27 29 31 31 30 29 28 29 31 33 34 35 36 36 37 37

ECMWFNIL_700_spd_030.txt.gz
Wind_Speed
22 21 20 20 19 19 19 18 17 16 14 13 12 11 11 11 11 11 12 12 13 13 14 14 15 16 15 14 13 12 11 10 10 10 10 10 10 10 11 11 11 11
22 21 21 21 21 20 20 19 18 17 16 15 15 14 14 13 13 13 13 13 14 14 15 15 15 16 17 15 14 13 12 11 10 10 10 10 10 11 11 11 12 11
23 23 22 22 22 21 21 20 19 18 18 18 18 17 16 16 15 15 15 15 15 15 15 15 15 16 18 17 14 13 12 11 10 10 10 11 11 11 11 11 12 11
25 24 24 24 24 23 23 23 22 21 21 21 21 20 19 18 18 17 16 15 16 16 16 16 15 16 18 19 16 14 13 12 11 11 11 12 11 11 12 11 11 11
26 25 25 25 26 26 27 26 25 25 25 24 24 23 22 20 19 18 17 17 17 17 16 16 17 17 18 19 17 15 14 13 12 12 11 12 12 11 11 11 11 11
26 26 26 27 28 29 29 29 29 28 28 28 27 27 25 23 21 19 18 17 17 16 17 17 18 18 19 18 17 15 15 14 14 13 12 12 12 12 12 11 11 12
25 26 28 29 31 31 31 31 32 31 31 31 30 30 28 27 26 22 21 20 20 19 19 18 18 19 19 17 16 16 16 15 15 14 13 13 13 13 13 12 12 13
24 26 29 31 32 32 32 33 34 34 34 34 33 32 31 30 29 27 27 28 27 26 25 23 21 22 19 16 16 17 18 18 18 17 15 13 13 13 13 12 12 14
24 26 28 30 32 32 32 33 35 36 37 36 36 36 35 35 35 34 34 34 34 34 33 31 29 26 22 18 17 18 19 20 21 20 17 14 14 13 13 12 13 13
25 26 27 29 30 31 31 33 36 38 38 38 39 39 38 39 41 41 38 37 38 39 38 37 33 28 25 21 18 18 18 18 20 21 19 16 14 13 13 13 13 14
26 26 27 29 29 30 30 31 36 39 38 38 40 42 43 42 44 46 43 41 39 37 38 38 34 28 25 21 18 19 20 20 19 19 19 16 13 13 13 13 14 15
26 26 27 29 29 30 29 29 34 36 36 37 40 42 45 46 46 47 47 46 42 39 40 39 35 29 25 21 20 20 22 21 18 18 19 16 13 13 14 15 16 16
27 26 27 28 28 30 31 32 35 36 36 39 40 40 42 45 46 47 48 47 45 44 43 40 38 33 26 22 20 20 20 19 18 18 18 15 13 14 15 16 17 17
27 27 28 27 27 29 32 34 36 36 38 42 42 39 39 42 45 48 48 47 47 48 45 41 40 35 27 22 19 18 19 18 18 18 16 14 14 15 16 18 18 18
28 29 29 28 26 28 31 34 35 36 38 43 43 40 40 42 45 48 49 48 47 48 46 43 42 38 30 24 19 17 17 18 18 17 15 14 15 16 18 20 20 20
30 30 30 29 28 29 31 33 34 34 36 40 41 40 41 44 46 47 48 47 46 47 47 44 42 39 32 25 20 18 20 20 19 16 15 15 16 17 19 22 23 23
30 31 31 30 30 31 31 32 33 34 35 38 40 40 40 42 43 44 45 43 42 45 46 43 42 37 30 26 23 22 23 21 18 16 16 16 17 19 21 23 25 25
30 31 32 32 32 32 32 32 33 35 36 38 39 37 36 37 37 38 38 38 38 41 43 42 41 35 29 27 25 24 24 21 17 17 18 18 19 21 23 25 27 28
29 30 31 32 32 33 34 34 34 36 38 38 38 35 33 33 34 33 33 34 36 38 39 40 40 35 27 26 25 24 22 19 18 19 20 20 21 23 25 27 29 30
26 28 30 30 31 33 34 34 35 36 37 38 38 35 33 33 33 32 31 32 34 36 37 37 37 32 26 24 24 23 21 19 19 20 21 22 23 25 28 30 31 31
23 24 25 25 26 28 29 30 33 34 36 38 39 37 33 32 33 33 32 31 32 33 33 31 29 27 25 24 24 22 20 20 21 22 23 23 25 27 30 32 32 32
20 21 22 22 23 24 25 27 30 32 35 37 39 37 33 31 31 32 31 29 28 29 28 25 23 23 24 25 24 22 22 22 23 24 24 25 27 30 32 33 31 29
20 21 22 22 23 24 25 27 29 32 35 37 38 37 33 31 31 30 28 26 24 24 24 22 22 23 25 25 24 23 23 24 25 26 26 28 30 31 31 31 29 27
19 20 20 22 24 25 26 28 30 33 36 36 37 35 31 29 30 28 26 24 21 20 21 22 23 25 26 25 24 25 25 26 27 27 28 30 31 31 30 29 28 28
19 20 21 23 24 26 28 29 31 34 35 35 36 34 29 28 29 28 26 24 21 20 22 23 25 27 27 25 25 26 27 28 28 28 30 31 30 29 29 29 30 31
21 22 23 24 25 27 29 31 33 35 35 34 35 32 29 30 31 29 26 23 22 23 25 26 28 28 25 23 25 27 27 28 28 29 30 30 29 29 30 31 31 32

ECMWFNIL_700_spd_033.txt.gz
Wind_Speed
24 24 23 23 23 24 25 25 24 24 23 22 20 19 18 16 15 14 14 12 12 13 13 13 13 12 12 12 13 14 14 14 13 12 12 12 12 11 11 11 11 11
24 24 24 23 24 25 25 25 25 25 24 24 23 22 20 19 18 17 16 15 15 15 15 16 15 14 14 14 14 15 15 14 14 14 14 13 12 12 12 12 12 12
25 25 25 24 24 25 26 26 26 26 25 26 25 24 22 21 20 19 18 18 18 18 18 17 16 16 16 16 16 16 16 15 15 15 15 15 14 13 13 12 12 13
26 26 26 26 26 26 27 27 27 26 27 27 26 25 24 23 22 21 21 21 21 21 20 18 16 17 18 18 16 16 16 17 17 16 16 16 15 15 14 13 13 13
27 28 27 27 27 28 28 28 28 27 28 28 28 26 26 26 25 24 25 24 25 24 22 21 21 22 22 20 18 19 20 22 21 19 16 16 16 16 16 15 13 12
28 29 28 28 29 29 29 29 29 29 29 30 29 29 29 28 28 28 28 28 28 28 28 28 29 28 26 25 26 28 29 29 26 22 18 16 16 16 16 16 14 12
29 29 29 29 29 30 30 30 30 30 31 32 32 31 31 31 31 32 32 32 33 33 31 31 31 29 27 29 30 32 32 30 28 25 20 17 16 16 15 16 15 13
28 28 29 29 30 30 31 31 31 32 32 33 34 33 32 33 34 35 35 35 36 35 33 33 33 31 30 31 31 30 30 30 28 26 22 18 16 15 15 15 16 14
27 28 29 29 30 30 30 31 32 33 33 34 35 35 34 35 36 37 38 38 38 38 37 36 36 35 33 33 32 30 29 29 28 25 22 19 16 15 14 14 15 14
26 28 28 29 29 29 29 30 31 33 33 34 35 36 36 37 38 39 40 40 40 40 40 39 38 37 36 34 35 35 30 27 27 24 21 19 17 15 15 14 14 14
26 27 27 27 27 27 27 27 30 32 31 32 34 36 37 37 38 40 40 41 42 42 41 41 41 41 40 37 37 38 32 28 27 25 21 19 18 17 15 14 13 13
26 26 26 25 25 25 25 26 29 30 31 31 33 35 37 37 38 39 39 41 43 43 42 42 43 43 43 41 38 35 32 31 28 24 22 20 19 18 16 14 13 13
27 27 26 26 25 25 26 27 28 29 31 33 34 36 37 38 38 38 39 41 44 44 43 43 44 44 45 45 41 35 31 32 30 25 25 22 19 18 17 14 12 13
28 27 27 27 26 26 27 28 28 29 31 34 36 37 37 38 39 39 39 41 44 45 44 43 44 45 46 47 43 37 32 31 31 28 26 22 18 18 17 14 13 14
27 27 26 27 27 27 28 29 29 30 32 34 37 37 36 37 39 41 40 41 44 45 42 42 44 47 47 46 43 38 33 30 31 29 25 21 17 18 17 14 13 15
26 26 26 27 29 29 30 31 31 31 33 35 37 38 38 37 39 41 41 40 43 46 42 40 42 43 44 44 42 38 33 30 30 28 24 20 18 19 17 14 14 15
26 27 28 30 31 31 31 32 32 32 33 36 38 38 39 39 40 42 42 39 43 47 44 41 40 38 39 41 41 38 33 30 28 24 24 23 21 20 17 15 16 17
28 29 30 30 30 31 31 32 32 32 34 36 37 37 39 40 40 43 42 39 42 45 43 40 37 35 36 39 39 36 33 30 25 23 25 25 22 20 18 16 17 18
30 29 29 28 29 29 30 30 31 32 33 34 35 36 39 40 40 42 42 41 40 39 37 37 36 35 37 39 37 34 33 30 24 22 24 24 21 20 19 18 19 20
29 27 27 27 27 28 29 29 31 32 33 34 35 37 39 39 39 41 41 40 38 35 32 33 35 36 38 39 36 34 33 27 21 21 24 23 21 20 19 20 21 22
27 26 27 27 28 28 28 29 30 31 31 32 34 35 37 37 38 39 39 39 38 34 31 33 36 37 38 37 34 32 29 23 19 21 24 24 21 20 21 22 24 24
27 26 27 28 27 27 26 26 26 27 27 28 30 33 35 37 37 38 38 38 36 33 31 33 36 37 36 34 30 26 25 23 21 22 24 24 22 21 23 25 25 25
27 26 26 26 25 23 22 21 22 24 24 27 30 33 36 37 38 37 37 36 35 31 29 31 33 33 32 28 24 23 24 24 24 24 25 25 23 23 24 26 26 26
26 25 24 23 22 20 19 19 20 22 24 27 31 34 36 37 37 36 35 34 32 29 28 30 32 31 28 25 23 23 25 26 25 26 27 25 23 24 26 27 27 28
25 24 23 22 20 18 18 18 20 23 25 27 31 34 36 36 35 34 33 31 30 28 29 31 32 30 27 25 24 25 26 26 26 27 27 25 24 26 27 28 28 29
25 24 22 21 20 19 19 20 22 24 27 28 30 33 35 34 34 33 30 29 29 29 30 31 31 30 27 25 26 27 26 26 27 27 26 25 26 27 29 29 29 30

ECMWFNIL_700_spd_036.txt.gz
Wind_Speed
23 23 22 21 21 20 19 19 18 19 19 19 19 18 19 19 19 18 16 16 16 16 15 14 14 14 14 14 17 20 23 25 24 21 19 20 20 19 18 17 16 15
23 23 23 22 21 20 20 19 19 20 20 19 19 20 21 21 21 20 19 18 19 19 17 16 16 15 15 15 18 21 23 24 26 25 24 24 23 22 21 20 19 17
24 24 23 23 21 20 21 21 20 20 20 20 21 21 22 23 23 22 21 21 21 21 19 18 17 16 16 18 19 22 22 21 23 25 26 27 26 25 24 22 21 18
24 24 24 23 22 21 22 23 22 21 21 21 22 22 23 24 23 22 22 22 22 23 22 21 19 18 20 22 22 23 23 21 22 23 25 26 27 27 25 22 20 18
24 24 24 23 23 23 23 24 23 22 22 22 23 24 24 24 24 23 23 23 24 24 24 23 21 21 25 27 27 25 23 22 22 24 26 29 29 27 23 21 19 17
25 25 24 23 24 24 24 24 24 24 23 23 24 25 25 25 24 23 24 25 26 26 26 25 24 24 27 29 29 26 23 23 23 25 30 33 31 27 23 22 20 17
24 25 24 24 24 25 25 25 25 25 25 25 26 26 27 27 26 25 25 26 27 28 28 28 27 29 30 30 30 29 27 26 25 27 31 33 33 28 23 22 21 17
24 24 24 24 25 26 26 26 27 26 25 26 27 27 28 29 28 27 27 28 29 30 31 31 31 32 33 32 31 31 31 31 30 30 31 32 33 30 24 22 20 17
24 24 25 25 26 26 26 27 27 27 26 27 29 29 29 29 29 29 30 30 31 32 33 34 34 35 35 34 32 31 32 34 34 33 32 32 33 30 25 21 19 18
24 24 25 26 26 26 26 27 27 26 27 28 29 30 30 30 30 30 31 31 32 33 34 35 36 37 37 35 34 33 34 35 35 34 33 32 32 29 24 20 19 19
24 25 25 26 26 26 26 26 26 26 26 28 29 31 31 31 31 32 31 31 32 33 34 34 36 39 39 37 38 37 37 35 35 36 35 33 31 29 23 20 20 20
24 24 24 25 25 25 25 25 25 25 25 26 27 29 30 31 31 32 32 31 32 33 34 33 35 39 40 40 40 40 38 36 33 35 35 32 32 30 24 19 21 21
23 23 23 23 23 23 23 23 23 24 25 25 25 26 29 29 30 32 33 32 32 34 34 33 35 38 40 41 41 40 40 39 34 33 34 32 31 30 24 19 20 20
22 22 23 22 21 21 21 22 22 23 25 27 27 26 27 28 30 32 33 33 33 34 33 34 36 37 38 41 41 39 40 40 35 32 33 31 31 30 24 19 20 20
23 23 23 22 22 22 21 22 23 24 27 29 29 28 27 28 31 32 33 35 36 34 33 33 36 37 38 40 39 37 37 37 34 32 32 30 30 28 22 18 19 20
24 23 23 23 22 21 21 22 24 25 27 29 29 29 29 30 33 34 33 34 36 36 34 34 36 37 38 38 36 35 35 35 34 33 31 29 29 26 19 16 18 20
24 23 23 23 22 21 21 22 24 26 28 29 30 31 31 32 34 34 34 34 35 36 36 35 36 36 36 36 36 35 35 34 35 34 31 31 30 24 18 17 18 21
25 24 24 23 22 22 23 23 25 27 29 30 31 32 32 33 34 34 35 35 36 37 37 35 35 35 33 34 36 36 35 34 34 33 32 33 32 26 21 19 19 22
26 25 25 24 24 24 25 26 27 29 30 30 31 32 32 31 31 32 34 36 37 39 38 35 36 35 31 32 34 35 34 34 34 33 33 34 32 28 24 20 18 21
27 26 26 25 26 27 27 27 28 29 30 30 30 31 30 29 29 30 33 35 37 39 39 38 37 35 30 29 30 32 33 33 33 33 33 34 31 27 23 20 19 21
27 27 27 27 28 28 27 27 28 28 29 29 29 29 28 28 29 29 29 31 34 37 39 39 37 33 29 27 28 30 32 32 33 33 32 31 28 24 21 19 19 21
28 28 28 29 29 27 26 27 28 28 28 28 28 29 28 26 26 27 27 29 33 36 39 39 35 31 27 24 26 30 32 32 32 32 32 30 25 22 21 20 19 21
30 30 31 31 29 27 27 28 28 28 28 28 29 28 25 23 23 26 28 29 32 36 38 38 34 29 24 22 26 30 31 31 31 31 32 30 24 22 22 20 20 21
33 33 33 31 29 28 28 28 27 27 28 28 27 24 21 21 23 26 28 30 32 35 37 37 34 28 22 22 27 30 30 30 31 31 32 30 25 24 23 21 21 23
35 34 32 31 30 28 27 26 26 27 28 25 23 21 21 23 25 27 30 32 34 35 36 36 33 27 22 23 27 29 29 31 32 32 31 29 26 25 23 22 23 23
35 33 32 30 28 25 25 26 27 27 26 23 21 22 24 25 26 28 31 32 34 35 35 34 31 26 21 23 26 29 30 32 33 31 30 29 26 25 25 25 24 23

ECMWFNIL_700_spd_042.txt.gz
Wind_Speed
24 22 21 20 20 19 18 17 16 14 14 14 14 13 12 12 13 13 13 12 12 12 11 10 9 10 10 10 11 11 11 13 15 16 17 17 18 19 21 21 20 19
25 23 22 21 21 20 19 18 17 15 15 15 15 14 14 14 14 13 13 13 12 12 12 12 11 11 11 12 12 13 14 15 16 17 18 18 19 20 22 24 23 20
25 24 23 22 21 20 20 19 18 17 16 16 16 16 16 15 14 13 13 12 12 12 13 13 12 12 12 13 14 15 16 17 17 19 20 20 20 21 23 25 25 22
26 24 23 22 21 21 20 20 20 19 18 18 18 17 16 15 14 14 13 12 12 12 13 14 13 13 13 14 15 16 17 18 19 20 21 22 22 22 23 25 25 24
25 25 23 23 22 22 22 22 21 20 19 19 18 18 16 15 14 13 12 12 12 13 14 14 14 15 15 16 17 18 19 20 21 22 23 24 24 24 24 25 25 25
26 25 25 24 23 23 23 23 21 21 20 20 19 18 17 15 13 12 12 12 12 13 15 16 16 16 17 18 19 19 20 21 22 24 24 25 25 25 25 26 26 25
26 26 25 24 24 24 24 23 22 22 21 21 20 19 17 15 14 13 12 12 13 14 15 16 17 17 18 19 20 21 22 23 24 24 25 26 27 27 27 27 26 26
25 26 26 25 25 25 25 24 23 22 22 22 21 19 17 16 14 14 14 13 14 14 15 16 17 18 19 20 20 21 23 24 25 26 27 28 28 28 27 27 26 26
26 26 26 26 26 26 25 25 24 23 23 22 21 20 19 17 15 15 15 15 15 15 16 17 18 19 20 21 21 22 23 25 27 28 29 29 29 28 28 27 26 26
26 27 27 27 27 26 26 25 24 24 23 22 21 21 20 18 17 16 16 16 15 15 15 16 17 18 19 21 22 23 24 26 28 29 30 30 29 28 28 27 26 25
27 27 28 28 27 27 26 25 25 24 23 22 21 21 20 19 19 17 16 16 15 14 15 15 16 17 19 21 22 23 24 26 27 29 29 29 29 28 27 27 26 25
28 28 28 28 27 27 26 25 25 24 24 23 22 21 20 20 19 18 17 16 15 15 15 15 16 17 18 20 21 22 23 24 26 28 28 29 29 27 27 27 26 25
29 29 28 27 27 27 26 26 25 25 24 23 22 22 21 20 19 18 17 16 16 16 15 15 16 17 17 18 19 20 22 23 26 28 28 28 29 27 26 27 26 26
29 29 28 27 27 27 27 26 26 25 25 24 23 23 22 20 19 19 18 17 17 16 15 15 15 15 15 17 19 20 22 23 25 27 27 27 28 26 26 27 26 25
29 29 29 28 28 28 28 28 27 26 25 25 25 24 22 21 20 20 20 19 17 16 15 14 14 13 14 16 19 20 22 23 25 26 26 27 27 24 24 26 26 25
30 30 30 30 29 29 29 28 28 27 27 26 26 24 23 22 22 21 20 18 17 16 15 14 13 12 13 15 17 20 21 22 24 25 24 25 26 24 23 25 25 24
32 31 31 31 30 30 29 29 28 28 28 28 27 26 24 24 24 23 20 18 17 16 16 15 14 13 13 13 15 19 22 23 23 23 23 24 24 24 23 23 24 25
33 32 32 32 31 31 29 29 29 29 29 29 28 27 26 26 25 23 21 19 18 17 16 15 14 14 14 14 16 20 23 25 24 23 24 24 23 23 23 24 25 26
35 34 33 33 33 31 30 30 30 31 31 30 29 27 27 27 26 24 22 20 19 17 15 15 16 15 15 15 18 21 25 27 25 23 25 25 24 23 24 26 27 26
37 36 35 34 34 33 31 31 31 32 32 31 29 28 28 28 27 25 23 20 18 16 16 17 17 16 16 16 18 21 25 28 25 24 25 26 24 25 26 27 27 26
39 38 36 35 35 35 34 33 33 33 33 31 30 29 29 28 26 25 22 21 19 17 18 19 18 17 17 16 18 21 26 29 26 25 27 27 25 26 28 28 27 26
40 39 38 37 37 37 36 35 34 34 33 32 31 30 29 28 27 25 23 21 20 19 20 20 19 18 18 16 19 23 26 29 28 27 29 29 27 27 30 29 28 27
40 40 39 39 38 39 39 37 36 35 34 33 32 31 30 29 27 25 23 22 22 22 22 21 19 19 17 17 20 24 28 31 30 28 29 31 30 30 31 30 29 28
39 40 40 40 40 40 40 39 38 37 35 34 33 31 30 29 27 26 26 25 25 24 22 21 19 18 18 18 21 25 29 31 31 29 30 32 32 32 32 31 30 29
38 40 41 42 42 42 41 41 40 39 36 35 34 32 31 29 28 28 28 27 26 25 22 21 20 19 19 20 23 27 30 33 33 32 32 33 33 33 33 32 30 28
33 38 42 44 43 43 43 43 42 40 38 36 35 34 32 31 31 31 30 29 27 25 22 21 22 22 22 23 25 28 30 33 35 34 34 33 33 34 34 31 28 27

ECMWFNIL_700_spd_045.txt.gz
Wind_Speed
29 28 27 25 24 23 22 20 18 17 15 14 14 14 14 15 16 17 16 16 16 15 14 14 14 13 12 11 11 10 10 10 10 11 12 13 14 16 18 19 20 20
31 30 29 27 26 25 23 21 19 18 16 15 15 15 16 17 18 18 17 17 17 16 16 15 15 15 14 13 12 12 11 11 12 13 14 15 16 17 18 19 20 21
32 32 31 29 27 26 24 22 21 19 18 17 17 17 18 18 18 18 18 18 18 17 16 16 15 15 15 14 14 13 13 13 14 15 15 16 18 18 19 20 21 22
31 32 32 31 28 26 25 23 22 21 20 19 19 19 19 19 19 19 19 19 18 18 17 16 15 15 15 14 15 15 15 15 15 16 17 18 19 20 21 22 22 23
31 31 32 31 30 28 26 25 23 22 21 21 21 21 21 20 20 20 19 19 18 18 17 16 15 14 14 14 15 15 16 16 17 18 19 20 20 21 22 23 24 24
31 31 32 32 31 29 28 26 24 23 22 22 23 23 23 22 21 20 20 19 18 18 18 17 15 14 13 14 15 16 17 17 18 19 20 21 21 22 23 23 24 24
30 30 31 32 31 30 29 27 25 24 24 24 24 25 24 23 22 21 20 20 19 19 18 17 16 15 14 15 15 16 17 18 19 20 20 21 22 22 23 23 24 25
30 30 31 31 31 31 29 27 26 26 25 26 26 26 26 25 23 22 21 21 20 19 19 18 17 16 15 15 15 16 17 18 19 20 21 22 23 23 23 23 24 24
30 30 30 31 31 30 29 28 27 26 26 27 27 26 26 26 24 23 22 22 21 20 19 19 18 17 17 16 16 16 17 18 20 21 22 23 23 23 23 24 24 24
29 29 29 29 30 29 28 27 27 27 27 28 28 27 27 26 25 24 23 22 21 20 19 18 18 18 18 17 16 16 17 19 20 22 23 24 24 24 24 24 25 25
28 28 28 28 28 28 27 26 26 27 28 28 29 28 27 26 26 25 24 23 21 19 19 18 18 18 18 17 17 17 18 19 21 21 22 23 24 24 24 25 25 25
28 27 27 27 27 27 26 26 26 27 28 29 29 28 28 27 26 25 23 22 20 20 19 19 19 19 18 18 18 19 19 20 20 20 21 22 23 24 24 25 25 25
28 27 27 26 26 26 26 26 26 27 27 28 29 29 28 27 26 25 24 22 21 20 20 20 20 20 19 19 19 20 20 20 20 19 20 22 23 24 25 25 25 24
30 29 29 28 27 26 26 26 26 27 27 28 28 29 29 28 26 25 24 23 23 22 21 21 22 21 21 20 20 20 20 20 19 19 20 22 24 25 25 25 24 24
32 32 30 29 28 27 26 26 27 28 28 28 29 29 28 28 27 26 26 26 25 24 23 23 23 23 22 21 20 19 19 19 19 20 21 23 24 25 25 23 22 23
34 33 32 31 29 28 28 27 28 28 29 29 29 29 28 28 28 29 29 28 26 26 25 25 25 23 21 20 19 19 18 19 20 21 23 24 24 25 24 22 20 21
35 34 34 32 31 30 29 29 29 29 30 30 30 30 29 29 30 31 31 29 28 27 27 27 25 22 20 20 19 18 19 20 21 22 24 24 25 25 24 21 20 20
35 35 35 34 32 31 31 31 30 30 30 31 31 31 31 31 32 32 32 30 29 29 29 27 24 21 20 20 19 19 19 21 23 24 24 25 25 25 24 22 21 21
36 36 36 35 34 33 33 33 32 32 32 32 32 32 32 33 33 34 33 31 31 31 29 27 24 22 21 20 20 20 20 22 25 25 25 25 25 26 26 24 22 22
38 37 37 36 35 34 34 34 34 34 33 33 34 34 34 34 35 35 34 32 32 31 29 27 24 23 22 21 21 21 22 24 26 27 26 25 25 27 27 24 23 23
40 39 38 37 37 37 36 36 35 35 35 35 36 36 36 36 36 35 34 33 32 31 29 28 25 24 23 22 22 23 23 24 28 29 27 27 27 28 27 24 23 23
41 41 41 40 40 39 37 37 37 37 37 37 37 37 37 37 36 36 35 34 33 32 30 28 26 25 24 23 23 23 24 26 29 29 30 31 29 29 29 26 22 22
40 41 42 43 43 41 39 38 39 39 39 39 39 39 39 38 38 37 36 35 34 33 32 30 28 26 25 24 24 25 25 27 29 30 33 33 29 28 31 27 21 22
35 38 41 43 44 44 42 41 41 41 41 40 40 40 39 39 38 38 37 36 35 34 33 31 28 27 25 25 25 26 27 29 30 32 35 33 27 28 31 27 23 24
32 33 35 37 41 44 44 44 43 43 43 42 42 41 40 39 39 39 38 37 35 34 33 31 29 27 26 26 27 28 29 30 30 32 35 34 30 29 30 27 26 26
30 29 29 30 35 40 43 45 46 46 46 45 44 43 42 41 40 40 39 37 35 34 32 30 29 28 27 27 28 30 31 31 31 33 36 35 31 30 30 29 29 29

ECMWFNIL_700_spd_048.txt.gz
Wind_Speed
27 26 25 24 23 23 22 22 21 19 17 17 17 16 16 15 16 17 18 19 19 19 18 18 17 15 14 13 12 11 10 9 8 8 9 10 11 12 13 14 14 15
29 28 27 26 25 24 23 22 22 20 18 18 17 17 17 18 19 19 20 21 21 21 20 19 18 16 15 14 13 12 11 10 10 10 11 12 12 13 14 15 16 16
30 30 29 28 26 24 23 23 23 22 20 19 19 19 19 20 20 21 22 22 23 23 22 20 19 18 17 15 14 13 12 12 12 12 12 13 14 14 15 16 17 17
32 31 30 29 27 26 25 25 24 23 21 20 20 20 21 22 22 23 23 24 24 24 22 21 20 19 18 17 16 14 13 13 13 14 14 15 15 15 16 17 17 18
33 32 32 31 30 28 27 26 25 24 22 21 20 21 22 23 23 24 24 24 25 24 23 22 20 19 18 18 17 15 15 14 15 15 15 16 17 17 18 18 18 18
34 34 34 33 32 31 30 28 26 25 24 22 22 22 23 23 24 24 24 25 25 24 23 22 21 20 19 18 17 16 16 16 17 17 17 17 18 19 19 19 19 18
33 33 33 33 32 31 31 29 27 26 25 23 24 24 24 25 25 25 25 25 25 25 24 23 22 21 20 19 18 17 17 17 18 19 18 18 19 20 20 20 20 19
29 30 31 31 31 31 31 30 28 27 26 25 25 26 26 26 26 26 26 26 26 25 25 24 23 22 22 20 19 18 18 18 19 20 20 20 20 21 21 21 21 20
27 28 29 30 31 31 30 30 29 27 26 26 26 26 27 27 27 27 27 27 27 27 26 25 24 24 23 21 20 19 19 19 19 20 20 21 22 22 22 22 22 21
26 27 28 30 30 30 29 29 29 28 27 27 27 27 29 29 29 29 29 29 29 29 28 26 26 25 24 22 21 20 20 20 20 21 21 22 23 23 24 24 23 22
26 27 28 29 29 29 29 29 28 28 27 27 28 28 30 31 31 31 30 31 30 30 29 27 27 26 25 24 22 21 21 21 21 22 22 22 23 24 25 25 24 22
26 27 28 28 28 28 29 28 27 27 27 28 28 29 30 32 32 32 32 31 31 30 30 28 28 27 26 25 24 23 23 23 23 23 22 22 23 24 25 25 25 23
26 27 28 27 27 27 28 28 27 27 27 28 29 30 31 33 33 33 33 31 31 31 30 29 29 28 27 27 26 26 25 25 24 24 23 23 23 24 25 25 25 24
27 28 28 27 27 27 27 27 27 28 28 28 29 31 32 33 34 34 33 32 32 32 32 31 31 30 30 29 28 28 27 26 26 25 24 23 23 24 25 26 26 26
28 29 29 28 28 28 27 28 28 28 29 29 30 31 32 34 35 35 34 34 34 34 33 33 33 33 32 31 30 29 29 28 27 26 25 25 24 25 26 28 28 27
29 30 30 30 30 29 28 28 28 28 29 29 30 30 32 34 35 36 35 35 35 35 35 35 35 35 34 33 32 31 31 31 29 28 27 26 26 26 27 28 28 26
31 31 32 32 32 32 31 30 29 29 29 29 29 30 31 33 35 36 36 36 36 36 36 37 37 36 35 34 34 33 33 32 31 29 28 28 27 27 28 28 27 27
33 33 34 34 34 34 33 32 30 30 29 29 30 30 31 33 35 36 37 37 37 37 37 38 38 37 36 36 36 35 34 33 31 30 29 29 28 27 27 28 28 27
34 35 36 36 36 36 35 34 33 32 31 30 30 31 32 33 34 35 37 38 38 38 39 39 39 38 37 37 37 36 34 33 31 30 30 29 27 27 28 30 28 25
33 35 37 37 37 37 37 37 36 34 33 32 32 32 33 35 35 36 37 39 40 40 40 40 40 39 39 39 38 36 34 33 31 30 30 29 29 31 33 32 28 24
33 35 36 38 38 39 39 40 39 37 35 35 34 35 35 35 36 37 38 39 41 41 41 41 40 40 40 40 39 36 34 33 31 31 31 31 33 35 34 31 28 25
35 36 37 37 38 39 41 41 41 40 39 38 37 37 37 37 37 37 38 40 41 42 42 42 41 41 41 40 39 37 35 34 33 32 33 34 34 35 34 32 29 26
32 35 37 38 39 40 41 42 42 42 41 41 41 40 40 40 40 39 39 40 42 43 43 43 42 42 42 41 39 37 36 35 34 33 34 35 35 35 35 34 30 27
27 30 32 34 37 39 40 41 42 42 43 43 43 43 43 42 41 41 41 41 42 43 43 43 43 42 42 41 39 38 37 36 34 34 35 36 35 35 34 35 32 28
25 26 26 27 29 31 34 36 38 41 43 44 45 45 46 45 44 43 43 43 43 43 43 43 43 43 43 42 40 39 38 37 35 35 36 37 36 35 35 36 35 32
26 26 25 25 26 28 30 32 35 38 41 43 46 47 48 48 47 46 46 45 44 44 44 44 44 44 43 42 40 39 38 37 37 37 37 37 37 35 36 37 37 35

ECMWFNIL_700_spd_054.txt.gz
Wind_Speed
28 27 26 24 23 22 21 19 19 19 18 17 16 16 16 16 17 19 21 22 23 23 25 25 25 25 24 22 20 18 17 15 13 11 10 9 9 8 8 8 8 9
29 28 27 26 25 24 22 21 20 20 20 19 18 17 17 19 20 21 22 23 24 25 26 27 27 26 25 24 22 20 19 17 15 13 11 11 11 10 10 9 9 9
31 30 28 27 25 24 24 23 22 22 21 21 20 18 18 20 22 23 24 25 26 26 28 29 29 28 26 25 23 22 20 19 17 15 13 13 13 12 12 11 10 10
32 31 29 28 27 26 25 25 24 23 23 22 21 19 19 21 23 25 26 26 27 28 29 30 30 29 28 27 25 23 22 20 19 17 15 14 14 14 13 13 12 12
32 31 30 29 28 27 27 27 26 24 24 23 22 21 20 20 22 25 27 28 28 28 30 31 31 31 30 28 26 25 23 22 21 19 17 16 16 16 15 14 14 13
33 32 31 30 29 29 29 28 27 26 25 24 24 23 21 21 22 24 27 28 29 29 30 31 32 32 31 30 28 26 24 23 22 20 19 18 18 17 17 16 16 15
34 33 33 32 31 31 30 29 28 28 27 26 26 25 23 22 22 23 26 28 29 30 30 31 32 32 32 31 29 27 26 25 24 22 21 20 19 19 19 18 17 17
33 34 34 33 33 32 31 30 29 29 28 28 27 26 25 24 23 23 25 28 30 31 31 31 32 33 33 33 31 29 28 27 26 24 23 22 21 20 20 20 19 19
31 32 33 34 34 34 32 31 30 29 28 29 28 27 26 25 24 24 25 27 29 31 32 31 32 33 34 34 32 30 29 28 27 26 24 24 23 22 22 21 21 20
28 30 31 33 34 34 33 32 31 30 29 29 29 29 29 28 27 27 27 28 30 32 32 32 32 33 35 35 33 32 31 30 29 28 26 25 24 23 23 23 22 22
26 27 29 30 31 32 32 32 32 32 31 30 29 30 30 30 29 29 29 29 30 32 33 33 33 34 35 35 34 33 32 31 31 30 28 27 26 26 25 25 24 24
26 27 27 27 28 29 29 31 32 32 31 30 30 30 31 31 31 31 31 31 31 32 33 33 34 34 35 36 36 35 34 33 33 32 30 29 29 28 27 27 26 26
28 27 26 25 25 25 26 27 28 29 30 29 29 29 30 31 31 31 32 32 32 32 33 34 35 35 36 36 37 36 35 35 34 33 32 31 31 29 29 29 28 28
29 28 27 26 25 25 25 25 25 26 27 27 27 28 29 30 30 31 32 33 33 33 34 35 36 36 37 37 38 38 37 36 36 35 34 33 32 31 30 30 31 30
30 28 27 27 27 27 26 26 25 25 26 26 26 26 27 29 30 31 32 33 34 34 35 36 37 38 38 38 38 38 38 37 37 36 36 35 34 33 32 32 32 33
31 30 29 29 30 29 28 28 27 27 27 27 27 26 27 28 29 31 32 34 35 35 36 38 39 39 39 38 38 39 39 39 39 38 37 37 36 35 34 34 34 34
32 32 32 32 32 31 30 30 29 30 30 29 28 28 27 28 29 30 32 34 35 36 37 38 40 40 40 39 39 39 40 40 40 40 39 39 38 37 36 36 37 36
33 34 35 35 34 33 32 31 31 31 32 31 30 29 28 28 29 30 31 33 35 36 36 38 40 40 40 40 40 41 41 41 42 42 41 41 40 40 38 38 39 38
35 36 36 36 35 34 33 32 32 32 32 32 31 30 29 29 29 29 30 32 34 35 36 37 39 40 40 40 42 42 42 43 43 43 43 43 42 42 41 40 41 41
36 37 36 35 35 35 34 33 32 32 32 31 31 30 30 29 29 28 29 30 32 34 35 36 38 39 39 40 42 43 44 45 45 45 45 45 45 44 43 43 43 43
36 37 36 36 36 35 35 34 32 32 32 31 32 32 31 30 30 29 29 30 31 33 34 35 36 37 38 39 42 43 45 46 47 48 47 47 47 47 46 46 46 45
36 36 37 37 36 36 35 34 33 33 32 32 33 33 33 33 32 32 32 32 32 33 34 35 36 37 37 38 40 43 45 47 49 50 50 50 50 49 49 48 48 47
35 36 36 36 36 35 35 34 34 34 33 34 35 36 36 36 36 35 36 35 35 35 35 36 36 37 37 37 39 41 44 47 49 51 52 52 52 51 51 50 50 49
35 36 36 36 36 36 35 35 35 35 35 35 36 37 37 38 39 40 40 40 39 38 37 37 37 38 38 38 39 41 43 46 49 51 52 53 53 53 53 52 52 52
35 36 36 36 36 35 35 34 34 34 35 35 36 36 37 39 40 42 43 43 42 41 41 40 39 39 40 40 41 42 43 46 48 51 53 54 55 55 55 55 55 55
34 35 34 34 34 33 33 32 32 33 33 34 35 36 37 39 41 42 44 44 44 43 43 43 43 43 43 43 43 43 44 46 48 51 53 56 57 57 57 57 58 57

ECMWFNIL_700_spd_057.txt.gz
Wind_Speed
29 28 28 26 24 23 22 21 20 19 17 15 14 12 12 12 15 19 21 23 23 23 22 22 23 23 23 23 22 21 21 20 18 16 14 12 10 7 6 5 5 7
29 29 29 27 25 24 22 21 21 20 19 17 16 15 13 13 15 18 20 22 24 24 24 23 24 25 25 24 24 23 22 21 20 19 16 14 12 9 8 7 7 7
30 30 29 27 26 25 24 23 22 21 20 19 18 18 16 16 17 18 20 22 23 25 26 25 25 26 26 26 25 25 24 23 22 21 19 16 14 12 10 9 9 8
30 30 29 28 27 26 26 25 23 22 21 20 20 20 19 18 18 18 20 22 24 25 26 27 26 27 27 28 27 26 26 25 24 23 21 18 16 14 12 12 11 11
30 30 29 29 28 28 28 27 25 23 22 22 22 22 21 20 20 19 20 22 24 26 27 28 28 28 28 29 29 28 27 27 26 25 24 21 18 17 15 14 14 13
31 31 30 29 29 29 29 27 26 25 24 24 24 24 23 22 21 21 21 21 22 25 27 28 28 29 30 30 30 30 29 28 27 26 25 23 21 19 18 17 16 16
32 31 31 30 30 30 30 28 28 27 26 26 26 25 25 24 23 22 22 22 22 23 26 27 28 29 30 31 31 31 31 30 29 28 26 25 23 21 20 19 18 18
31 32 32 32 32 32 31 30 30 29 28 28 28 26 26 26 25 23 23 23 23 23 25 26 28 28 30 31 31 32 32 31 31 29 28 27 25 24 22 21 20 20
31 32 33 33 34 33 32 31 31 30 30 29 29 28 27 27 26 25 24 24 24 24 25 26 27 28 29 30 31 32 32 32 32 31 29 28 27 26 25 24 22 22
29 31 32 33 34 35 34 32 32 31 31 30 30 29 29 28 28 27 26 25 25 26 26 26 26 27 28 30 31 31 32 32 32 32 31 30 28 27 28 27 25 25
27 29 31 32 33 34 34 33 33 33 33 32 31 31 31 30 29 29 29 27 27 27 27 26 26 26 27 29 30 31 31 32 32 32 32 31 29 29 29 29 28 27
26 27 29 30 31 32 33 33 33 34 34 32 31 31 32 31 29 29 30 29 28 27 28 27 27 27 27 28 30 31 31 32 33 33 33 32 31 30 30 31 31 29
26 26 27 28 28 29 31 31 32 33 33 32 31 31 32 32 31 30 29 30 29 29 29 29 28 29 29 28 29 31 32 32 33 33 33 33 32 31 31 32 32 32
27 27 26 26 26 27 28 29 30 30 31 31 30 30 31 32 32 31 30 30 31 30 31 31 31 31 31 31 30 31 33 33 33 33 33 34 33 32 32 33 34 34
30 28 27 26 26 27 27 27 27 27 28 29 29 28 29 30 31 32 32 31 31 31 32 32 33 33 33 33 32 31 32 33 33 33 34 34 34 34 34 34 35 35
33 30 28 28 28 28 27 26 25 25 25 26 26 25 26 27 29 31 32 31 31 30 31 33 34 34 34 34 33 32 32 33 34 34 35 35 35 35 35 36 36 37
36 34 32 30 29 29 28 27 26 25 24 24 25 24 24 24 26 28 29 30 30 29 30 32 34 34 34 34 34 33 33 34 35 35 36 36 36 36 37 37 38 38
39 37 36 34 32 31 29 28 27 27 26 26 25 25 24 24 25 26 26 28 29 28 28 30 33 34 34 34 34 34 34 35 36 37 37 37 38 38 38 39 39 40
39 38 37 36 35 34 32 31 30 29 29 28 27 26 26 26 26 26 26 27 28 29 28 27 29 31 33 33 34 34 35 36 37 38 39 39 39 40 40 41 41 41
39 38 37 37 36 36 34 33 32 31 31 30 30 29 28 28 28 28 28 28 28 29 29 27 27 28 29 31 32 33 35 36 37 39 40 41 41 42 42 42 42 42
38 38 38 38 38 37 35 34 33 32 33 33 32 31 31 31 31 30 30 30 30 30 31 30 28 28 28 28 29 31 34 36 37 39 41 42 43 44 44 44 43 44
38 39 39 39 39 37 36 34 33 34 34 34 34 33 33 33 32 32 32 32 32 32 32 32 30 30 29 28 28 29 32 36 38 39 41 43 43 44 45 45 45 46
37 38 39 39 39 37 35 34 34 34 34 35 35 35 35 34 33 33 33 33 33 33 33 33 33 33 32 31 30 30 31 34 37 39 41 43 43 44 45 46 47 47
35 37 37 37 36 35 35 34 35 35 35 34 34 35 35 34 34 34 34 34 35 35 35 35 36 36 36 35 35 34 33 34 37 39 41 43 43 44 45 47 48 48
35 35 35 35 35 34 34 35 35 35 35 35 35 35 36 36 36 36 37 37 37 37 37 38 38 39 40 39 39 38 38 37 37 39 42 43 44 45 46 48 49 48
34 34 34 34 34 34 34 35 35 36 37 36 36 37 37 38 39 39 39 40 40 40 40 41 42 43 44 43 41 41 41 41 41 41 42 43 44 46 48 49 49 49

ECMWFNIL_700_spd_060.txt.gz
Wind_Speed
26 26 25 24 23 22 21 19 18 16 14 12 10 9 8 9 11 14 15 16 16 17 18 19 19 18 18 18 18 18 18 18 17 15 13 11 10 9 9 8 6 4
26 26 26 25 24 23 22 21 20 18 16 14 12 11 10 10 11 13 14 15 16 18 19 20 20 20 19 19 19 19 19 19 19 17 15 14 13 11 11 11 9 7
27 27 26 25 24 24 23 22 21 19 18 16 14 13 13 12 12 12 13 14 15 17 19 21 21 21 21 21 20 20 20 19 20 19 18 16 15 13 13 13 12 10
27 27 26 25 24 24 24 24 22 21 19 18 16 16 15 14 14 13 14 14 14 16 18 20 21 21 22 22 22 21 21 20 21 21 20 18 17 15 14 14 14 12
27 26 26 25 25 26 26 25 23 21 20 19 18 18 17 16 16 15 15 15 15 15 17 19 20 21 22 23 23 22 21 21 21 22 21 20 19 17 16 15 15 15
26 27 26 26 26 27 27 25 23 22 21 21 20 20 19 19 18 17 16 16 16 16 16 18 19 20 21 22 24 24 23 22 22 23 23 22 21 20 18 17 17 16
26 27 27 27 27 27 27 25 24 24 22 22 22 22 21 21 21 20 18 17 18 18 17 17 19 20 20 21 22 23 24 24 24 24 24 23 22 21 20 19 18 18
26 26 27 27 28 28 27 26 25 25 24 24 24 23 22 22 22 22 21 20 19 19 19 19 18 19 20 21 22 22 23 24 25 25 24 24 24 23 22 21 20 20
26 27 28 28 29 28 28 27 26 26 26 26 26 24 24 23 23 23 23 22 22 21 21 21 20 19 19 21 21 21 22 23 24 25 25 25 25 25 24 23 23 22
27 28 29 29 30 29 28 28 27 27 28 28 28 27 26 25 24 24 24 24 24 23 22 22 22 21 19 19 20 20 21 22 23 25 25 25 25 26 26 25 25 25
28 29 30 30 30 30 29 28 28 29 29 29 29 29 28 27 26 26 25 25 25 25 25 24 23 22 20 19 19 19 20 21 23 24 25 25 26 26 27 27 27 27
29 30 30 30 30 30 30 29 29 30 30 30 30 29 30 30 28 27 27 27 25 25 26 25 24 23 22 21 20 20 20 21 22 24 25 26 26 27 27 28 28 29
28 29 30 30 30 30 30 30 30 31 31 31 30 30 30 31 31 29 28 28 27 25 25 26 26 25 24 23 22 22 22 22 23 24 25 26 27 27 28 28 29 30
26 26 28 28 29 29 30 30 30 31 32 31 31 30 30 31 31 32 30 29 28 27 26 26 26 27 26 25 24 24 25 25 24 24 25 26 27 27 28 29 30 31
27 25 26 27 28 28 29 30 30 30 31 32 31 30 29 29 30 32 33 31 30 29 28 27 28 28 27 27 26 26 26 27 26 25 25 26 27 27 28 29 30 31
30 28 26 26 27 27 28 28 29 29 30 31 31 30 29 28 29 31 33 33 31 29 29 29 29 29 28 28 28 28 27 28 28 27 27 27 28 28 28 29 30 31
33 31 29 28 27 27 27 27 27 28 28 28 29 28 28 27 27 28 30 32 32 30 28 28 28 29 29 28 28 28 28 28 29 29 28 28 28 29 30 30 30 30
35 34 33 31 29 28 27 26 26 26 27 27 26 26 26 26 25 24 25 28 30 29 26 24 24 26 26 27 27 27 27 27 28 29 29 29 28 29 30 31 31 30
35 35 35 34 32 30 29 28 27 27 27 27 26 25 25 24 23 22 22 24 26 26 25 21 19 20 21 22 23 24 24 25 27 28 29 29 29 29 30 30 31 32
33 35 37 36 35 34 32 31 30 29 28 28 27 26 26 25 23 22 22 22 23 24 24 22 19 18 19 19 20 21 22 23 25 27 28 29 29 29 29 30 31 32
28 33 36 37 38 37 36 35 33 31 30 30 30 29 27 26 25 24 24 23 22 23 24 24 22 20 18 17 18 19 21 22 24 26 28 29 29 29 29 29 30 32
24 28 32 35 39 39 38 37 36 34 32 32 32 31 29 28 27 26 25 24 24 23 24 24 24 22 20 18 17 18 20 22 25 27 29 30 30 31 31 31 32 32
24 26 28 31 37 39 39 38 37 36 35 34 34 33 32 30 29 27 26 25 25 24 24 24 24 23 22 22 21 21 22 24 26 28 30 32 32 33 34 34 35 35
24 25 25 28 32 36 38 38 38 37 36 36 36 34 33 32 30 29 28 27 26 26 25 24 25 25 26 26 26 27 28 29 29 31 32 33 34 35 37 38 38 37
26 25 24 26 29 32 35 37 38 38 37 37 36 35 34 33 32 30 29 28 28 27 27 27 27 28 29 29 30 32 33 35 36 36 36 36 36 37 38 40 40 40
26 25 25 26 28 29 32 35 37 38 37 37 37 36 36 35 34 32 31 30 29 29 29 30 30 30 30 30 32 35 37 39 40 40 40 40 41 41 41 42 42 42

ECMWFNIL_700_spd_063.txt.gz
Wind_Speed
24 24 23 22 21 20 19 19 17 14 12 11 10 10 10 10 11 12 11 11 12 13 14 14 15 15 14 12 11 11 13 14 14 13 11 8 6 6 5 5 5 4
25 24 24 23 23 21 20 20 19 16 14 12 10 10 11 11 11 10 10 11 11 12 13 14 14 15 15 14 12 11 11 13 15 14 13 11 10 9 7 7 7 6
26 25 25 24 23 22 21 20 20 18 16 14 12 12 11 11 10 9 9 9 10 11 12 13 14 14 15 14 13 12 11 12 13 14 14 14 12 11 10 9 9 8
26 26 25 24 22 22 21 21 21 20 18 16 14 13 12 11 10 9 9 8 8 9 10 11 12 14 14 15 14 13 11 11 12 14 15 14 13 13 12 12 11 10
26 26 25 24 24 23 23 23 22 21 20 18 16 15 14 12 11 10 9 9 8 8 8 9 10 11 13 14 14 14 13 12 12 13 15 15 14 14 13 13 12 11
26 26 25 25 25 24 24 23 22 21 21 19 18 16 15 14 13 11 10 9 8 8 8 8 9 9 11 12 13 13 13 13 13 13 14 15 15 15 15 14 14 13
26 26 26 26 26 25 24 23 22 22 21 21 20 19 17 16 14 13 12 11 10 9 9 9 9 9 10 11 12 12 13 13 14 14 13 14 15 16 16 15 15 14
25 25 26 26 27 26 25 23 23 23 22 22 22 20 19 18 16 14 13 12 12 11 10 10 10 10 11 11 11 12 12 13 13 13 13 14 15 16 17 17 17 16
25 25 26 27 27 27 25 24 24 24 24 24 23 21 20 19 18 17 15 14 13 13 13 12 12 11 11 12 12 12 12 12 13 14 14 14 15 15 16 18 19 18
26 26 27 27 27 27 26 25 25 24 25 24 23 22 22 20 20 20 19 17 15 14 14 14 13 13 13 12 12 12 12 12 13 14 14 14 15 15 16 18 19 19
27 28 28 28 28 27 26 26 25 26 25 25 24 23 22 21 21 21 21 20 18 16 15 15 14 14 14 14 13 13 12 13 13 14 15 15 15 15 16 18 19 20
27 28 29 29 28 28 27 26 27 26 26 26 25 25 24 23 22 22 22 21 20 18 17 16 16 15 16 16 15 15 14 13 14 14 15 15 15 16 16 17 19 20
26 27 28 28 28 28 28 27 28 28 27 27 26 26 26 25 24 23 23 22 22 21 20 19 18 17 17 17 17 17 16 15 15 15 15 16 16 16 16 17 18 20
23 25 26 27 28 28 28 29 29 28 28 28 27 27 27 26 26 24 24 23 23 23 22 21 21 20 19 18 18 18 18 17 16 16 16 17 17 17 18 18 19 19
23 23 24 25 27 28 29 29 29 29 29 29 28 28 27 27 26 26 26 25 25 24 23 23 23 22 21 20 19 19 19 18 18 18 18 18 19 19 19 20 20 20
25 24 23 23 25 27 28 29 29 29 30 29 29 28 27 27 27 27 27 27 26 25 24 24 23 23 22 21 21 20 20 20 20 20 20 20 20 20 20 20 21 21
28 27 25 24 24 24 26 27 28 29 29 29 28 27 27 27 27 27 27 26 26 25 25 25 24 23 22 22 22 22 22 21 21 21 21 20 20 19 19 19 20 21
30 30 29 28 26 25 24 24 26 28 28 28 27 26 26 26 25 25 25 24 24 24 24 24 23 22 21 21 22 22 22 22 21 20 20 19 18 17 17 18 19 20
29 31 31 31 29 28 26 24 25 26 27 27 26 25 25 24 23 22 22 22 22 22 22 21 19 18 17 17 18 19 19 19 18 17 17 16 16 16 16 17 18 19
25 29 31 32 32 31 29 28 27 26 26 26 25 25 25 24 22 21 20 20 19 19 19 18 16 14 14 14 14 15 15 16 16 15 15 15 15 16 16 17 18 19
20 23 27 31 33 33 33 32 31 29 27 26 26 25 25 23 22 21 20 19 18 18 18 18 16 14 13 13 13 13 14 15 16 17 17 17 17 17 18 19 21 22
17 18 21 26 30 33 34 34 34 32 30 28 27 26 26 25 24 23 22 20 19 19 19 19 17 15 14 14 13 14 15 17 18 19 19 20 20 21 22 23 24 25
16 16 17 20 24 28 31 33 35 34 33 32 30 29 28 27 26 24 23 22 22 21 20 19 18 17 16 15 15 15 17 18 20 20 21 23 23 25 26 27 28 28
15 17 18 19 20 22 26 29 32 34 34 34 33 32 31 29 27 27 26 25 24 22 21 20 19 18 18 18 17 18 19 20 21 22 24 25 26 27 28 29 30 30
15 16 19 20 19 19 22 25 27 31 33 35 35 35 34 33 31 30 29 27 26 24 22 22 21 20 20 20 20 21 22 23 25 26 26 27 28 29 29 30 31 32
18 17 19 20 20 20 21 22 24 26 29 33 35 36 35 35 34 34 32 30 28 26 25 24 23 22 22 23 24 25 26 28 29 30 29 30 32 32 32 33 34 35

ECMWFNIL_700_spd_069.txt.gz
Wind_Speed
27 26 25 24 24 22 21 19 18 18 17 16 15 13 12 13 15 16 15 17 18 19 20 20 19 17 17 17 17 18 18 16 16 15 13 12 10 8 6 5 3 3
29 28 26 25 25 23 22 20 19 18 17 16 14 13 13 14 16 16 16 17 18 20 21 22 21 19 18 18 18 18 19 18 17 16 15 14 12 11 9 7 5 4
30 29 28 27 25 24 22 21 20 19 18 17 16 15 15 15 16 17 17 17 18 20 22 23 22 21 20 19 18 19 20 19 18 17 16 15 14 13 11 10 8 6
31 30 29 27 25 24 23 22 21 20 19 18 17 16 16 16 16 17 18 18 18 19 21 22 23 22 21 20 20 19 20 20 20 20 18 17 16 15 14 12 11 9
31 30 29 27 26 25 25 24 22 21 20 18 17 17 17 17 16 15 17 18 18 18 18 20 21 21 21 21 21 20 20 21 21 21 20 19 18 17 16 15 13 11
32 31 29 28 27 26 26 25 23 22 21 19 19 18 17 17 15 13 13 15 16 16 16 16 17 18 19 20 21 21 21 21 21 22 22 21 20 19 18 17 16 14
32 31 30 29 28 28 27 25 25 24 22 21 21 20 19 18 16 13 12 13 14 14 14 13 14 15 16 18 19 20 21 21 21 22 22 22 22 21 20 19 17 16
32 31 31 30 29 29 27 26 26 25 24 23 23 22 21 20 17 15 13 12 12 12 12 12 12 12 14 15 16 18 20 21 22 22 21 21 22 22 22 21 20 18
33 32 32 31 31 30 28 27 26 25 25 25 24 23 23 22 20 18 16 14 13 13 12 11 11 11 11 11 12 14 16 18 20 20 21 21 21 21 22 22 22 21
34 33 33 33 32 31 29 28 27 26 25 25 24 24 24 23 22 21 20 18 17 15 14 12 11 10 10 9 9 10 11 13 15 17 18 20 20 21 21 22 23 22
35 35 34 33 32 31 30 29 28 27 26 26 25 25 25 24 24 23 22 21 19 17 15 14 12 11 10 9 8 9 9 10 11 13 15 17 18 19 20 21 22 22
35 34 33 32 31 30 29 29 29 28 27 27 26 25 25 25 25 25 24 23 21 19 18 16 15 15 13 12 11 11 10 10 11 11 12 14 15 16 17 18 19 20
33 32 31 30 29 29 29 29 29 29 28 27 27 26 26 26 26 25 25 23 22 21 20 19 18 17 16 15 14 14 13 12 12 11 11 12 13 14 14 15 15 16
30 29 29 28 28 28 29 29 29 29 29 28 27 27 27 27 26 25 25 24 23 22 21 20 20 20 18 17 16 15 14 14 13 13 12 12 12 13 14 14 14 14
28 28 28 28 28 28 28 28 28 28 28 28 28 28 27 27 27 26 26 25 25 24 23 23 22 21 19 18 17 16 16 15 15 15 14 14 14 14 15 15 15 15
26 27 27 28 27 27 26 26 27 27 27 27 27 27 27 27 27 27 27 27 26 25 25 25 24 22 20 18 18 17 17 17 17 17 16 16 16 17 17 17 17 17
25 26 27 27 27 27 27 27 27 27 27 27 27 27 27 27 27 28 28 27 27 27 26 26 25 22 20 20 19 19 18 19 19 19 19 19 19 19 19 19 20 20
25 25 26 26 27 27 27 27 27 28 28 27 27 27 27 28 27 27 28 27 27 27 27 26 25 23 22 21 20 20 20 20 21 21 22 22 22 22 22 22 23 23
28 28 27 27 27 27 27 28 28 29 28 28 28 28 28 28 28 28 28 27 27 27 26 26 25 23 23 22 22 21 21 22 23 23 24 24 24 25 24 24 24 23
31 31 30 29 28 27 28 28 29 29 29 29 29 29 29 29 28 29 28 28 28 27 27 26 25 24 23 23 22 22 22 23 24 25 25 26 26 26 25 24 23 23
32 32 31 31 30 30 30 29 28 28 28 28 29 29 29 28 29 29 28 28 28 28 27 26 25 24 23 22 22 22 22 23 25 26 27 27 26 25 23 21 20 20
31 32 33 32 32 32 32 31 30 29 28 28 28 28 28 28 28 28 28 28 28 27 26 25 23 22 21 21 21 21 21 24 26 27 27 26 23 21 19 18 18 17
27 29 31 32 34 34 35 34 33 32 30 29 28 28 27 26 26 26 26 26 26 26 25 23 21 20 20 20 20 21 23 25 25 25 25 23 20 18 17 17 16 16
24 26 28 30 32 34 35 36 36 35 34 32 31 30 28 27 26 25 25 25 25 24 24 22 20 19 20 21 22 22 23 24 23 23 23 21 19 17 17 17 17 18
22 23 25 28 30 31 33 34 35 36 35 35 35 33 32 30 28 27 26 25 25 24 23 22 21 21 21 22 22 22 22 22 22 22 22 21 19 19 19 20 21 21
20 21 22 24 26 28 29 31 32 33 34 35 36 36 35 34 33 31 30 28 27 26 24 23 22 22 23 23 23 23 22 22 22 23 23 22 21 22 22 23 24 25

ECMWFNIL_700_spd_072.txt.gz
Wind_Speed
28 27 26 25 24 24 24 23 23 23 22 21 20 18 16 15 15 16 15 14 14 15 17 18 17 17 16 16 16 16 15 14 13 12 11 10 9 7 6 5 4 4
29 28 27 27 26 25 24 23 22 21 20 20 19 18 17 16 16 16 16 15 15 15 17 19 19 19 18 17 17 17 17 16 15 15 13 12 11 9 8 6 5 4
30 29 29 28 27 25 24 22 21 21 20 20 20 18 17 17 16 16 16 16 16 16 18 20 21 21 21 19 18 19 19 18 18 17 16 15 13 12 10 9 7 5
32 31 30 28 27 26 25 24 22 21 21 20 19 19 18 18 17 17 17 18 18 18 19 20 22 23 22 21 20 20 20 20 19 19 18 17 16 14 13 12 10 8
32 32 31 29 28 27 27 26 23 22 21 21 20 20 19 18 18 17 17 18 18 19 19 21 22 23 23 23 22 21 21 21 21 20 19 18 18 16 15 14 12 11
33 32 32 30 29 29 28 27 24 23 22 22 22 21 20 19 18 17 16 17 17 18 19 19 20 22 23 24 23 22 22 22 22 22 21 20 19 19 18 17 15 13
33 33 32 31 31 30 29 28 26 25 24 24 23 22 21 20 18 16 15 15 16 16 17 16 17 19 21 23 24 23 23 22 22 23 22 21 21 20 19 19 17 16
33 33 33 32 32 31 30 29 28 27 26 26 25 24 22 21 18 16 14 14 14 15 15 15 14 15 18 21 23 23 23 23 23 23 22 22 22 22 21 20 20 18
33 33 34 33 33 32 31 30 29 28 28 27 26 25 24 22 20 17 15 14 14 14 14 14 14 14 16 17 19 20 22 22 23 23 22 22 22 22 22 22 22 21
34 34 34 34 33 32 31 30 29 29 28 27 26 26 25 24 22 20 18 17 16 15 15 14 13 14 14 14 15 16 18 20 22 23 22 22 21 21 21 23 23 22
35 35 35 35 34 33 32 31 30 29 28 28 27 27 26 25 24 22 21 19 18 16 15 14 14 14 13 13 13 13 14 16 18 20 20 21 21 21 21 22 23 22
36 36 36 35 34 33 32 31 30 30 29 28 28 27 27 27 26 25 23 21 19 18 17 16 16 15 15 14 13 13 13 14 14 15 16 17 18 18 20 21 22 22
35 35 35 35 34 33 32 32 31 30 29 29 28 28 28 27 27 26 25 23 21 20 19 19 18 18 17 16 15 14 14 13 13 13 13 14 14 15 16 18 19 19
33 33 34 33 33 33 33 33 32 31 30 29 29 28 28 27 28 27 26 25 23 22 21 21 21 20 18 17 16 15 14 13 13 13 13 13 13 14 15 15 16 16
30 31 32 32 33 33 33 33 32 32 31 31 30 29 28 28 28 28 28 27 26 25 24 23 23 21 20 18 17 16 15 15 14 14 14 14 14 14 15 15 15 15
28 29 30 31 32 32 32 32 31 31 32 31 31 29 29 29 29 28 28 28 28 27 26 26 24 23 21 20 19 18 18 18 17 17 17 16 16 16 16 16 16 16
27 28 29 29 30 30 30 30 30 30 31 31 31 30 30 30 29 29 29 28 28 28 28 27 26 24 22 22 21 20 20 20 19 19 19 19 19 18 18 17 18 18
25 25 26 27 27 27 27 27 28 29 29 29 30 30 30 30 29 29 29 28 28 28 28 27 26 25 24 24 23 22 21 21 21 21 21 21 20 20 20 19 20 20
23 23 24 24 25 25 25 26 27 28 28 28 28 29 29 30 29 29 29 29 28 28 27 26 25 25 25 25 24 24 24 24 24 23 23 23 23 22 22 22 22 22
23 23 24 24 24 25 25 26 27 27 27 28 28 28 29 29 29 29 29 29 28 27 27 26 25 25 25 25 25 25 25 26 26 26 26 25 25 24 24 24 23 24
27 26 26 25 25 26 26 27 27 27 27 28 28 29 29 28 28 28 28 28 28 28 28 27 26 26 26 26 26 26 27 28 28 28 28 28 27 26 26 25 25 26
30 30 29 29 28 28 28 27 27 26 26 27 27 28 28 28 28 28 28 27 28 28 29 27 26 27 27 27 27 28 29 30 30 29 30 30 29 28 27 26 26 26
31 31 31 31 31 31 31 30 28 27 27 26 27 26 26 26 26 27 27 27 28 29 28 27 27 27 28 28 28 30 31 31 31 30 31 31 30 29 28 27 25 24
28 29 29 30 31 31 31 31 31 30 29 29 28 27 26 25 25 26 26 27 27 28 28 28 27 27 28 28 28 30 31 31 30 30 31 31 30 29 28 26 23 21
24 25 26 27 29 29 30 31 31 31 32 32 31 30 29 28 27 26 26 26 26 26 27 27 27 26 27 27 28 29 30 30 30 31 31 30 29 27 26 24 21 20
21 22 22 24 25 26 27 29 30 31 32 33 33 33 32 31 30 29 28 27 27 26 26 26 26 25 26 27 27 28 29 30 31 31 30 28 27 25 24 22 21 20

ECMWFNIL_700_spd_075.txt.gz
Wind_Speed
28 28 27 27 26 25 24 25 25 25 25 24 22 20 18 17 16 15 15 14 14 13 14 15 15 14 13 13 13 12 12 12 12 11 9 8 7 6 5 5 6 6
29 29 28 28 27 26 25 25 26 26 26 25 24 21 20 18 17 17 16 16 16 16 16 16 17 16 15 15 14 14 14 14 14 13 12 10 9 7 6 5 5 4
30 29 29 28 27 26 26 26 26 26 27 26 25 23 21 19 18 17 17 17 18 18 18 18 19 19 18 17 16 16 16 15 15 15 14 13 11 10 8 7 6 5
30 30 29 28 27 26 26 27 27 27 27 26 25 23 22 20 19 19 18 19 19 19 19 19 20 21 20 20 19 18 18 17 17 17 16 15 14 12 11 10 8 7
31 30 30 29 28 28 27 27 27 26 25 25 24 23 22 21 20 19 19 19 19 20 20 21 21 22 22 22 21 20 20 19 19 19 18 17 16 15 14 13 11 10
32 32 31 30 29 29 28 27 26 25 25 24 24 23 23 22 21 20 19 19 19 20 21 21 22 23 23 24 23 22 21 21 21 21 19 19 19 18 17 15 14 13
33 32 32 32 31 30 29 28 27 26 25 25 24 24 24 23 22 21 19 18 19 19 20 21 21 22 23 25 25 24 23 22 23 22 21 20 20 20 19 18 17 16
33 33 33 33 33 32 31 29 28 27 26 26 25 25 24 24 23 21 20 18 18 18 19 19 20 21 22 24 25 25 25 24 23 23 23 22 22 21 21 20 19 19
33 33 33 34 34 33 32 31 30 29 28 27 26 26 25 24 24 22 20 19 18 18 18 19 19 20 21 23 24 25 26 25 24 24 24 24 23 23 22 22 22 21
34 34 34 34 34 34 33 32 31 30 29 28 27 27 27 26 25 23 21 20 19 18 18 18 19 19 20 21 22 24 25 25 25 25 24 24 24 24 24 24 24 23
34 34 34 34 34 33 33 33 32 31 30 29 29 28 28 27 26 25 23 21 19 18 18 18 18 19 20 20 20 21 23 24 25 25 25 24 23 23 24 24 24 24
34 35 34 33 33 33 33 33 33 32 30 29 29 28 28 28 28 26 24 22 20 19 18 18 18 18 19 19 19 19 20 22 23 24 24 23 23 22 22 22 23 23
33 33 33 32 32 32 33 33 33 32 31 30 29 29 29 28 28 27 26 24 22 20 20 19 19 19 19 18 18 18 19 19 20 21 21 21 21 21 21 21 21 22
31 31 32 32 32 32 32 33 32 31 31 30 30 29 29 28 28 28 27 26 24 22 21 21 21 20 19 19 18 18 17 17 17 17 18 18 18 18 19 19 19 20
29 30 30 31 31 32 32 32 32 31 31 31 30 30 29 29 28 28 28 27 26 24 24 23 23 22 21 20 19 18 17 17 17 16 16 16 16 17 17 17 17 18
26 27 29 30 31 31 32 32 32 31 31 30 30 30 29 29 29 29 29 28 27 26 26 25 24 23 22 21 21 20 19 19 18 18 18 18 18 18 18 18 18 18
26 26 28 29 29 30 31 31 31 31 31 30 30 30 30 29 29 29 29 28 29 28 28 27 25 23 23 23 23 22 21 21 20 20 20 20 19 19 19 19 19 19
28 27 27 27 28 28 29 29 30 30 30 30 30 30 30 30 30 30 29 29 29 29 28 27 25 24 24 25 25 24 23 22 22 22 21 21 20 20 20 20 21 21
29 27 26 26 26 27 27 27 28 28 28 28 29 29 29 30 30 30 30 30 29 29 28 28 26 25 25 25 26 25 25 24 24 23 23 22 22 22 22 22 22 22
29 27 26 25 25 25 25 25 26 26 26 26 27 28 29 29 29 30 30 30 29 29 28 28 27 26 26 26 26 27 27 27 27 26 26 25 25 24 24 24 23 24
27 26 25 24 24 24 25 25 25 24 25 25 25 26 26 27 27 28 28 28 28 28 28 28 27 26 26 27 27 28 29 30 30 29 28 28 27 26 26 25 25 26
25 25 24 24 24 24 25 25 25 25 24 24 24 25 25 25 26 26 26 26 26 27 27 27 26 26 27 27 28 29 30 32 32 31 31 30 29 28 28 27 27 28
25 24 24 24 24 24 24 24 24 24 24 24 24 25 25 25 25 25 25 24 25 26 26 25 25 25 26 27 28 30 31 32 33 32 32 32 31 31 30 30 29 29
28 27 26 26 25 24 24 24 23 23 23 23 24 24 24 24 24 25 25 25 25 26 26 26 25 26 27 28 29 30 32 33 33 33 34 33 32 32 32 31 31 30
32 31 30 29 28 27 27 26 26 26 25 25 26 26 25 24 24 24 25 25 25 26 26 26 26 27 28 29 29 30 32 33 34 34 34 34 33 33 33 33 32 31
34 33 32 31 30 30 30 29 29 29 29 29 29 29 29 28 27 27 26 25 25 25 25 25 26 26 27 28 29 30 32 33 34 35 35 34 33 34 34 33 32 31

ECMWFNIL_700_spd_078.txt.gz
Wind_Speed
28 28 28 28 27 27 26 26 25 25 24 23 22 21 20 19 18 17 16 16 16 15 15 15 14 13 12 12 13 13 14 12 11 10 8 8 8 8 8 8 8 8
29 29 29 28 28 28 27 26 25 24 24 24 24 23 22 21 20 20 19 18 18 17 16 16 16 15 14 14 14 14 15 15 14 12 10 9 9 8 8 7 7 7
30 29 29 29 28 28 27 26 25 25 25 25 25 24 23 22 22 22 21 20 19 19 18 17 17 17 17 16 15 15 16 16 16 15 13 12 10 9 8 8 7 6
30 30 29 29 28 28 28 27 26 26 26 26 26 25 24 24 23 22 22 21 20 20 19 19 19 18 18 18 17 16 17 17 17 17 16 15 13 12 11 10 8 7
30 30 30 29 29 29 29 29 27 27 26 26 26 26 25 24 23 23 22 21 21 21 21 21 20 20 20 20 19 18 18 18 18 18 18 18 16 15 14 12 11 10
31 31 30 30 30 30 30 29 28 27 27 27 27 27 26 25 24 23 23 21 21 21 22 22 22 22 22 22 21 20 20 20 20 19 19 19 19 18 17 15 14 12
32 32 31 30 31 31 30 29 28 28 28 28 27 27 26 25 25 24 23 21 21 21 22 22 22 22 23 23 23 22 22 21 21 21 20 20 21 20 19 18 17 15
33 32 32 31 31 31 30 30 29 29 29 28 27 26 26 26 25 24 23 22 21 21 21 22 22 22 23 24 25 24 23 23 23 22 22 22 22 22 22 21 20 19
33 33 33 32 32 32 31 30 30 29 29 28 27 26 26 26 26 25 24 22 22 21 21 21 22 22 23 24 25 25 25 25 24 24 23 23 23 23 24 24 23 22
32 33 33 33 33 32 31 31 31 30 29 28 28 27 27 27 26 26 25 23 22 21 20 21 21 21 22 23 24 25 26 26 26 25 25 25 25 25 25 25 25 24
30 32 33 33 33 33 32 32 32 31 30 29 28 28 28 27 27 26 25 24 22 21 20 20 20 20 21 22 22 24 25 27 27 27 26 26 26 27 27 27 26 25
29 30 32 32 33 33 33 33 33 32 30 29 29 29 28 28 28 27 26 24 23 22 21 20 20 20 21 21 22 23 24 25 27 28 27 28 28 28 28 28 27 27
28 29 30 31 32 32 33 34 34 33 31 30 30 29 29 28 28 28 26 25 23 23 21 20 21 21 21 21 22 22 22 23 25 26 28 28 28 28 28 28 27 27
26 27 28 29 31 32 32 33 34 33 32 31 30 30 29 28 28 28 27 26 25 24 22 22 22 22 21 21 22 22 22 22 23 24 26 27 28 27 27 26 26 26
25 26 28 29 30 31 32 33 33 33 32 31 31 30 28 27 27 28 28 27 26 25 24 23 23 23 22 21 21 21 21 21 22 22 24 25 26 26 25 25 25 25
24 25 26 28 29 30 32 32 32 32 32 32 31 30 29 28 28 28 28 27 27 26 25 25 24 23 22 20 20 21 21 21 21 21 22 22 23 23 23 23 23 23
24 24 25 26 27 28 30 31 31 32 32 31 31 30 30 29 29 28 28 28 27 27 26 26 25 24 23 21 21 21 22 22 21 21 21 21 21 21 21 21 21 22
24 24 24 25 26 27 28 29 30 30 31 30 30 30 30 29 29 29 28 27 27 27 27 26 25 24 24 23 23 22 23 23 23 22 22 21 21 21 21 21 21 21
25 24 24 24 25 26 27 28 29 29 29 29 29 29 29 29 29 29 28 28 28 28 27 25 25 24 24 24 24 24 25 25 25 24 24 23 23 22 22 22 22 22
28 25 24 24 24 25 26 27 27 28 28 29 29 29 29 29 29 29 28 28 28 28 26 25 25 24 23 24 25 26 27 27 27 27 26 26 25 25 24 24 23 23
30 28 26 25 24 24 25 26 27 27 28 28 28 28 29 29 29 29 29 29 29 28 27 27 26 25 23 24 25 26 28 29 29 30 29 28 28 27 27 26 25 25
31 30 28 27 26 25 25 26 26 27 27 27 27 28 29 29 30 30 30 30 29 29 29 28 27 26 25 24 25 26 28 30 31 32 32 31 30 29 29 28 27 27
31 31 30 29 28 27 26 26 26 26 26 27 27 28 29 29 29 29 29 29 28 29 29 28 27 26 26 26 26 27 29 30 32 33 33 32 31 30 30 30 29 29
30 31 31 31 29 28 27 26 26 26 26 26 27 27 28 27 27 27 28 27 27 27 27 27 26 26 26 26 27 29 30 31 32 33 34 34 32 32 32 32 31 30
29 30 31 31 30 28 28 27 27 26 26 26 26 26 26 26 26 26 26 26 26 26 26 26 26 27 27 27 28 29 30 31 32 33 34 34 33 33 33 32 31 30
28 29 29 30 29 29 28 28 27 26 26 26 26 26 26 25 25 26 26 26 26 26 27 27 27 27 27 27 28 29 30 31 33 34 34 33 33 33 33 33 32 31

ECMWFNIL_700_spd_081.txt.gz
Wind_Speed
28 28 28 27 27 26 25 24 24 23 23 21 20 20 19 19 18 16 15 14 13 13 13 13 12 12 11 12 12 12 11 10 9 8 7 7 7 7 8 8 9 10
27 27 28 28 27 26 26 25 24 25 24 22 22 21 20 20 19 18 17 16 15 14 14 14 14 13 13 13 14 14 13 12 11 10 9 8 8 7 7 7 7 8
27 27 27 27 27 26 26 25 25 25 25 24 24 23 21 20 20 20 19 18 17 15 15 15 15 15 14 14 14 15 15 14 13 12 11 10 9 8 8 7 7 7
27 27 27 27 27 26 26 26 26 26 26 25 25 24 22 21 21 22 21 20 19 17 16 16 16 16 16 16 15 16 16 16 16 15 13 12 11 10 10 9 8 8
27 27 27 27 27 27 26 27 27 26 26 25 25 24 23 23 22 22 22 21 20 18 18 17 17 17 17 17 17 17 17 17 17 17 16 15 14 13 12 11 10 10
27 27 27 27 27 27 27 28 27 26 26 26 25 25 24 23 23 23 22 21 20 20 20 19 19 19 19 18 18 19 18 18 17 17 17 17 16 16 14 13 12 12
28 28 27 27 27 28 28 28 28 27 27 27 26 25 25 23 23 24 24 22 21 21 21 20 20 20 20 20 19 19 20 19 18 18 18 18 18 18 17 16 15 14
29 29 28 27 27 28 28 28 28 28 28 28 27 26 25 23 22 24 24 23 22 22 22 21 21 21 21 21 20 20 20 21 20 19 19 19 19 19 19 19 18 17
30 30 29 28 28 27 28 28 28 28 28 28 27 26 25 23 22 23 25 24 23 23 22 22 21 21 21 21 20 19 20 20 21 21 20 20 20 20 21 21 21 20
30 30 30 30 29 28 28 28 28 28 29 28 27 27 25 23 23 23 24 24 24 24 23 22 21 20 20 21 20 19 19 20 21 22 21 21 22 22 22 23 22 22
29 30 30 30 30 29 29 28 28 28 29 29 28 27 26 24 23 24 25 25 24 24 23 21 20 20 20 20 20 19 19 20 21 22 22 23 23 23 24 24 24 24
27 28 29 29 30 30 30 30 29 28 28 29 29 28 27 25 24 24 24 24 23 23 22 21 20 20 19 20 20 20 20 20 22 23 23 24 24 25 25 25 26 25
26 26 27 28 29 30 30 30 30 29 27 28 28 29 28 26 24 24 24 23 22 22 22 21 20 20 20 20 20 20 20 20 21 22 23 23 25 26 26 26 27 27
26 26 26 26 27 29 30 31 31 30 29 29 28 28 28 26 25 24 24 23 23 22 22 22 21 21 20 20 20 21 20 20 20 21 22 22 23 25 27 27 27 27
25 26 27 27 27 28 30 30 30 30 31 30 29 28 28 26 25 25 24 24 23 23 23 23 22 21 21 20 20 20 20 20 20 20 21 21 22 23 25 27 28 27
26 27 28 28 28 28 29 30 30 30 30 30 29 28 28 27 26 26 25 24 24 24 23 23 22 21 20 20 19 19 19 20 20 20 20 21 21 21 22 24 26 26
26 27 27 27 27 28 28 29 29 30 30 30 29 29 29 29 28 27 26 26 25 25 24 23 22 21 21 20 19 19 20 20 20 19 20 21 21 21 21 21 23 24
26 26 26 27 27 27 28 29 29 30 30 30 29 29 29 30 29 28 27 27 26 25 25 24 23 22 21 20 20 20 20 20 21 20 19 20 20 20 20 20 21 22
25 26 26 26 26 26 27 28 30 30 30 30 30 29 29 30 29 28 28 28 27 26 25 24 23 23 21 20 21 21 22 22 22 21 20 20 20 20 20 20 20 21
26 26 26 26 26 26 27 28 30 30 30 30 30 30 30 29 29 29 28 28 28 27 26 24 24 24 22 21 21 22 23 24 24 23 22 21 21 21 21 21 20 20
27 26 27 27 26 26 27 28 29 30 30 30 30 30 30 29 29 29 29 28 28 28 27 25 25 25 23 21 21 22 23 25 26 26 25 23 22 22 22 22 21 21
29 28 28 28 27 27 27 28 29 30 30 30 30 30 30 29 30 29 29 28 28 28 27 26 25 26 24 21 21 22 24 25 27 28 28 26 24 23 23 23 23 22
32 29 29 29 29 27 27 27 28 29 29 30 30 30 30 30 30 30 29 29 28 28 28 27 27 26 25 23 22 23 25 26 27 28 29 28 26 25 25 25 25 24
35 31 30 31 30 28 27 26 27 28 29 29 29 30 30 30 29 30 30 29 29 29 29 28 28 27 26 25 24 24 25 26 27 28 29 29 28 27 27 27 27 26
37 33 30 30 30 29 27 26 27 27 28 28 29 29 29 30 30 30 30 31 30 30 30 30 29 29 28 26 26 26 26 27 28 30 30 30 29 28 28 28 28 28
39 34 31 30 30 30 29 28 27 27 28 28 28 29 29 30 30 30 31 31 30 30 30 30 29 29 29 27 26 26 27 28 30 31 31 31 30 29 29 29 29 28

ECMWFNIL_700_spd_084.txt.gz
Wind_Speed
25 24 23 23 22 21 20 19 19 18 17 16 15 14 14 14 13 13 11 10 10 10 10 11 10 9 9 8 8 7 7 6 6 7 7 7 8 9 9 11 11 10
25 25 24 24 23 22 21 20 19 19 18 17 16 16 15 15 15 15 13 12 12 11 11 12 11 11 10 10 9 9 8 8 6 6 7 7 7 8 9 10 10 11
24 24 25 24 23 23 22 21 20 19 19 18 18 17 17 16 16 16 15 14 14 13 12 12 12 12 11 11 11 10 10 10 8 7 7 7 7 7 7 8 9 10
23 23 24 23 23 23 23 22 22 21 21 20 20 19 18 17 17 17 17 17 16 15 13 13 13 13 12 12 12 12 12 11 10 9 9 8 7 7 7 7 7 8
22 22 22 22 23 23 23 24 23 22 22 22 22 21 19 19 18 18 18 18 17 16 15 14 14 13 13 13 13 13 13 13 12 11 11 10 9 9 8 7 7 7
22 22 22 22 23 24 24 24 23 23 23 23 23 22 21 20 19 18 19 19 18 17 17 16 15 14 14 14 13 14 14 14 14 13 13 13 12 11 10 9 9 8
23 22 22 22 23 24 24 23 23 23 23 23 24 23 22 21 19 18 19 19 19 19 19 18 17 16 15 14 14 14 15 16 15 14 14 14 14 14 13 12 11 11
23 23 23 22 23 24 23 23 23 23 23 23 24 24 23 22 20 18 19 20 20 20 20 19 18 17 16 15 14 14 15 17 17 16 15 15 15 15 15 14 14 13
24 24 24 23 23 23 23 23 23 23 23 24 24 24 23 22 20 19 19 20 21 21 20 20 19 18 17 16 15 15 15 16 17 17 17 17 16 16 16 17 16 15
26 25 25 25 24 23 22 22 23 23 24 24 24 24 23 21 20 19 19 19 21 21 21 21 19 18 17 17 16 15 16 16 17 18 19 19 18 18 18 18 18 17
26 27 27 26 26 24 23 23 23 24 24 24 24 24 23 22 20 20 19 19 20 21 21 21 20 18 17 18 17 15 15 16 17 18 19 19 20 20 20 20 20 19
25 27 27 27 26 25 24 24 24 24 25 24 24 24 24 23 21 20 20 19 19 20 21 20 20 19 18 17 18 16 15 16 17 18 18 19 20 21 22 22 22 21
24 25 26 27 27 26 26 25 25 25 25 25 24 25 25 25 23 21 20 20 19 20 21 20 20 19 18 17 17 17 15 15 16 17 17 18 19 21 22 22 23 23
22 22 24 25 26 27 27 26 26 26 26 25 24 25 26 26 25 22 22 21 20 21 21 21 20 19 18 18 17 17 16 15 15 16 16 16 17 18 20 22 23 23
21 22 23 24 25 27 28 27 27 27 27 26 25 25 26 27 26 24 23 23 22 21 22 21 21 20 19 18 17 17 16 15 15 15 15 15 15 16 17 19 21 22
21 21 23 24 24 26 27 28 28 27 28 28 26 25 25 26 26 25 24 24 23 22 22 23 22 20 19 18 16 16 16 16 15 15 15 16 16 16 16 17 18 19
22 22 22 23 24 25 26 27 27 28 29 29 27 25 25 26 26 26 25 24 24 23 23 23 22 20 19 18 16 16 16 17 16 15 15 16 16 16 16 16 17 17
23 23 23 23 23 24 25 26 27 27 28 30 29 26 25 27 27 27 26 25 24 24 24 23 22 20 19 18 17 17 17 17 18 17 16 16 16 17 16 16 16 17
25 24 24 23 23 23 24 25 27 28 28 29 30 27 26 27 28 28 27 26 25 25 24 23 22 21 20 19 18 18 18 18 19 19 18 17 16 17 17 17 16 16
26 25 25 24 24 23 23 25 27 28 28 28 30 29 28 27 28 28 28 27 27 26 24 23 22 22 21 20 19 18 18 19 20 21 21 19 18 17 18 18 17 16
28 26 26 25 25 25 24 25 26 28 28 29 30 30 29 27 28 29 29 28 27 27 26 24 24 23 21 20 19 18 18 19 21 22 23 22 21 19 18 18 17 17
30 28 27 26 26 26 26 25 26 27 28 29 30 30 30 28 28 29 30 29 28 28 28 26 24 24 23 22 20 19 19 21 22 23 24 24 23 21 20 19 18 18
33 31 29 28 27 28 28 27 26 27 28 29 29 30 30 29 29 30 30 30 29 28 28 27 26 25 24 23 21 20 21 22 23 23 24 25 24 22 22 21 20 19
35 34 33 30 29 28 29 28 27 27 28 28 28 29 30 30 29 29 30 30 30 29 29 28 27 26 24 23 22 22 22 23 23 24 25 25 25 24 23 23 22 20
37 37 36 34 31 29 29 29 28 28 28 28 28 29 30 30 29 29 30 31 30 30 29 28 28 27 26 25 24 24 24 24 24 25 26 26 25 25 24 24 23 22
38 37 38 37 34 31 30 30 30 29 28 28 28 28 29 30 30 30 30 31 31 30 30 29 28 28 28 26 25 25 25 25 25 26 27 27 26 26 26 26 25 23

ECMWFNIL_700_spd_087.txt.gz
Wind_Speed
23 22 22 21 21 21 20 19 18 18 17 17 16 16 15 14 13 11 11 10 10 11 11 10 9 8 8 7 8 8 8 8 8 8 9 9 10 9 9 10 9 8
24 23 23 22 21 21 20 19 18 17 17 16 15 15 16 15 14 13 12 11 10 11 11 11 11 10 9 8 9 9 9 9 8 8 8 8 8 9 8 9 10 10
25 24 23 22 21 20 19 19 19 17 16 16 16 15 15 15 15 15 14 13 12 11 11 12 12 12 11 10 10 10 10 10 9 8 8 8 7 8 9 8 9 11
26 25 24 23 22 21 20 20 19 19 17 17 16 15 15 15 15 15 15 15 14 13 12 12 13 13 12 11 11 11 11 11 10 10 9 8 8 8 9 8 8 9
25 25 25 24 23 23 23 22 21 20 19 18 17 16 16 16 15 15 15 16 16 14 14 13 14 14 14 13 12 12 12 12 11 11 10 10 9 9 9 9 9 8
24 25 25 25 24 24 24 23 22 21 21 19 19 18 17 17 16 15 15 15 16 16 15 15 15 15 15 14 14 13 13 13 13 13 12 11 11 10 10 10 9 9
24 24 24 25 25 25 24 24 23 22 22 21 21 20 19 18 16 16 16 15 16 17 17 16 16 15 15 15 15 15 14 14 14 14 13 13 12 12 11 11 10 10
24 24 24 25 25 25 25 25 24 23 22 22 22 21 20 18 16 15 16 17 16 16 17 17 16 16 16 16 16 16 15 15 14 14 14 14 14 13 12 12 12 12
25 25 25 25 26 26 25 25 25 24 23 23 22 22 21 19 17 15 16 17 17 16 16 17 17 17 17 17 16 16 16 15 15 15 15 15 15 15 14 15 14 14
27 26 26 26 26 26 26 25 25 24 24 23 23 22 21 20 18 16 16 17 18 17 16 16 17 17 17 16 16 16 16 16 16 16 17 17 16 16 16 16 16 15
29 28 28 27 27 26 26 25 25 25 24 24 24 23 22 20 19 18 17 18 18 18 17 17 16 16 16 16 15 16 16 16 17 17 18 18 19 19 18 18 17 17
30 30 29 29 28 26 26 25 25 25 25 25 25 24 23 22 21 20 19 18 18 18 18 17 17 17 17 16 15 16 16 16 17 17 18 19 20 20 20 19 19 18
29 29 29 29 28 27 26 26 25 25 25 25 25 25 24 23 22 21 20 19 18 19 18 18 18 18 18 18 17 16 16 16 17 17 17 18 19 20 21 21 20 20
26 27 28 29 29 29 28 27 27 26 26 25 25 25 25 24 23 22 21 20 20 20 20 20 20 19 19 19 18 17 16 16 16 16 16 16 17 19 20 21 21 21
24 25 27 28 29 30 30 29 28 28 27 26 26 25 25 24 23 23 22 22 21 22 22 22 22 21 20 19 18 17 17 16 15 15 15 15 16 16 18 19 20 20
23 24 25 27 28 29 29 29 29 29 28 27 26 26 25 25 24 23 23 23 22 23 23 23 23 22 21 19 19 18 17 16 16 15 15 15 15 15 15 16 17 17
23 24 25 26 26 27 28 28 29 29 29 29 28 27 26 26 25 24 23 22 23 23 23 24 24 22 21 20 19 19 19 18 17 16 15 15 14 14 14 14 14 15
25 24 25 25 25 26 26 27 27 28 29 29 29 28 27 26 27 26 24 22 22 23 24 24 24 23 21 21 20 20 20 19 18 17 16 16 15 14 14 14 14 14
27 26 26 25 25 25 25 26 27 28 28 29 28 27 27 27 27 27 25 23 23 23 23 24 24 23 22 22 21 21 20 20 20 19 18 16 16 15 14 14 14 14
29 28 28 26 25 25 25 26 27 27 27 28 28 27 27 27 28 27 27 25 24 23 23 24 24 24 23 22 22 21 21 21 21 20 19 18 17 16 16 15 14 14
31 30 29 28 27 26 26 26 27 27 27 27 28 27 26 26 27 28 28 27 25 24 23 24 24 24 23 22 22 22 21 22 22 21 21 20 19 18 17 16 15 15
32 32 31 30 29 28 28 27 26 27 27 26 27 27 26 26 26 28 28 28 27 25 24 24 24 24 23 23 22 22 22 22 23 22 22 21 20 19 18 17 16 16
34 33 32 31 30 30 29 28 27 27 26 27 27 27 27 26 26 27 28 28 29 28 25 24 23 23 24 24 23 22 22 23 23 23 22 21 20 20 19 18 17 16
35 35 34 32 31 30 30 28 27 27 27 27 27 27 27 26 25 25 26 27 29 29 28 25 24 23 24 24 24 24 24 24 24 24 23 22 21 21 21 20 18 17
34 35 35 34 33 32 30 29 28 28 27 28 28 28 27 26 26 26 26 27 28 29 29 28 26 24 24 24 24 25 25 25 25 25 25 23 23 22 22 21 20 18
34 35 35 36 36 34 32 31 30 29 29 29 29 29 28 28 27 26 26 26 27 29 30 29 28 26 25 24 24 25 26 26 27 27 26 25 23 23 22 22 21 20

ECMWFNIL_700_spd_093.txt.gz
Wind_Speed
25 24 23 22 22 22 20 18 17 16 15 14 13 11 10 11 11 10 10 12 12 11 10 10 9 8 7 6 6 6 6 6 7 8 8 8 9 9 8 8 8 8
25 25 24 23 23 22 21 20 18 17 16 14 13 12 13 13 12 11 11 11 11 11 10 9 9 8 8 7 6 6 6 6 6 7 8 8 8 9 8 8 7 6
24 25 25 24 24 23 21 20 20 19 18 16 15 14 15 14 13 12 12 11 11 11 11 10 9 9 9 8 7 7 6 6 6 7 8 8 8 8 8 8 7 7
24 24 25 24 24 23 22 22 22 21 20 19 17 16 16 16 15 14 13 12 12 12 12 12 11 10 10 9 9 8 8 7 7 7 8 9 9 8 8 8 7 8
24 23 23 24 25 25 24 24 23 23 22 21 19 18 18 17 17 16 15 13 12 12 13 13 13 12 11 11 10 11 10 8 8 7 7 8 8 9 9 9 8 9
25 24 24 24 25 26 26 24 23 23 23 22 21 20 19 19 18 17 16 15 14 13 13 13 13 13 13 13 12 12 12 11 10 8 8 8 8 9 10 10 10 10
27 26 25 25 26 27 26 25 23 22 22 22 22 22 21 20 19 17 17 16 16 15 14 14 13 13 14 14 14 13 13 13 12 11 10 9 9 9 9 10 11 11
27 27 27 26 27 27 26 25 24 22 22 23 23 23 22 22 20 18 17 17 17 17 16 16 15 14 15 15 15 15 15 14 14 13 12 11 10 9 9 10 11 11
28 28 28 28 28 28 27 26 25 23 23 23 23 23 23 22 21 20 19 18 18 17 17 17 17 16 16 16 16 16 16 16 16 15 15 14 13 11 11 11 11 12
30 30 30 30 30 29 28 27 26 25 24 24 23 23 23 23 22 21 21 20 20 19 19 19 19 18 18 18 18 18 18 18 18 18 17 17 16 15 15 14 14 13
32 31 32 32 31 30 29 28 28 27 27 26 25 25 24 24 23 23 23 22 21 20 20 20 20 20 20 20 19 19 19 19 20 20 19 19 19 19 18 18 17 17
33 33 33 32 32 31 30 29 29 29 29 28 27 27 26 26 26 25 25 24 23 22 21 21 21 22 22 22 21 21 21 21 22 21 21 21 21 21 21 21 21 20
35 34 34 33 32 32 31 31 31 31 30 30 29 29 29 29 28 27 27 26 25 24 23 22 22 23 23 23 23 23 23 23 23 23 23 23 22 23 23 24 24 23
36 35 35 34 33 33 33 33 32 32 32 31 31 31 31 31 30 29 29 28 27 26 25 24 24 24 24 24 24 25 24 24 25 25 25 24 24 24 24 25 25 25
36 36 36 36 35 34 34 34 33 33 33 33 32 33 32 32 31 31 31 30 29 28 27 26 25 25 25 25 25 25 26 26 26 26 26 26 25 25 25 26 26 27
36 37 37 36 36 35 34 34 34 34 34 34 34 33 33 33 33 33 32 31 30 29 28 27 26 26 25 25 26 26 26 27 27 27 27 27 27 26 26 26 27 27
35 36 36 36 36 36 35 34 34 34 35 34 34 34 34 33 34 34 33 32 31 30 29 28 27 26 25 26 26 26 26 27 28 28 28 28 28 27 26 26 26 27
33 34 35 36 36 36 36 35 35 35 35 35 35 34 34 34 34 34 34 33 32 31 30 29 28 26 26 26 27 27 27 27 27 28 29 29 29 28 27 26 26 26
31 32 33 34 35 35 36 36 37 37 36 36 35 34 34 34 34 34 34 33 33 32 31 29 28 27 26 26 27 27 27 27 27 28 29 30 30 29 27 25 25 26
30 31 32 32 33 33 35 36 37 38 37 37 36 36 35 34 33 33 33 33 32 31 30 29 28 27 27 27 27 27 27 28 28 28 29 29 30 29 28 26 26 26
30 30 31 31 31 31 33 35 36 37 37 37 38 37 36 35 34 33 33 32 31 31 30 29 28 27 26 27 27 27 28 28 29 29 30 30 30 30 29 28 27 27
30 29 29 29 29 30 32 33 34 34 35 36 37 38 37 36 35 34 33 33 32 31 30 29 27 26 26 26 27 27 28 30 31 31 31 31 31 31 30 29 28 28
30 28 27 27 27 29 30 33 33 33 33 34 35 37 37 37 36 34 34 34 33 33 31 29 27 26 26 26 26 27 29 30 32 32 32 32 31 31 31 30 29 29
31 29 27 26 26 27 28 30 32 32 32 32 34 35 35 35 35 34 34 34 33 33 32 30 27 26 26 27 27 27 29 30 31 32 33 33 32 31 31 31 30 29
32 31 29 27 27 27 26 27 29 31 32 33 33 33 33 33 33 33 32 32 32 32 32 31 29 27 27 27 27 29 30 31 31 32 33 33 32 31 31 31 30 29
33 33 33 31 29 28 26 25 27 29 31 33 34 33 32 32 32 32 31 31 31 31 31 30 29 28 28 28 28 30 32 32 33 34 34 34 33 32 31 31 30 29

ECMWFNIL_700_spd_096.txt.gz
Wind_Speed
22 22 21 20 19 18 17 16 14 13 12 10 8 7 7 7 7 6 7 9 10 9 9 8 6 5 4 4 4 5 5 5 5 6 6 8 9 9 8 7 7 8
22 22 22 21 20 20 18 16 15 15 13 11 10 9 10 10 9 8 7 9 10 10 9 9 8 7 6 5 5 5 5 5 6 6 7 8 9 9 8 8 8 8
23 23 23 22 21 20 19 17 16 16 15 14 13 12 12 13 11 10 9 9 10 11 10 10 10 9 8 7 5 5 5 5 6 7 8 8 9 10 10 10 10 9
23 23 23 23 22 22 21 20 18 17 17 16 15 14 14 15 13 11 10 9 9 10 11 11 11 10 9 8 7 6 5 5 6 7 8 9 10 10 10 10 10 10
22 23 23 24 23 23 23 22 20 19 18 17 16 15 15 16 14 12 10 9 9 9 10 11 11 11 10 9 8 7 6 6 5 6 8 9 9 9 9 9 10 10
23 23 23 24 25 25 25 23 21 20 19 18 17 17 16 16 15 13 12 11 10 10 10 10 11 11 11 11 10 9 8 7 6 6 7 7 8 8 9 9 9 10
25 24 24 24 25 26 26 24 23 22 21 20 19 18 18 18 16 14 13 13 13 12 11 11 11 11 12 12 11 10 10 9 8 7 7 7 7 8 9 9 9 10
26 25 24 24 25 26 26 26 25 24 23 22 21 20 19 19 17 16 15 15 15 14 14 13 12 12 13 13 12 11 11 11 10 9 9 8 8 7 9 10 10 11
27 27 26 26 26 26 26 26 26 25 25 24 23 22 22 21 19 18 17 17 16 16 16 16 15 14 14 13 13 12 12 12 12 12 11 11 10 9 9 11 12 12
28 28 28 28 28 27 26 26 26 26 25 25 24 24 24 23 21 20 19 18 18 17 17 16 16 16 15 14 14 13 13 13 14 14 14 13 13 12 12 12 12 13
29 29 30 30 29 28 27 26 26 26 25 25 25 25 25 24 23 22 21 20 19 18 18 17 17 16 16 15 15 15 15 15 15 16 16 16 16 16 15 14 14 14
30 30 30 30 29 28 28 27 27 27 27 26 25 25 25 25 25 24 23 22 20 19 19 19 18 18 17 17 17 17 17 17 17 17 17 18 18 18 18 18 17 16
32 31 30 29 29 29 28 29 29 29 29 28 27 27 27 26 26 25 25 24 23 22 21 20 20 20 20 19 19 19 19 19 19 19 19 19 20 20 20 20 19 19
33 32 31 30 29 29 29 30 30 30 30 30 30 30 29 28 27 27 26 26 25 25 24 23 23 23 22 21 21 21 21 21 21 21 21 21 21 21 22 22 22 21
33 33 33 32 31 30 30 30 30 31 31 31 32 32 31 30 29 29 29 29 28 28 27 26 26 25 24 23 23 23 23 23 22 22 23 23 23 23 24 24 24 24
32 33 33 33 32 32 31 31 31 31 31 32 32 32 32 32 31 31 31 31 30 30 29 29 28 27 25 24 24 24 24 24 24 24 24 24 25 25 25 26 26 26
32 32 33 33 33 33 32 32 32 32 32 32 32 32 32 33 33 33 33 33 32 31 31 30 29 27 26 25 25 25 25 25 25 25 25 26 26 27 27 27 27 27
31 32 32 32 33 33 33 33 33 33 33 33 33 32 32 33 33 34 34 34 33 33 32 31 30 28 27 26 26 26 26 26 26 26 27 27 27 27 27 27 28 28
30 30 31 31 32 32 33 34 34 34 34 33 33 32 33 33 33 34 34 34 35 34 33 32 31 29 28 27 27 26 26 27 27 28 28 28 28 27 27 28 28 29
30 30 30 29 30 31 32 34 34 34 34 34 34 34 34 34 34 34 34 34 35 35 34 33 32 30 29 28 28 27 27 27 28 29 29 29 28 28 28 28 28 29
30 30 30 29 29 30 31 33 33 34 34 34 34 35 35 34 34 34 34 34 35 35 34 34 32 31 30 29 28 28 28 28 30 31 31 30 29 28 28 28 28 29
30 30 30 31 31 31 32 33 33 33 33 33 33 34 35 35 35 35 35 35 34 35 35 34 32 31 30 30 29 29 29 30 31 32 32 32 31 29 29 28 28 29
30 31 31 32 33 35 34 34 34 33 32 32 32 33 34 35 35 35 35 35 35 35 35 33 30 29 29 29 29 29 30 31 32 33 33 33 32 31 30 29 29 29
30 31 32 33 35 36 35 34 34 33 33 32 32 32 33 33 33 34 35 36 36 35 35 33 31 29 29 29 28 28 30 31 32 33 34 34 33 32 32 31 30 30
31 31 32 33 35 35 35 34 32 32 33 34 33 33 32 32 31 32 33 34 34 34 34 34 33 31 31 30 29 29 30 31 32 34 35 35 34 34 33 32 31 31
32 32 32 32 33 34 34 33 32 31 32 33 34 33 31 31 30 30 31 31 31 32 33 33 33 32 31 31 31 31 31 32 33 34 35 35 34 34 33 33 32 31

ECMWFNIL_700_spd_102.txt.gz
Wind_Speed
23 22 21 19 18 16 15 14 13 13 13 13 12 12 11 10 9 9 8 7 7 7 8 7 7 7 7 8 8 8 8 9 9 9 9 9 8 8 9 8 8 8
23 23 22 21 19 18 16 16 15 14 14 14 14 13 12 11 11 10 9 8 8 7 7 7 6 6 6 7 7 7 7 8 8 9 9 9 9 9 9 8 8 8
23 24 23 22 20 19 18 18 17 16 15 15 15 14 13 12 12 11 10 10 9 8 7 7 6 6 6 6 6 6 6 7 7 8 9 9 10 9 9 9 9 9
23 23 23 23 22 21 20 19 18 17 17 16 16 15 14 14 14 13 12 11 10 9 9 8 7 7 6 6 5 6 6 6 6 7 8 9 9 10 10 10 10 10
22 23 23 24 24 23 22 20 19 19 18 18 17 17 16 15 15 14 13 12 11 11 10 10 9 8 7 7 6 6 6 5 6 6 6 8 9 10 10 10 11 12
22 22 23 24 25 24 23 22 21 20 20 19 19 19 17 16 16 15 14 13 12 11 11 11 10 9 9 8 8 7 7 6 6 6 6 7 8 8 9 10 12 12
22 22 23 24 25 25 24 23 23 22 21 21 21 20 19 18 17 16 15 14 13 13 12 12 12 11 10 10 9 8 8 7 7 6 6 7 7 8 8 10 11 12
22 22 22 24 25 26 26 25 24 23 22 22 22 21 20 19 18 17 16 16 15 15 14 14 13 13 12 11 11 10 9 9 8 8 7 7 8 8 8 9 11 12
23 22 22 23 24 25 26 26 25 24 24 23 22 22 21 20 19 19 18 17 17 17 16 15 15 14 13 13 12 12 11 10 10 9 9 8 9 9 9 10 11 12
24 23 23 23 24 24 25 26 26 26 25 24 23 23 23 22 21 21 20 19 19 18 17 17 16 15 14 14 14 13 12 12 12 11 11 10 10 10 10 10 10 12
25 24 24 24 24 24 24 24 26 27 26 25 25 24 24 23 23 23 21 20 20 19 18 18 17 17 16 16 15 14 14 14 13 13 13 13 13 12 12 11 11 11
25 25 25 25 24 24 23 23 24 26 27 27 27 26 25 25 25 24 23 21 20 20 19 19 18 18 18 17 17 17 16 16 15 15 15 15 15 15 14 14 13 13
26 26 25 25 25 24 24 24 24 25 26 27 27 28 27 26 26 25 24 23 21 21 20 20 20 20 20 19 19 19 19 18 18 17 17 17 17 17 16 16 16 15
27 26 26 25 25 25 25 26 26 26 26 26 27 28 28 28 27 27 26 24 23 23 22 22 22 22 21 21 21 21 20 20 20 19 19 19 19 19 19 18 18 18
28 27 27 26 26 26 26 26 26 27 27 27 27 28 28 28 28 28 28 27 26 25 25 24 24 24 24 23 22 21 21 21 21 21 21 21 21 21 21 21 20 20
29 29 28 28 27 26 26 26 26 27 28 28 28 28 29 29 29 29 29 28 28 28 27 26 26 26 25 24 23 23 22 22 23 23 22 23 23 23 23 23 23 22
31 30 30 29 28 27 26 26 26 27 28 29 29 29 30 31 31 30 30 29 29 29 29 28 28 27 26 25 24 24 24 24 24 24 23 24 24 24 24 24 24 24
32 32 32 31 30 29 28 27 28 29 29 29 29 29 30 31 32 32 32 31 30 30 30 30 29 28 26 25 25 25 25 25 26 25 25 25 25 25 25 25 25 26
32 33 34 33 32 31 30 30 30 30 31 30 30 30 31 31 32 32 33 33 33 32 31 31 30 30 28 26 26 26 26 27 27 27 27 27 26 26 26 25 26 26
33 34 35 35 35 34 33 33 33 32 32 32 31 32 32 32 32 32 33 33 34 34 33 33 32 31 30 28 28 28 28 28 29 29 29 29 28 28 27 27 27 27
34 35 36 36 36 36 35 35 34 34 34 33 33 33 33 32 32 32 33 33 33 34 35 35 34 33 32 30 30 30 30 31 32 32 32 31 30 29 28 28 28 27
35 36 37 37 37 38 37 37 36 35 34 34 34 34 34 33 33 33 33 33 33 33 35 35 34 34 33 32 31 31 32 33 34 34 33 33 32 31 29 29 29 28
34 35 36 37 38 39 39 38 37 36 35 35 35 35 34 34 33 33 33 33 33 33 34 34 33 32 32 32 31 32 33 34 35 34 34 33 33 32 31 30 30 29
35 35 36 37 38 39 39 40 39 38 37 37 37 36 35 34 34 33 33 33 33 33 33 33 32 31 31 31 31 31 32 34 35 35 34 34 33 32 32 31 31 30
34 35 36 38 39 40 40 40 41 40 39 40 39 38 36 35 35 35 34 33 32 32 33 33 32 32 31 31 31 31 32 33 34 35 35 34 33 33 33 33 32 31
33 34 36 38 40 41 41 41 42 42 41 41 41 40 39 37 36 36 35 33 32 32 32 33 32 32 32 32 31 32 33 33 35 36 35 34 33 33 33 33 33 32

ECMWFNIL_700_spd_105.txt.gz
Wind_Speed
20 20 19 18 17 16 15 14 12 12 11 11 10 10 10 10 10 10 10 9 8 7 7 7 8 8 8 9 8 8 9 10 10 10 10 10 10 9 9 9 8 8
21 21 20 19 18 16 15 15 14 13 12 12 11 10 10 10 10 10 10 10 9 8 7 6 6 7 8 9 8 8 9 9 9 10 10 10 10 10 10 9 9 9
21 22 21 20 18 17 16 16 15 14 13 12 12 11 10 10 10 10 10 10 10 9 8 7 6 6 7 8 8 8 8 8 9 9 9 10 10 11 11 10 9 9
21 22 22 21 20 18 18 17 16 15 14 13 13 13 12 11 11 11 10 10 10 9 9 8 7 7 6 7 7 8 8 8 8 9 9 9 10 10 11 11 10 10
20 21 22 22 21 20 19 18 17 17 16 15 14 14 13 13 12 11 10 10 10 10 10 9 9 8 7 6 7 7 7 8 8 8 8 9 9 10 11 11 11 11
19 20 22 23 23 22 20 19 18 18 17 16 16 15 15 14 13 12 11 11 11 10 10 10 10 9 8 8 7 7 8 8 8 8 8 9 9 10 11 12 12 12
19 19 21 22 23 22 21 21 19 19 19 18 18 18 16 16 15 14 13 13 12 11 11 11 11 10 10 9 8 8 8 8 7 7 7 9 9 9 10 11 12 13
19 19 20 22 23 23 23 22 21 20 20 20 19 19 18 18 16 16 16 15 14 14 13 12 12 11 11 10 10 10 9 8 8 8 8 8 9 9 10 11 12 12
19 19 20 21 23 23 23 23 22 22 22 21 20 19 19 19 18 18 18 17 16 16 15 14 13 13 12 12 12 11 11 10 10 10 9 9 9 10 10 10 11 12
19 19 20 21 22 23 23 23 23 23 22 22 21 21 21 20 20 20 20 18 17 17 16 15 15 14 14 14 13 12 12 11 11 11 10 10 10 10 10 11 11 11
19 19 19 20 21 21 23 23 24 24 23 22 22 22 22 21 21 22 21 19 18 18 17 16 16 16 16 15 14 13 13 13 13 12 11 12 12 12 11 11 12 12
20 20 20 20 20 21 21 22 24 25 25 23 23 23 24 24 23 22 22 21 19 18 18 17 17 17 17 17 16 15 15 15 14 14 13 13 13 13 13 13 13 13
22 21 21 21 21 21 21 22 23 24 25 25 24 24 24 24 25 24 23 21 20 20 19 18 18 19 19 18 18 17 17 17 16 15 15 15 15 15 14 14 14 14
23 22 22 22 22 22 22 22 22 22 24 25 25 24 24 24 25 25 23 22 21 21 21 20 20 20 20 20 20 20 19 19 18 18 17 17 16 16 16 16 16 16
25 24 24 23 23 24 23 23 23 22 23 24 24 24 24 24 24 25 25 24 23 22 23 23 23 22 22 22 21 21 21 20 20 20 19 19 19 18 18 18 18 18
29 28 27 26 25 25 25 24 24 23 23 23 24 24 24 24 24 25 26 27 25 24 25 25 25 24 23 23 22 22 22 21 21 21 22 22 22 21 21 20 20 20
32 31 30 30 29 28 26 26 26 26 25 25 25 25 25 25 26 26 27 27 27 27 27 27 27 27 25 24 23 23 23 23 23 23 23 23 23 23 23 23 22 22
33 33 33 32 31 30 30 29 28 29 28 28 27 27 26 27 28 28 28 28 28 28 27 27 28 28 27 25 24 24 24 24 25 24 24 24 24 24 24 24 24 24
33 34 34 34 33 33 32 31 31 31 31 30 30 28 28 29 29 30 30 30 30 30 29 28 28 28 28 26 24 24 25 25 26 26 25 25 24 24 24 24 24 24
31 32 33 35 36 35 34 34 34 33 32 32 31 31 32 32 31 31 31 31 31 31 31 30 29 29 28 27 24 24 24 26 27 28 28 27 26 25 25 24 24 24
29 31 32 34 36 37 37 37 36 35 34 33 32 33 33 33 33 32 32 32 32 32 32 32 31 30 29 27 25 24 25 26 28 29 30 29 28 27 26 25 25 25
29 31 33 34 36 38 39 39 38 38 36 35 34 34 33 33 33 33 33 33 32 32 32 32 31 30 30 29 27 25 26 28 30 31 32 32 31 29 28 27 27 27
32 33 34 35 37 39 40 41 41 40 39 38 37 37 36 35 33 33 34 33 33 32 33 33 32 31 31 30 28 27 28 30 31 33 34 34 33 32 32 31 29 28
33 34 35 36 38 40 42 43 43 42 42 42 41 40 39 37 35 33 33 33 33 33 33 33 33 32 32 31 30 29 30 31 32 34 35 35 35 34 34 34 32 30
34 35 36 37 38 41 43 42 40 39 39 40 43 44 42 41 38 36 34 33 33 33 33 34 34 33 32 32 31 31 31 31 32 34 35 36 35 35 35 34 33 32
30 34 37 39 39 41 43 42 40 40 38 37 37 39 40 41 40 37 36 35 34 33 33 33 33 33 33 33 33 32 32 32 33 35 36 36 35 35 35 35 34 33

ECMWFNIL_700_spd_108.txt.gz
Wind_Speed
17 18 17 16 15 14 14 14 13 13 12 12 11 10 9 9 9 9 10 9 9 8 8 8 8 8 7 8 8 8 9 9 9 10 10 10 11 11 12 12 10 10
17 18 19 18 17 15 15 14 14 13 13 12 11 11 10 9 9 9 9 9 9 8 8 8 9 8 8 8 8 8 9 9 9 9 10 10 11 11 12 12 11 11
17 19 19 19 18 17 16 16 15 14 13 13 12 11 10 10 9 9 9 9 8 8 7 7 8 9 9 9 9 8 9 10 10 9 10 11 11 11 11 11 11 10
18 18 19 20 19 19 18 17 16 15 14 13 13 12 12 11 10 10 9 9 9 8 7 7 7 7 8 9 8 9 9 9 10 10 10 12 11 11 12 11 11 10
18 18 19 20 21 21 20 18 18 17 16 14 14 13 13 11 11 10 10 10 10 9 9 8 7 7 7 8 8 9 8 8 9 10 10 11 11 12 12 12 11 11
19 18 19 21 22 21 20 19 18 18 17 16 15 14 13 12 11 11 10 10 10 10 10 10 9 8 7 7 8 9 9 8 9 9 9 10 11 12 13 12 12 12
20 19 19 21 22 22 21 20 20 19 18 17 16 15 13 13 12 12 11 11 11 11 11 11 10 9 9 8 8 9 9 9 8 8 9 10 10 11 11 12 13 13
21 21 20 21 22 22 22 22 21 20 19 19 18 16 15 14 13 13 12 12 12 12 12 12 11 10 10 10 9 9 9 9 9 9 9 9 10 10 10 11 12 12
21 22 21 21 22 22 23 23 22 21 20 20 19 17 16 15 15 14 13 13 13 13 12 12 12 11 11 11 11 10 10 10 10 9 9 9 10 10 10 11 11 11
20 22 22 22 22 22 23 23 23 23 22 21 20 19 18 17 16 16 15 14 14 14 14 13 13 12 12 12 12 12 11 11 11 10 10 10 9 9 10 10 11 11
20 21 22 23 23 23 22 23 23 23 23 22 22 21 20 19 18 17 17 16 16 15 15 15 15 14 14 13 13 12 13 13 12 12 11 10 10 9 10 10 10 11
22 21 21 22 22 22 22 22 23 23 23 23 22 22 22 21 20 19 18 17 16 17 17 16 16 16 15 15 14 14 14 14 14 13 13 12 11 11 11 10 11 11
25 23 21 21 22 22 22 22 23 23 23 23 22 23 23 22 21 20 20 18 16 17 18 17 17 17 16 16 16 16 16 15 15 14 14 14 13 13 12 12 12 12
27 27 26 24 22 22 22 22 23 23 23 22 22 23 23 22 21 20 20 20 18 17 17 18 18 18 18 17 17 17 16 16 16 16 15 15 15 14 14 13 13 13
29 32 31 30 28 26 24 23 22 22 22 22 22 22 22 23 23 22 21 21 20 19 19 19 19 19 19 18 17 17 16 16 16 16 16 16 16 16 16 16 16 15
26 30 32 32 33 33 29 25 23 22 22 22 22 22 21 22 23 23 23 21 20 21 21 20 20 19 19 18 18 17 17 17 17 17 17 17 17 17 17 18 17 17
26 29 31 31 32 33 33 30 26 24 22 22 23 22 21 21 22 23 24 24 22 21 22 22 21 20 19 19 19 18 18 18 19 18 18 18 19 18 18 18 19 18
30 29 28 28 29 31 30 29 29 28 26 24 24 24 23 22 22 22 24 24 24 23 22 22 22 22 21 19 19 20 20 20 20 21 21 20 20 20 19 19 19 19
30 29 29 29 29 29 29 28 29 30 30 28 25 23 23 23 24 23 23 23 25 26 25 23 21 22 23 22 20 20 21 22 22 23 23 22 21 21 20 20 19 19
31 31 31 31 31 31 32 32 30 31 33 33 31 27 24 24 24 24 24 23 24 26 27 26 23 22 22 22 21 20 20 22 23 24 25 25 23 22 21 20 20 20
31 32 32 32 34 34 35 35 34 34 36 37 36 34 31 28 26 26 26 25 24 25 26 27 26 25 23 22 21 20 20 21 23 25 26 26 25 24 23 21 21 20
30 31 32 33 35 36 36 37 37 35 35 33 31 31 32 31 29 28 27 28 28 27 27 27 27 26 26 25 23 21 20 21 23 25 27 27 27 26 25 23 22 22
29 29 30 32 35 36 37 38 37 36 34 32 29 29 29 29 29 28 28 29 29 29 29 29 27 27 27 26 25 23 22 23 23 25 26 28 28 27 26 26 25 24
29 30 30 31 33 35 36 36 35 34 34 33 32 32 30 29 30 30 29 28 28 29 29 30 29 28 28 27 27 26 25 25 25 25 26 28 29 29 29 29 28 27
24 28 30 31 33 35 37 36 33 31 32 32 32 33 32 31 32 33 33 32 31 29 29 30 29 29 29 29 29 29 28 28 27 28 29 28 28 29 30 31 31 30
17 21 25 28 30 32 34 34 32 30 30 30 31 33 33 33 34 34 34 34 34 32 31 31 30 29 30 31 31 31 31 30 31 31 31 30 30 31 31 32 32 32

ECMWFNIL_700_spd_111.txt.gz
Wind_Speed
13 13 13 11 11 11 10 10 9 9 9 10 10 10 9 9 9 8 8 8 8 9 9 9 10 10 10 10 10 10 11 12 12 13 13 13 12 12 12 11 11 11
13 13 14 13 12 11 11 11 10 10 9 9 10 10 9 10 9 9 9 8 8 8 9 9 9 9 10 10 10 10 11 11 12 13 13 13 13 13 12 12 11 11
13 13 14 14 12 11 11 11 11 11 11 10 9 9 9 10 9 9 9 8 8 8 8 9 9 9 9 10 10 10 11 11 11 12 13 13 13 13 13 13 12 11
13 12 12 14 14 13 13 12 12 11 11 11 10 9 9 9 9 9 9 9 8 7 7 7 8 9 9 9 9 10 11 12 11 12 12 13 13 13 13 14 13 12
13 12 12 13 14 15 14 13 12 12 11 11 11 10 10 9 9 9 9 9 8 8 8 7 7 8 9 9 9 9 10 10 11 12 12 13 13 13 13 13 13 13
14 13 12 12 14 16 16 14 13 13 12 12 11 11 10 9 9 9 9 9 9 9 9 8 8 8 8 9 9 9 9 10 11 11 12 12 13 14 14 13 13 13
16 14 12 12 13 15 16 16 15 14 13 12 12 11 11 10 9 9 9 10 10 10 10 10 9 8 8 8 8 8 9 10 10 11 11 12 13 14 14 14 14 13
17 16 14 13 12 13 15 16 16 15 14 13 13 12 11 10 10 10 10 10 10 9 9 10 10 10 9 8 8 8 9 9 10 10 11 11 12 13 13 14 14 14
19 18 16 15 13 13 14 16 16 16 15 14 14 13 12 11 11 11 11 11 10 10 9 10 10 11 11 10 9 9 9 10 10 11 11 10 11 11 12 13 13 13
19 18 18 16 15 13 12 14 16 17 16 15 15 15 14 13 13 13 12 12 11 10 10 10 11 11 12 11 10 10 10 10 11 11 11 10 10 10 11 11 12 12
18 17 17 16 15 14 13 12 14 16 17 17 17 16 15 14 14 14 14 14 13 12 11 11 11 12 13 13 12 12 12 11 11 11 11 11 11 10 10 10 10 11
17 16 15 14 14 14 15 14 14 15 16 18 18 18 18 17 16 16 16 15 14 14 13 12 12 13 14 15 14 14 13 13 13 12 12 11 11 11 10 10 10 10
18 15 15 14 14 14 15 16 16 16 16 16 17 18 19 19 19 18 18 17 17 16 15 14 14 15 15 16 16 16 15 15 14 14 13 12 12 12 11 11 11 10
20 17 17 16 15 15 15 16 16 17 17 16 15 16 17 19 20 19 19 19 19 18 18 17 17 17 17 17 17 17 17 16 16 15 14 14 14 13 13 13 12 12
20 19 19 19 18 18 17 17 16 16 17 16 15 15 15 17 19 20 20 20 20 20 20 19 19 19 19 18 18 18 17 16 16 16 16 15 15 15 14 14 14 13
21 21 22 22 22 21 19 18 17 17 18 18 18 18 17 16 18 20 22 21 20 20 20 21 22 21 20 19 18 18 18 17 16 16 16 16 16 16 16 15 15 15
23 24 23 24 25 24 22 20 19 20 22 23 23 22 20 19 17 18 21 22 22 21 20 21 22 22 22 20 19 19 19 19 18 17 17 17 17 17 16 16 16 16
22 24 24 24 26 27 26 24 23 24 26 27 26 24 22 20 19 18 19 20 23 22 21 20 21 22 23 22 21 20 19 20 20 20 19 18 18 17 16 16 16 16
22 23 23 23 24 26 26 25 25 26 27 27 27 26 24 21 20 20 20 20 21 23 22 20 19 20 22 23 23 22 21 22 22 22 22 21 20 19 18 18 17 17
23 24 24 23 23 23 23 24 25 26 27 27 27 27 26 23 21 22 21 21 21 22 23 22 20 18 19 21 23 23 22 23 23 24 24 24 23 22 20 19 19 18
24 26 26 25 25 25 24 24 24 25 26 27 28 28 28 27 25 24 24 24 24 23 23 24 23 22 20 19 20 20 21 22 23 24 24 24 24 23 22 21 20 19
25 26 25 26 26 26 25 24 24 25 26 27 28 29 29 29 29 28 28 28 28 26 24 24 24 25 25 24 22 20 20 21 22 23 24 24 24 23 23 22 21 20
26 27 27 27 27 27 26 25 24 24 25 27 28 29 30 30 30 30 32 32 31 30 27 25 24 26 28 29 28 26 25 23 22 23 23 24 24 24 24 24 23 22
24 26 27 28 29 29 28 27 25 25 26 28 29 30 32 32 31 30 32 34 35 35 34 33 32 30 30 31 31 29 28 26 25 24 24 24 24 24 24 25 25 25
21 23 25 27 29 29 29 28 27 25 25 27 29 30 32 33 33 33 33 34 36 36 37 39 37 31 28 29 29 30 30 28 28 28 27 25 24 24 24 25 26 26
18 20 22 24 26 27 28 28 27 26 25 26 27 28 31 33 33 34 35 36 36 36 38 39 36 32 29 28 29 29 31 32 31 31 30 28 27 26 26 26 27 27

ECMWFNIL_700_spd_114.txt.gz
Wind_Speed
11 11 10 10 10 10 10 9 8 8 8 8 9 10 11 10 10 11 10 10 10 10 11 11 11 11 11 11 11 12 12 12 12 12 11 11 10 10 10 11 10 10
12 12 11 10 10 9 10 10 9 9 8 8 8 8 9 10 10 11 10 10 10 10 10 10 10 10 11 11 11 11 11 12 12 12 12 12 11 11 10 10 11 11
12 12 12 11 10 9 9 10 10 10 10 9 9 8 8 9 10 10 10 10 10 10 10 9 10 10 10 10 10 10 11 12 12 12 12 13 13 12 11 11 11 11
12 12 12 12 11 10 10 10 10 10 10 9 9 8 8 9 9 9 9 9 9 9 9 9 9 9 9 9 10 10 11 12 12 12 12 13 13 13 12 12 12 12
13 12 13 13 13 13 12 11 10 10 10 9 9 9 9 9 9 8 8 8 8 7 7 7 7 8 9 9 9 10 10 11 11 11 12 12 13 14 13 13 14 13
16 14 14 14 14 14 14 12 12 11 11 10 10 10 10 9 9 9 9 9 8 8 7 6 6 6 7 8 8 9 9 10 11 11 12 12 13 14 14 14 14 14
18 16 15 14 15 15 16 15 14 13 12 12 11 11 10 10 9 9 9 9 9 8 8 8 7 6 6 7 7 7 8 9 10 10 11 12 13 13 14 14 14 14
19 19 18 16 16 16 16 17 16 15 14 13 12 12 11 10 10 10 10 9 9 8 8 8 8 8 7 7 6 6 7 8 8 9 10 11 12 12 13 14 15 14
19 20 20 19 18 17 16 17 17 17 16 15 13 13 12 11 11 11 11 10 10 9 8 8 8 8 8 8 7 7 7 7 8 8 9 10 11 12 13 14 15 15
20 20 20 20 19 17 16 17 17 18 18 17 15 14 14 13 12 12 12 12 11 10 9 9 8 8 8 8 8 8 8 8 9 9 9 9 9 10 11 12 13 14
20 20 21 21 21 19 18 17 18 18 19 19 18 17 16 15 14 14 13 13 12 11 11 10 10 9 9 9 9 9 9 10 10 10 10 10 10 10 11 11 11 11
22 20 21 22 21 21 20 19 19 19 20 20 20 19 18 17 16 15 14 14 13 12 12 11 11 11 11 10 11 11 11 11 11 11 11 11 11 11 11 11 11 11
24 21 21 22 21 20 21 21 21 21 21 22 22 22 21 20 19 18 16 15 14 14 14 13 13 13 13 12 12 12 12 12 12 12 12 12 11 11 11 12 12 12
23 23 22 23 23 21 19 19 21 21 22 23 24 24 24 23 22 20 19 17 16 16 15 15 16 15 15 14 14 14 13 13 14 14 14 13 13 12 12 12 12 13
21 22 23 24 25 24 21 20 21 21 21 22 23 24 24 24 24 23 22 20 19 18 18 18 18 17 16 15 15 15 14 14 14 15 15 15 15 14 14 14 13 13
23 22 23 24 24 23 23 23 23 22 21 20 19 21 22 22 23 23 23 22 21 20 19 19 19 17 17 16 16 15 15 15 15 15 15 16 16 16 16 15 15 14
22 21 22 22 23 23 24 25 24 23 22 20 19 19 19 20 21 23 23 22 22 22 21 20 19 18 18 18 17 17 16 16 16 16 16 16 16 17 16 16 16 16
20 21 21 21 23 26 27 26 25 23 22 22 22 20 19 18 19 21 22 22 22 22 22 22 21 20 20 19 19 19 18 18 18 17 17 17 17 17 17 17 17 17
20 21 21 21 23 26 26 24 24 24 24 25 25 23 22 21 20 21 22 22 23 22 21 22 22 21 21 21 21 21 21 21 20 20 19 19 19 18 18 18 18 17
22 22 22 22 24 25 25 24 24 26 28 29 28 26 24 24 23 23 22 22 23 23 22 22 21 21 22 22 22 22 22 23 23 23 22 22 21 20 20 19 18 18
23 22 22 23 25 25 25 24 25 26 28 30 30 29 27 27 26 26 25 24 24 25 24 23 22 21 21 22 22 22 22 22 24 24 24 24 23 22 21 20 19 19
22 22 21 23 24 25 25 24 24 25 26 28 28 28 28 28 29 28 27 27 27 27 26 24 23 22 21 21 21 21 21 22 23 25 25 26 25 24 23 22 21 21
23 23 23 24 25 25 24 25 25 27 27 28 28 27 27 27 29 29 29 29 29 29 29 26 24 23 23 23 22 22 22 22 22 23 25 26 26 25 25 24 24 23
20 22 24 25 25 25 24 24 26 28 28 29 30 29 27 27 28 29 30 30 30 31 30 29 28 29 28 26 23 22 22 22 22 23 24 24 24 25 25 26 26 26
17 19 22 24 25 26 26 27 28 29 29 30 30 30 29 28 29 30 30 31 31 30 30 30 31 33 33 30 27 26 27 27 27 27 26 25 24 24 24 25 25 26
14 16 19 21 23 25 27 29 31 31 32 32 32 32 30 30 30 31 31 31 32 31 31 31 33 33 32 32 32 32 32 32 32 31 29 27 26 26 26 26 26 26

ECMWFNIL_700_spd_117.txt.gz
Wind_Speed
14 13 13 12 12 11 11 10 9 8 7 8 9 9 10 10 10 10 10 10 10 10 10 10 10 10 10 9 9 10 10 10 10 10 10 11 11 10 10 10 10 9
14 14 14 13 12 11 10 10 10 9 8 8 8 8 9 9 9 10 10 10 10 10 10 10 9 9 9 9 9 10 10 10 11 11 11 11 11 11 11 11 11 11
14 14 14 13 12 11 11 11 10 10 9 8 8 7 7 8 9 9 9 9 9 9 9 9 9 9 9 9 9 9 10 10 11 12 12 12 12 12 11 10 11 11
13 14 14 13 13 12 12 12 11 10 10 8 8 7 7 8 8 9 9 8 8 8 8 8 8 9 9 9 9 9 9 10 10 11 12 12 12 12 11 10 11 11
13 14 14 14 14 13 13 12 11 11 10 9 9 8 8 8 8 9 8 8 8 7 7 7 7 8 8 9 9 9 10 10 10 10 11 12 12 12 12 11 11 11
14 14 14 14 15 14 14 13 12 12 12 11 11 10 10 9 9 9 9 9 9 7 6 6 6 6 7 8 8 9 10 10 10 10 11 11 12 12 12 12 11 11
15 15 15 15 15 15 15 15 14 13 13 13 12 11 11 10 9 9 9 9 9 8 7 6 6 5 5 6 7 8 9 10 10 10 11 11 12 12 12 12 12 12
16 16 16 16 16 16 16 16 15 14 14 14 13 12 12 11 11 11 10 10 10 9 9 8 7 6 6 5 6 6 7 8 9 9 10 11 11 11 12 12 12 13
18 18 17 17 17 17 17 17 17 16 16 15 14 13 13 12 12 12 12 11 11 11 11 10 9 8 7 6 6 6 6 7 8 8 9 10 10 10 11 12 12 12
20 19 19 19 19 18 17 17 18 18 18 17 16 15 14 14 14 14 13 13 12 12 12 11 10 9 8 8 8 7 7 8 8 9 9 9 9 9 10 10 11 11
21 21 21 21 20 20 19 19 19 20 20 19 18 17 16 15 15 15 14 14 13 13 13 12 11 11 10 10 10 9 9 9 10 10 10 10 10 10 10 10 10 10
22 22 22 22 22 21 21 20 21 22 22 22 21 20 18 18 17 16 16 15 14 14 14 14 13 13 12 12 11 11 11 10 10 10 10 11 11 11 11 11 11 11
23 23 23 22 22 22 22 21 22 22 23 24 23 22 21 20 19 18 17 16 16 15 15 15 15 15 14 13 13 13 12 12 11 11 11 11 12 12 12 13 12 12
24 24 23 23 23 23 22 22 22 22 23 24 24 25 24 23 22 20 20 19 18 17 16 16 16 16 15 15 14 14 13 13 12 12 12 12 12 13 14 14 14 14
25 25 25 25 25 23 22 22 22 22 22 23 25 26 25 24 23 22 22 21 20 19 18 18 18 17 16 15 15 14 14 14 14 14 14 14 14 14 15 15 16 15
25 25 25 26 27 26 23 23 22 22 22 23 24 25 25 25 25 24 23 22 21 21 21 21 20 19 17 16 16 16 16 16 16 16 15 15 15 15 15 16 16 17
24 23 23 25 28 28 26 25 24 24 23 23 23 24 25 26 27 26 25 24 23 23 23 23 22 21 19 18 18 18 18 19 19 18 18 17 17 16 16 16 16 17
23 24 24 26 28 29 28 27 26 25 24 24 24 24 25 26 27 28 27 26 26 25 24 24 23 22 21 21 21 21 21 21 21 21 20 19 18 18 18 18 18 18
25 25 26 27 28 28 28 28 28 27 26 26 25 25 25 26 27 28 27 26 25 24 24 24 24 24 24 23 23 23 23 24 24 23 23 22 21 20 20 20 20 19
26 27 28 29 29 30 29 29 30 29 27 27 27 26 26 26 27 27 26 25 24 23 23 23 24 24 25 25 25 25 25 26 26 26 25 24 23 23 22 21 21 21
25 28 28 29 29 30 29 30 31 31 30 29 29 28 28 27 28 28 28 26 25 24 23 23 24 24 24 24 25 25 26 27 27 27 27 26 25 24 24 23 22 22
22 25 27 27 28 28 29 29 30 30 30 29 30 30 30 31 31 31 29 27 26 25 25 25 25 24 24 23 23 23 24 25 27 27 27 27 27 26 25 25 25 25
21 23 25 27 28 28 27 27 27 27 27 28 29 30 32 33 34 33 31 29 28 28 28 28 27 26 25 24 24 24 24 25 25 26 27 27 27 26 26 26 26 26
20 22 24 26 27 25 23 24 25 25 26 27 28 28 29 31 33 33 31 30 30 30 30 29 28 28 28 27 26 26 26 26 26 26 27 27 26 25 25 25 26 26
13 15 18 21 22 21 21 23 24 25 26 27 28 28 28 29 31 32 32 30 29 30 31 30 30 30 30 30 29 29 29 28 28 28 28 27 26 25 25 25 25 26
10 11 13 15 16 16 18 20 22 24 26 27 28 28 29 30 31 33 33 31 30 30 31 31 31 32 32 32 32 32 31 30 30 31 30 29 29 29 29 29 28 27

ECMWFNIL_700_spd_123.txt.gz
Wind_Speed
10 10 10 10 10 10 10 10 10 9 9 9 9 9 9 10 10 11 11 11 11 11 10 10 10 9 9 9 8 7 6 6 6 6 5 5 5 4 3 3 3 3
10 10 10 10 9 9 9 10 10 9 9 9 9 8 8 9 9 10 11 11 11 11 11 11 10 10 9 9 9 8 7 7 7 7 7 6 5 5 5 5 4 4
11 10 10 10 9 9 9 10 9 9 8 8 8 9 8 8 9 9 10 10 11 11 10 10 10 10 10 9 9 9 8 8 8 8 8 7 7 6 6 6 6 5
12 11 11 11 10 10 9 9 9 8 8 8 8 9 9 9 9 9 9 10 10 10 10 10 10 10 10 9 9 9 9 9 9 9 9 9 8 8 8 8 7 7
12 12 12 12 12 11 10 9 9 9 8 8 8 9 9 9 9 9 10 10 10 10 10 10 10 10 10 9 9 9 9 9 9 9 9 10 10 9 9 9 9 9
13 13 13 13 13 12 11 10 10 10 9 9 8 9 9 10 10 10 11 10 10 10 10 10 10 10 10 10 9 9 9 9 9 9 9 10 10 10 11 10 10 10
13 13 14 14 14 13 13 12 11 11 11 10 9 9 9 10 10 11 12 12 11 11 11 11 11 11 11 10 10 10 9 9 9 9 10 10 10 11 11 11 11 11
15 15 15 16 15 15 14 13 12 12 12 11 11 10 10 10 11 11 12 12 12 12 12 12 12 11 11 11 11 10 10 10 10 10 11 11 11 11 11 11 11 11
17 17 17 17 16 16 15 14 14 13 13 13 12 12 12 11 11 11 12 12 12 13 13 13 12 12 11 11 11 11 11 11 11 11 11 11 11 11 12 12 12 12
19 19 18 17 17 17 16 16 15 15 14 14 14 14 13 13 12 12 12 12 12 12 13 13 13 12 12 12 11 11 10 10 10 11 11 11 11 11 12 12 12 12
21 21 20 19 18 18 18 17 17 17 16 16 16 15 15 15 14 14 13 12 12 13 13 13 13 13 13 12 12 12 11 11 11 11 11 11 11 11 11 11 11 11
22 22 22 21 21 20 20 19 19 19 18 18 17 17 17 16 16 16 15 15 14 14 14 14 14 14 13 13 13 13 13 12 12 12 12 11 11 11 11 11 11 11
23 23 23 23 23 22 22 22 21 20 20 20 19 19 19 18 18 17 17 17 16 16 16 15 15 15 14 14 14 14 14 14 13 13 13 13 12 12 12 12 12 12
24 24 24 24 24 24 24 24 23 22 22 21 21 21 21 20 20 19 19 18 18 18 18 17 16 16 15 15 15 15 15 15 15 15 15 14 14 14 14 14 14 14
25 25 25 25 25 25 25 25 24 24 23 23 23 22 22 22 22 22 21 20 20 20 20 19 18 18 17 17 17 17 17 17 17 17 17 17 16 16 16 16 16 16
24 24 24 24 24 24 24 24 24 24 24 24 24 23 23 23 23 24 24 23 22 22 21 21 20 20 19 19 19 19 19 19 19 19 19 19 19 18 18 18 18 18
24 24 24 23 23 23 23 23 23 23 24 24 24 24 24 24 24 24 24 24 24 24 23 23 22 22 22 22 22 22 22 22 21 21 21 21 20 20 20 20 20 20
26 25 25 25 24 24 24 24 23 23 23 24 25 25 24 24 24 24 24 25 25 26 26 25 24 24 24 24 24 24 24 24 23 23 23 23 22 22 21 21 21 21
28 27 27 27 27 26 26 26 25 25 25 25 25 25 25 25 24 24 25 25 25 26 26 27 26 26 26 26 26 26 26 26 25 25 25 24 24 24 24 23 23 23
27 27 27 27 28 28 28 28 27 26 26 26 27 27 26 26 25 24 24 25 25 26 26 27 28 28 27 28 27 27 27 27 26 26 26 26 26 26 26 25 25 24
24 24 24 25 26 27 28 28 27 26 25 25 25 25 25 24 24 23 24 24 25 26 26 27 27 27 27 28 28 29 29 28 28 28 28 28 28 28 28 27 26 26
22 21 22 22 23 24 24 25 25 23 22 22 22 22 22 22 22 23 23 24 24 24 25 26 26 26 27 28 28 28 29 28 28 28 28 28 29 30 30 29 28 27
18 17 17 19 20 19 20 22 22 21 21 21 21 20 21 21 20 21 22 23 24 25 25 26 26 26 27 27 27 27 27 28 27 27 27 27 28 30 31 30 30 29
14 12 12 13 14 14 16 18 19 19 20 22 22 22 21 20 19 20 21 23 24 25 26 27 27 26 26 27 27 27 27 27 26 26 25 26 27 29 31 31 31 30
14 15 14 13 13 13 14 14 15 16 17 21 24 23 21 20 20 21 22 23 24 25 26 27 27 27 26 26 27 27 27 27 27 27 26 27 28 29 31 32 33 32
19 20 18 17 17 16 17 17 18 18 18 19 21 21 19 20 22 23 24 25 26 26 27 27 27 27 27 28 28 28 28 29 30 30 29 29 30 31 32 33 34 34

ECMWFNIL_700_spd_129.txt.gz
Wind_Speed
13 12 12 12 11 11 11 11 11 11 11 10 10 10 10 10 10 10 10 10 10 10 10 10 10 9 9 10 9 8 8 7 7 7 6 7 7 7 7 7 7 7
13 13 12 12 11 10 10 10 10 10 11 11 10 10 10 10 10 10 10 11 11 10 10 10 10 10 10 10 10 9 8 8 8 8 7 8 8 8 8 7 7 7
14 13 13 12 11 11 10 10 9 9 10 10 10 10 10 10 10 10 11 11 11 10 10 10 10 10 11 11 11 10 9 9 9 9 8 8 8 8 8 8 7 7
15 14 14 13 12 12 11 10 9 9 9 9 10 10 10 10 10 10 11 11 11 10 10 10 10 11 11 11 11 11 10 9 9 9 9 9 9 9 8 8 8 8
15 15 14 14 13 12 11 11 10 10 9 9 9 10 9 10 10 10 11 11 11 11 11 11 10 11 11 11 11 11 10 10 9 10 10 9 9 9 9 9 9 9
16 15 15 14 14 13 12 12 11 11 10 10 10 10 10 10 10 10 10 11 11 11 11 11 11 11 11 11 11 11 10 10 9 9 10 10 10 10 10 10 9 10
16 16 15 15 14 14 14 13 13 12 11 11 10 10 10 10 10 10 11 11 11 12 12 12 12 12 11 11 11 11 11 10 9 9 10 10 9 10 11 11 10 11
17 16 16 15 15 15 15 14 13 13 12 11 11 10 10 10 10 11 11 11 12 12 12 12 12 12 11 11 12 11 11 11 10 10 10 10 9 10 10 11 11 11
18 17 16 16 15 15 15 15 14 14 13 12 11 11 11 11 11 11 11 11 12 12 12 12 12 12 12 12 11 11 11 11 10 10 10 10 10 11 11 11 11 11
18 18 17 16 16 15 15 15 15 14 14 13 13 12 12 12 12 12 12 12 12 12 12 12 12 12 12 11 11 11 10 10 10 10 10 11 11 11 11 11 11 11
18 18 18 17 17 16 16 16 16 15 15 14 14 14 14 13 13 13 13 12 12 12 12 12 12 12 12 12 12 11 11 10 10 10 10 10 11 11 11 11 11 11
18 18 18 17 17 17 17 17 17 16 16 15 15 15 15 14 14 14 13 13 13 13 13 13 13 13 13 13 13 12 12 11 10 10 10 10 10 10 10 10 11 11
19 19 18 18 17 17 17 17 17 17 17 16 16 17 16 15 15 15 15 15 14 14 14 14 14 14 14 14 14 14 13 12 11 11 11 11 11 11 11 10 11 11
21 20 20 19 19 19 18 17 17 17 18 17 17 17 17 16 16 16 16 16 15 15 15 15 15 15 16 16 16 16 15 14 14 13 12 12 12 12 12 11 11 11
22 22 22 22 21 21 20 19 18 18 18 18 18 17 17 17 17 17 16 16 16 16 16 16 16 16 17 17 17 17 17 16 16 15 14 13 13 12 13 12 12 11
24 24 24 25 24 23 22 21 21 20 19 19 19 18 18 18 18 17 17 16 16 16 16 17 17 18 18 17 17 18 17 16 17 17 15 15 14 13 13 13 13 12
24 25 26 27 26 26 26 25 25 24 22 22 21 21 20 20 19 18 18 17 17 17 17 17 18 20 20 19 18 19 18 18 18 17 17 17 16 15 15 14 15 15
25 26 26 26 27 27 28 27 27 27 26 25 24 23 23 23 21 20 19 19 19 17 16 17 20 21 21 20 19 20 20 20 19 19 18 18 17 17 17 17 17 17
28 28 27 27 28 29 29 29 29 29 28 28 27 26 25 24 24 23 22 21 21 19 18 21 22 22 21 20 19 20 21 20 20 20 19 19 19 19 19 19 19 19
31 30 29 29 29 29 30 31 31 31 31 29 29 30 29 27 27 25 24 25 24 23 24 26 25 23 23 22 21 21 22 21 21 22 21 21 21 21 21 22 22 22
34 32 30 29 29 29 30 32 32 32 32 31 31 32 30 29 28 26 27 28 27 26 28 27 25 24 24 24 23 23 23 23 23 23 23 23 22 22 22 23 24 24
34 34 33 33 33 32 31 30 30 31 30 29 29 31 30 28 27 25 27 29 28 27 28 27 26 26 25 25 25 25 24 24 24 24 24 24 23 23 23 24 26 26
30 31 33 35 37 36 32 30 31 32 31 30 30 31 30 30 29 28 30 31 27 24 25 25 26 27 26 25 26 25 25 25 24 24 25 24 25 25 26 27 28 26
27 27 27 29 31 31 27 25 27 30 32 34 34 32 32 31 31 32 32 30 27 25 25 25 25 26 27 27 26 25 25 25 25 24 25 25 25 27 27 28 28 26
29 25 23 21 21 23 22 20 23 27 30 32 32 31 31 32 31 31 30 27 26 26 25 24 24 24 25 26 25 25 25 26 25 25 26 26 26 27 28 28 29 28
24 22 22 20 16 17 19 19 22 23 23 23 23 23 26 29 30 29 24 21 22 22 19 19 21 21 22 22 23 23 24 24 25 26 27 27 28 28 28 28 29 28

ECMWFNIL_700_spd_132.txt.gz
Wind_Speed
12 11 11 11 11 11 11 11 10 10 9 9 9 9 8 8 7 7 7 7 7 7 7 8 8 8 8 8 7 6 6 6 6 6 6 7 7 7 6 7 6 6
12 12 11 11 10 10 10 11 10 10 10 9 8 8 8 8 8 8 7 7 7 7 7 8 8 8 8 8 8 7 6 6 6 6 6 6 7 7 6 6 6 6
12 12 11 11 11 11 11 10 10 9 10 9 8 8 8 8 8 8 8 7 7 7 7 7 7 8 8 8 8 8 6 6 6 5 5 6 6 6 6 6 6 6
12 12 12 12 11 11 11 10 9 9 9 9 9 8 8 8 8 8 8 7 7 7 7 7 7 7 7 8 8 8 7 6 5 5 5 6 6 6 6 6 5 5
13 13 13 12 11 11 11 10 10 9 9 8 8 8 8 8 8 8 8 8 8 8 8 7 7 7 7 8 8 8 8 7 6 6 6 6 6 6 7 7 7 7
13 13 13 12 12 11 11 11 10 10 10 9 9 8 8 8 8 7 8 8 8 8 8 8 7 8 8 8 8 8 8 8 7 6 7 7 7 7 8 8 7 8
14 14 13 12 12 11 11 10 10 10 10 9 8 8 8 7 7 7 8 8 8 8 9 8 7 8 9 8 8 8 9 8 7 7 7 7 7 7 8 8 8 8
14 14 14 13 13 12 12 11 10 10 10 9 9 8 8 7 7 8 8 8 8 8 9 9 8 9 9 9 8 9 9 9 8 9 9 8 7 7 7 8 8 8
16 15 14 14 14 13 12 12 12 11 10 10 9 8 8 8 7 8 8 8 8 9 9 9 9 9 9 9 9 8 9 9 9 10 9 8 8 8 8 8 8 8
16 15 14 14 13 12 13 13 13 12 11 11 10 9 9 8 8 8 8 8 8 8 9 9 9 9 9 9 9 8 9 9 9 9 9 8 8 8 8 8 8 8
17 17 15 14 14 13 13 13 13 13 12 12 11 10 10 9 9 9 9 8 8 8 9 9 9 9 9 9 9 9 9 9 9 9 8 8 8 8 8 8 8 9
17 17 16 16 15 15 14 13 13 14 13 13 13 12 11 11 11 11 10 10 10 10 10 10 10 10 10 10 10 10 10 10 9 8 8 8 7 7 8 7 8 8
17 17 17 17 16 16 16 15 15 14 13 13 13 13 12 12 13 13 12 12 12 12 12 11 12 12 11 11 12 12 11 11 11 10 9 8 8 8 8 8 8 8
18 17 17 17 17 17 17 16 15 15 14 13 13 14 14 13 13 13 13 13 12 13 13 12 12 13 13 12 13 13 13 13 13 12 10 9 9 9 8 8 9 9
19 19 19 19 18 18 17 17 16 16 15 15 15 15 14 14 14 14 13 12 12 13 14 13 13 13 14 14 14 14 14 14 14 13 12 11 10 10 9 9 10 9
21 21 21 20 20 20 19 18 18 17 16 16 16 15 14 14 15 15 15 14 13 13 13 14 15 15 15 15 15 15 15 16 15 14 14 14 12 11 11 11 10 10
22 23 24 25 25 23 21 19 19 18 18 18 17 16 16 16 16 16 15 14 14 13 13 15 17 16 15 15 14 14 15 16 16 15 15 15 13 13 13 13 13 12
22 24 25 26 26 24 22 21 21 20 21 21 19 18 18 18 18 17 17 16 16 16 16 18 18 17 17 16 15 14 15 16 16 16 16 16 15 15 15 16 16 16
22 21 21 23 23 22 21 22 23 23 23 22 20 19 18 19 19 19 19 19 19 19 19 20 19 18 18 18 16 15 15 16 16 16 17 17 17 17 17 17 18 19
24 21 19 22 24 23 22 24 25 25 25 24 23 21 20 21 22 21 21 22 22 22 23 23 21 20 20 20 18 17 16 16 17 17 17 18 19 20 21 21 21 21
26 23 20 22 26 25 24 24 24 24 25 25 24 24 23 24 24 24 24 24 24 25 26 25 24 23 23 23 22 21 19 18 19 19 18 18 20 23 24 23 23 23
29 27 24 24 26 28 27 25 23 23 23 24 24 25 25 25 26 26 26 27 27 28 29 28 27 26 25 25 25 24 23 22 22 22 21 21 22 24 24 24 25 25
29 29 27 26 27 29 29 27 24 24 24 24 24 24 25 26 26 27 28 29 30 31 32 30 28 27 27 26 26 26 25 25 25 24 23 24 25 25 25 25 26 26
23 24 24 24 26 29 28 26 24 24 26 26 26 26 27 27 27 27 29 30 31 31 30 29 29 29 28 27 26 26 27 27 26 26 25 25 26 26 26 26 26 26
22 25 23 22 22 23 22 20 19 20 22 25 27 29 28 27 26 27 29 30 31 31 29 29 29 29 28 27 27 26 26 27 26 27 27 26 27 27 27 26 26 27
23 27 28 27 26 23 20 19 18 16 16 18 21 25 24 23 24 25 27 28 27 27 27 27 27 26 24 27 29 28 26 26 26 26 27 27 27 27 26 26 27 27

ECMWFNIL_700_spd_135.txt.gz
Wind_Speed
12 12 11 11 10 10 10 10 10 10 9 9 9 9 9 9 9 9 9 9 8 7 7 6 6 6 6 6 5 5 5 4 4 4 5 7 7 7 7 8 8 8
11 11 11 11 11 10 10 10 10 10 9 9 9 8 8 8 8 8 8 8 7 7 6 6 6 7 6 6 5 5 4 3 4 4 4 4 5 5 5 6 7 7
9 10 10 11 11 11 11 10 10 9 9 9 9 8 8 7 7 7 7 6 6 6 6 6 6 6 6 6 6 5 4 3 4 4 4 4 4 4 5 5 5 5
9 9 10 10 11 11 11 11 10 10 9 9 9 8 8 7 7 7 6 6 6 5 6 6 6 6 6 6 6 6 5 4 4 4 4 4 4 5 6 5 4 4
10 9 9 10 10 10 10 10 9 10 10 10 9 8 8 7 7 7 7 7 7 6 6 6 6 6 6 6 7 7 6 5 4 4 4 4 4 5 6 5 5 5
10 10 9 9 10 10 9 9 9 9 9 9 9 8 8 7 7 7 7 7 7 7 6 6 6 6 6 6 6 7 7 6 5 5 5 4 4 5 5 5 5 5
10 10 10 10 9 10 9 9 9 9 8 8 8 7 7 7 7 7 7 7 7 7 7 7 7 6 6 6 6 6 6 6 6 5 4 4 4 4 5 5 5 6
11 10 10 10 9 9 9 9 9 8 8 8 8 7 7 7 7 7 7 7 7 7 7 6 6 6 6 6 6 6 6 6 6 6 4 4 4 5 5 5 5 6
13 12 11 11 10 9 9 9 9 9 9 8 8 8 8 7 7 7 7 7 7 6 6 6 6 6 6 6 6 7 7 6 6 6 5 5 5 5 6 6 6 6
13 13 12 12 11 10 10 10 9 9 9 9 9 8 8 8 8 7 7 7 7 6 6 6 7 6 6 6 6 6 6 6 5 5 5 5 5 5 5 6 6 6
14 14 13 12 12 11 11 11 11 10 10 10 10 9 9 9 9 8 8 7 7 7 7 7 7 7 7 7 7 6 6 6 5 5 6 6 6 6 5 5 5 5
14 14 14 13 13 12 12 12 11 11 11 11 11 11 11 10 9 10 9 8 8 8 8 7 8 8 8 7 8 7 7 6 6 5 6 6 6 6 6 5 5 5
15 15 15 14 14 13 13 12 12 12 12 13 14 14 13 11 11 11 10 9 9 9 8 8 8 8 9 9 9 8 8 8 8 7 7 6 6 6 6 5 5 5
16 16 16 16 16 15 14 13 13 13 13 14 15 15 13 13 12 11 11 11 11 10 9 9 9 10 10 10 10 10 9 9 9 8 8 7 7 7 7 7 7 7
18 17 17 17 18 18 16 15 15 15 15 16 16 14 13 13 13 12 11 11 11 11 11 11 11 12 11 11 11 11 11 10 10 10 9 9 9 9 9 9 9 9
18 18 18 18 18 18 18 17 17 16 16 16 16 15 13 13 13 13 13 13 13 13 14 13 13 13 12 12 12 13 13 12 11 11 11 11 11 11 11 12 12 12
18 18 19 19 18 18 18 18 18 18 18 17 16 15 15 14 14 14 14 14 14 14 15 14 13 13 13 13 14 14 13 12 12 12 12 12 13 13 14 14 13 14
18 18 18 18 19 20 19 18 19 18 18 18 16 15 15 15 15 15 15 15 14 15 15 13 13 13 13 14 14 14 13 13 13 13 13 13 14 15 15 15 15 15
19 18 18 19 21 21 20 20 20 19 19 19 18 18 17 16 16 16 17 17 17 16 16 15 14 14 14 14 14 14 14 15 15 15 15 15 17 17 16 16 17 17
21 19 18 20 20 20 20 21 22 22 22 21 21 20 20 19 18 18 18 18 18 18 19 18 18 17 16 16 15 15 15 15 16 17 17 18 19 18 17 18 18 18
24 22 20 20 19 19 20 22 23 23 22 23 23 23 23 22 21 21 21 21 21 21 21 21 21 20 20 19 19 18 17 17 17 17 18 20 20 19 18 18 18 19
28 27 24 22 21 19 20 21 21 21 21 20 22 24 25 24 24 24 25 25 25 24 24 24 23 22 22 21 22 22 22 21 20 21 22 23 23 22 20 20 20 20
32 30 28 26 24 21 20 20 20 21 21 20 21 22 24 24 25 26 27 28 28 27 26 26 25 25 24 23 24 24 25 24 24 23 24 24 24 24 23 22 22 22
33 32 30 27 25 24 24 23 22 23 23 21 22 23 24 25 26 26 27 27 28 27 27 27 27 26 26 26 26 26 26 26 26 26 26 25 25 26 25 24 23 23
29 30 31 29 26 26 29 27 25 25 25 24 25 25 27 27 28 28 28 28 27 28 28 28 28 27 26 26 26 26 26 27 27 27 27 26 26 26 26 26 25 24
26 27 28 26 23 23 26 24 22 22 23 25 26 27 27 27 27 28 30 29 28 28 28 28 27 27 27 27 27 27 27 27 28 28 27 26 26 26 27 27 26 24

ECMWFNIL_700_spd_138.txt.gz
Wind_Speed
13 13 13 13 13 13 13 13 12 12 12 12 13 13 13 13 13 13 12 11 10 10 9 8 7 7 7 7 7 6 6 6 6 6 7 8 8 9 9 10 11 12
13 13 13 14 13 13 13 13 13 12 12 13 13 13 13 13 12 12 12 11 10 9 8 7 7 7 6 6 6 6 5 4 5 5 6 6 7 8 8 8 9 9
12 12 12 13 13 13 13 13 13 13 13 13 13 13 13 12 12 12 12 11 11 10 9 8 8 7 7 6 6 6 5 4 4 5 5 6 6 7 7 7 7 8
11 12 12 12 13 13 13 13 13 13 13 13 13 13 13 13 12 12 12 12 11 10 10 9 9 8 8 7 7 6 6 5 4 5 5 5 6 7 6 6 6 7
11 11 12 12 13 13 13 13 13 13 13 13 13 13 13 13 13 13 12 12 12 11 10 10 10 10 9 9 8 8 7 6 5 5 5 5 6 7 6 6 6 6
12 12 12 12 12 12 12 13 13 13 13 13 13 12 12 13 13 13 12 12 12 12 11 11 10 10 10 10 9 9 9 8 7 6 6 6 6 7 6 7 7 7
12 12 12 12 12 12 12 12 13 13 13 13 13 13 13 13 13 13 13 12 12 12 11 11 11 11 11 10 10 10 10 9 9 8 8 7 7 7 7 7 8 8
13 13 13 13 12 12 12 12 12 12 12 12 13 13 13 13 13 13 12 13 12 12 12 12 12 11 11 11 11 11 10 10 10 9 8 8 7 7 7 7 7 7
14 14 14 13 13 13 13 12 12 12 12 11 12 13 13 13 13 13 13 13 12 12 13 12 12 12 12 12 11 11 11 11 11 10 9 9 8 8 8 7 7 7
15 14 14 14 14 14 13 13 13 13 12 12 12 13 13 14 14 13 13 13 13 13 12 12 12 12 12 12 12 11 11 11 11 10 10 10 9 8 8 8 8 8
16 15 15 14 14 14 14 14 14 14 14 16 16 16 16 16 15 14 12 12 12 12 12 12 13 12 12 12 12 11 11 11 11 10 10 10 9 9 9 8 8 8
17 17 16 15 15 15 14 15 15 15 17 17 15 14 14 14 14 14 13 12 12 12 12 13 13 12 12 12 12 12 11 10 10 10 10 9 9 9 9 8 9 9
17 17 17 17 16 16 16 15 16 17 17 16 14 14 14 13 13 13 12 12 12 11 11 12 13 12 12 11 11 11 11 10 10 10 10 10 9 10 10 10 11 11
18 18 18 19 18 18 18 17 17 17 16 15 15 15 14 14 14 13 12 12 12 11 12 13 14 12 11 11 11 11 11 11 11 11 10 10 11 12 12 13 13 10
17 17 18 18 19 19 18 17 18 18 16 15 14 14 15 15 15 14 14 13 13 14 15 15 14 11 11 12 12 11 12 12 12 12 12 12 13 14 14 14 12 10
16 16 17 17 18 18 18 18 19 18 17 16 16 15 15 15 14 14 15 14 14 15 15 15 14 12 12 13 13 12 13 13 12 13 14 14 15 16 15 14 13 12
17 17 17 17 17 17 18 19 19 19 18 18 17 16 15 14 14 15 15 15 14 14 14 14 13 12 12 13 13 14 14 14 13 14 15 15 16 16 16 15 14 14
18 17 17 17 17 18 18 18 19 19 19 19 18 17 16 15 16 16 16 16 15 14 14 14 13 12 13 13 13 14 14 14 14 15 15 16 16 16 16 16 16 15
21 19 18 18 18 18 19 19 19 19 19 19 19 18 18 18 18 18 17 17 17 16 15 14 13 13 14 14 13 14 14 15 15 16 16 16 16 16 17 17 17 17
24 22 21 19 17 18 18 19 20 20 20 20 20 19 19 19 20 19 19 18 18 17 17 16 15 15 15 15 15 14 15 15 16 17 17 17 17 17 18 18 18 18
26 25 23 19 17 18 19 19 20 20 21 22 22 21 20 20 20 20 20 19 19 19 19 18 18 18 18 17 17 17 17 17 18 19 19 19 19 19 19 18 18 19
27 27 26 24 21 21 20 21 21 21 21 23 24 24 23 22 22 21 21 21 21 22 22 21 21 21 21 20 20 20 20 21 21 22 21 21 21 21 21 21 21 21
27 28 31 30 26 24 23 23 23 22 22 23 25 25 24 23 23 23 23 23 24 25 26 26 25 25 24 24 23 23 23 23 23 24 24 24 24 24 24 24 24 24
28 31 33 31 28 27 28 27 26 25 24 24 25 25 25 24 24 23 23 23 24 25 27 28 28 28 27 27 26 26 26 26 26 26 26 27 27 27 26 26 26 25
29 31 30 29 30 31 31 30 28 27 27 27 27 27 26 26 25 24 24 24 24 26 27 28 29 29 28 28 27 27 27 28 28 28 29 29 29 28 28 27 27 27
27 27 25 23 25 28 30 30 28 27 28 28 29 29 28 27 26 26 26 26 25 27 29 30 30 30 29 28 28 28 29 29 29 30 30 30 30 29 29 28 27 27

ECMWFNIL_700_spd_141.txt.gz
Wind_Speed
13 13 13 14 14 14 15 15 15 15 15 15 15 15 15 15 15 14 14 13 12 12 11 9 8 7 8 8 8 8 8 8 8 9 9 10 10 10 11 11 12 13
13 13 14 14 14 13 13 14 14 14 14 14 14 15 15 15 15 14 14 13 12 12 10 9 8 8 8 9 9 9 9 8 8 8 9 10 10 10 10 10 11 12
13 13 14 14 14 13 13 14 14 14 14 14 14 14 14 14 14 14 13 13 12 11 11 10 9 9 9 9 9 9 9 8 8 8 8 9 9 10 10 10 10 11
14 14 14 14 14 14 14 14 14 14 14 14 14 13 13 13 13 13 13 13 12 11 11 10 10 10 10 10 9 9 8 8 8 8 8 8 9 9 10 10 9 10
14 14 14 14 15 15 15 15 15 14 14 14 14 14 14 14 13 14 13 13 13 12 12 11 11 11 11 10 10 9 9 9 8 8 8 8 8 9 9 9 9 9
14 14 14 14 15 15 15 15 15 14 14 14 14 14 14 14 14 14 14 14 14 13 13 12 12 12 11 11 11 10 10 10 9 8 8 8 8 9 9 9 10 10
15 14 14 14 15 15 15 15 15 14 14 14 14 14 14 15 15 15 14 15 14 14 13 13 13 12 12 11 11 11 11 10 10 9 9 9 9 9 10 10 11 11
16 15 15 15 15 15 14 15 15 14 14 15 15 16 17 17 17 17 16 16 15 15 14 14 13 13 12 12 11 11 11 11 11 11 11 10 9 10 10 11 12 12
16 16 16 16 16 15 15 15 15 15 16 18 18 18 18 17 17 17 17 17 16 15 15 14 14 13 13 12 12 12 12 12 13 13 12 11 11 11 11 11 11 12
17 17 17 16 16 16 16 15 15 16 18 18 17 17 17 16 16 16 16 17 16 16 15 15 15 14 14 14 13 13 13 13 13 13 13 13 13 13 12 12 12 12
19 18 17 16 16 16 16 16 17 18 17 16 16 15 14 14 14 15 15 15 16 16 16 16 16 15 15 15 14 14 14 14 14 14 14 14 14 15 14 13 13 13
21 20 18 17 17 16 16 16 17 17 15 14 14 13 12 12 11 12 14 15 15 15 16 16 16 16 16 16 15 15 15 15 15 14 15 15 16 16 14 13 13 13
21 20 20 19 18 17 17 17 17 16 15 14 14 13 12 11 11 11 13 15 15 14 15 16 16 15 16 16 16 16 16 15 15 15 15 16 16 15 13 13 13 13
21 21 20 20 20 19 19 19 17 16 16 15 15 14 12 12 11 11 12 14 15 15 15 15 15 15 15 15 15 15 15 15 15 15 16 17 16 14 13 13 13 14
21 21 21 21 21 21 21 20 18 17 17 16 15 15 14 13 13 13 13 14 14 15 14 15 15 14 15 15 15 15 15 16 15 15 16 17 16 14 14 14 14 14
20 20 21 21 21 21 21 20 18 17 17 16 15 15 14 14 14 14 14 14 14 14 14 15 16 15 15 15 15 15 16 17 17 16 17 18 16 15 15 15 14 15
21 20 21 21 20 21 21 20 19 18 17 17 16 15 15 15 14 14 15 16 16 15 14 15 16 16 16 16 16 16 17 17 17 17 18 18 17 16 16 16 15 16
22 21 21 21 21 20 20 20 19 19 19 18 17 16 16 16 15 14 15 16 16 15 16 16 16 16 16 17 17 17 17 17 17 17 18 18 18 18 17 17 17 17
23 22 21 21 20 20 20 19 19 19 19 19 19 18 17 17 16 15 15 16 16 15 16 17 16 16 16 17 18 18 17 17 17 18 18 18 18 18 18 17 17 17
23 22 21 21 20 19 20 20 20 20 19 19 19 19 19 18 18 18 18 17 16 16 17 18 17 17 17 18 19 19 18 18 18 18 18 18 18 18 18 19 19 18
26 26 24 22 19 19 20 21 22 22 21 21 20 21 21 21 20 20 19 19 18 18 18 18 18 18 18 19 19 19 19 19 19 19 19 19 19 19 19 20 20 20
27 27 24 21 20 20 20 21 22 22 23 23 22 22 22 22 22 21 21 20 20 20 20 19 19 20 20 20 20 21 21 21 21 21 22 22 22 22 22 22 22 23
24 25 25 25 25 23 21 20 22 23 25 27 25 25 24 23 23 23 22 23 23 22 22 22 21 21 22 22 22 23 23 23 24 24 25 26 26 26 26 26 26 26
23 24 26 26 24 21 19 21 23 24 26 28 28 27 27 25 23 22 22 23 24 24 25 24 24 23 23 24 24 25 26 26 27 28 29 29 29 30 30 30 30 29
23 25 26 24 22 21 21 23 25 27 28 29 29 30 29 26 23 22 23 24 25 25 25 25 25 24 24 24 25 25 27 28 29 31 31 32 33 33 32 32 32 32
21 22 24 23 23 23 24 25 27 28 30 31 32 31 30 27 24 23 24 27 27 27 27 26 26 26 25 25 25 26 27 29 30 31 32 33 34 33 31 32 34 33